[[{"header":{"parameterUnit":"m.s-1","parameterCategory":1,"la1":30.6,"la2":29.2853,"lo1":-89.7004,"lo2":-87.6739,"dy":0.0162,"dx":0.0183,"nx":112,"ny":82,"refTime":"2023-03-07T18:00:00:Z","depth":0,"parameterNumber":2,"parameterNumberName":"U-component_of_WINDS"},"data":[0.0,0.0,0.0,0.0,0.0,0.0,0.0,0.0,0.0,0.0,0.0,0.0,0.0,0.0,0.0,0.0,0.0,0.0,0.0,0.0,0.0,0.0,0.0,0.0,0.0,0.0,0.0,0.0,0.0,0.0,0.0,0.0,0.0,0.0,0.0,0.0,0.0,0.0,0.0,0.0,0.0,0.0,0.0,0.0,0.0,0.0,0.0,0.0,0.0,0.0,0.0,0.0,0.0,0.0,0.0,0.0,0.0,0.0,0.0,0.0,0.0,0.0,0.0,0.0,0.0,0.0,0.0,0.0,0.0,0.0,0.0,0.0,0.0,0.0,0.0,0.0,0.0,0.0,0.0,0.0,0.0,0.0,0.0,0.0,0.0,0.0,0.0,0.0,0.0,0.0,0.0,-2.2167,-2.1886,-2.1924,-2.2259,-2.2235,-2.2384,-2.2719,0.0,0.0,0.0,0.0,0.0,0.0,0.0,0.0,0.0,0.0,0.0,0.0,0.0,0.0,0.0,0.0,0.0,0.0,0.0,0.0,0.0,0.0,0.0,0.0,0.0,0.0,0.0,0.0,0.0,0.0,0.0,0.0,0.0,0.0,0.0,0.0,0.0,0.0,0.0,0.0,0.0,0.0,0.0,0.0,0.0,0.0,0.0,0.0,0.0,0.0,0.0,0.0,0.0,0.0,0.0,0.0,0.0,0.0,0.0,0.0,0.0,0.0,0.0,0.0,0.0,0.0,0.0,0.0,0.0,0.0,0.0,0.0,0.0,0.0,0.0,0.0,0.0,0.0,0.0,0.0,0.0,0.0,0.0,0.0,0.0,0.0,0.0,0.0,0.0,0.0,0.0,0.0,0.0,0.0,0.0,0.0,0.0,0.0,0.0,0.0,0.0,0.0,0.0,0.0,-2.2337,-2.2818,-2.2819,-2.2918,-2.3242,-2.3264,-2.3189,-2.3349,0.0,0.0,0.0,0.0,0.0,0.0,0.0,0.0,0.0,0.0,0.0,0.0,0.0,0.0,0.0,0.0,0.0,0.0,0.0,0.0,0.0,0.0,0.0,0.0,0.0,0.0,0.0,0.0,0.0,0.0,0.0,0.0,0.0,0.0,0.0,0.0,0.0,0.0,0.0,0.0,0.0,0.0,0.0,0.0,0.0,0.0,0.0,0.0,0.0,0.0,0.0,0.0,0.0,0.0,0.0,0.0,0.0,0.0,0.0,0.0,0.0,0.0,0.0,0.0,0.0,0.0,0.0,0.0,0.0,0.0,0.0,0.0,0.0,0.0,0.0,0.0,0.0,0.0,0.0,0.0,0.0,0.0,0.0,0.0,0.0,0.0,0.0,0.0,0.0,0.0,0.0,0.0,0.0,0.0,0.0,0.0,0.0,0.0,0.0,0.0,0.0,0.0,0.0,-2.2165,-2.187,-2.3091,-2.3264,-2.3277,-2.3761,-2.3696,-2.3806,-2.3979,-2.3883,0.0,0.0,0.0,0.0,0.0,0.0,0.0,0.0,0.0,0.0,0.0,0.0,0.0,0.0,0.0,0.0,0.0,0.0,0.0,0.0,0.0,0.0,0.0,0.0,0.0,0.0,0.0,0.0,0.0,0.0,0.0,0.0,0.0,0.0,0.0,0.0,0.0,0.0,0.0,0.0,0.0,0.0,0.0,0.0,0.0,0.0,0.0,0.0,0.0,0.0,0.0,0.0,0.0,0.0,0.0,0.0,0.0,0.0,0.0,0.0,0.0,0.0,0.0,0.0,0.0,0.0,0.0,0.0,0.0,0.0,0.0,0.0,0.0,0.0,0.0,0.0,0.0,0.0,0.0,0.0,0.0,0.0,0.0,0.0,0.0,0.0,0.0,0.0,0.0,0.0,0.0,0.0,0.0,0.0,0.0,0.0,0.0,0.0,0.0,0.0,0.0,0.0,-2.2757,-2.2423,-2.383,-2.3868,-2.4091,-2.4327,-2.442,-2.4565,-2.471,-2.4767,0.0,0.0,0.0,0.0,0.0,0.0,0.0,0.0,0.0,0.0,0.0,0.0,0.0,0.0,0.0,0.0,0.0,0.0,0.0,0.0,0.0,0.0,0.0,0.0,0.0,0.0,0.0,0.0,0.0,0.0,0.0,0.0,0.0,0.0,0.0,0.0,0.0,0.0,0.0,0.0,0.0,0.0,0.0,0.0,0.0,0.0,0.0,0.0,0.0,0.0,0.0,0.0,0.0,0.0,0.0,0.0,0.0,0.0,0.0,0.0,0.0,0.0,0.0,0.0,0.0,0.0,0.0,0.0,0.0,0.0,0.0,0.0,0.0,0.0,0.0,0.0,0.0,0.0,0.0,0.0,0.0,0.0,0.0,0.0,0.0,0.0,0.0,0.0,0.0,0.0,0.0,0.0,0.0,0.0,0.0,0.0,0.0,0.0,0.0,0.0,0.0,0.0,-2.441,-2.49,-2.527,-2.5374,-2.5308,-2.5404,-2.5321,-2.5344,-2.5348,-2.541,0.0,0.0,0.0,0.0,0.0,0.0,0.0,0.0,0.0,0.0,0.0,0.0,0.0,0.0,0.0,0.0,0.0,0.0,0.0,0.0,0.0,0.0,0.0,0.0,0.0,0.0,0.0,0.0,0.0,0.0,0.0,0.0,0.0,0.0,0.0,0.0,0.0,0.0,0.0,0.0,0.0,0.0,0.0,0.0,0.0,0.0,0.0,0.0,0.0,0.0,0.0,0.0,0.0,0.0,0.0,0.0,0.0,0.0,0.0,0.0,0.0,0.0,0.0,0.0,0.0,0.0,0.0,0.0,0.0,0.0,0.0,0.0,0.0,0.0,0.0,0.0,0.0,0.0,0.0,0.0,0.0,0.0,0.0,0.0,0.0,0.0,0.0,0.0,0.0,0.0,0.0,0.0,0.0,0.0,0.0,0.0,0.0,0.0,0.0,0.0,0.0,0.0,-2.4087,-2.399,0.0,-2.549,-2.5505,-2.5423,-2.5568,-2.5453,-2.5477,0.0,0.0,0.0,0.0,0.0,0.0,0.0,0.0,0.0,0.0,0.0,0.0,0.0,0.0,0.0,0.0,0.0,0.0,0.0,0.0,0.0,0.0,0.0,0.0,0.0,0.0,0.0,0.0,0.0,0.0,0.0,0.0,0.0,0.0,0.0,0.0,0.0,0.0,0.0,0.0,0.0,0.0,0.0,0.0,0.0,0.0,0.0,0.0,0.0,0.0,0.0,0.0,0.0,0.0,0.0,0.0,0.0,0.0,0.0,0.0,0.0,0.0,0.0,0.0,0.0,0.0,0.0,0.0,0.0,0.0,0.0,0.0,0.0,0.0,0.0,0.0,0.0,0.0,0.0,0.0,0.0,0.0,0.0,0.0,0.0,0.0,0.0,0.0,0.0,0.0,0.0,0.0,0.0,0.0,0.0,0.0,0.0,0.0,0.0,0.0,0.0,0.0,-2.5211,-2.4326,-2.4086,0.0,-2.5846,-2.5846,-2.5846,-2.5846,-2.5846,-2.5846,0.0,0.0,0.0,0.0,0.0,0.0,0.0,0.0,0.0,0.0,0.0,0.0,0.0,0.0,0.0,0.0,0.0,0.0,0.0,0.0,0.0,0.0,0.0,0.0,0.0,0.0,0.0,0.0,0.0,0.0,0.0,0.0,0.0,0.0,0.0,0.0,0.0,0.0,0.0,0.0,0.0,0.0,0.0,0.0,0.0,0.0,0.0,0.0,0.0,0.0,0.0,0.0,0.0,0.0,0.0,0.0,0.0,0.0,0.0,0.0,0.0,0.0,0.0,0.0,0.0,0.0,0.0,0.0,0.0,0.0,0.0,0.0,0.0,0.0,0.0,0.0,0.0,0.0,0.0,0.0,0.0,0.0,0.0,0.0,0.0,0.0,0.0,0.0,0.0,0.0,0.0,0.0,0.0,0.0,0.0,0.0,0.0,0.0,0.0,0.0,0.0,0.0,-2.5319,-2.5687,-2.6043,-2.6386,-2.6386,-2.6386,-2.6386,-2.6386,-2.6386,0.0,0.0,0.0,0.0,0.0,0.0,0.0,0.0,0.0,0.0,0.0,0.0,0.0,0.0,0.0,0.0,0.0,0.0,0.0,0.0,0.0,0.0,0.0,0.0,0.0,0.0,0.0,0.0,0.0,0.0,0.0,0.0,0.0,0.0,0.0,0.0,0.0,0.0,0.0,0.0,0.0,0.0,0.0,0.0,0.0,0.0,0.0,0.0,0.0,0.0,0.0,0.0,0.0,0.0,0.0,0.0,0.0,0.0,0.0,0.0,0.0,0.0,0.0,0.0,0.0,0.0,0.0,0.0,0.0,0.0,0.0,0.0,0.0,0.0,0.0,0.0,0.0,0.0,0.0,0.0,0.0,0.0,0.0,0.0,0.0,0.0,0.0,0.0,0.0,0.0,0.0,0.0,0.0,0.0,0.0,0.0,0.0,0.0,0.0,0.0,0.0,0.0,0.0,-2.6043,-2.6215,-2.6373,-2.6386,-2.6386,-2.6386,-2.6386,-2.6386,-2.6386,-2.6386,0.0,0.0,0.0,0.0,0.0,0.0,0.0,0.0,0.0,0.0,0.0,0.0,0.0,0.0,0.0,0.0,0.0,0.0,0.0,0.0,0.0,0.0,0.0,0.0,0.0,0.0,0.0,0.0,0.0,0.0,0.0,0.0,0.0,0.0,0.0,0.0,0.0,0.0,0.0,0.0,0.0,0.0,0.0,0.0,0.0,0.0,0.0,0.0,0.0,0.0,0.0,0.0,0.0,0.0,0.0,0.0,0.0,0.0,0.0,0.0,0.0,0.0,0.0,0.0,0.0,0.0,0.0,0.0,0.0,0.0,0.0,0.0,0.0,0.0,0.0,0.0,0.0,0.0,0.0,0.0,0.0,0.0,0.0,0.0,0.0,0.0,0.0,0.0,0.0,0.0,0.0,0.0,0.0,0.0,0.0,0.0,0.0,0.0,0.0,0.0,0.0,0.0,-2.6386,-2.6386,-2.6386,-2.6386,-2.6386,-2.6386,-2.6386,-2.6544,-2.6702,-2.6702,0.0,0.0,0.0,0.0,0.0,0.0,0.0,0.0,0.0,0.0,0.0,0.0,0.0,0.0,0.0,0.0,0.0,0.0,0.0,0.0,0.0,0.0,0.0,0.0,0.0,0.0,0.0,0.0,0.0,0.0,0.0,0.0,0.0,0.0,0.0,0.0,0.0,0.0,0.0,0.0,0.0,0.0,0.0,0.0,0.0,0.0,0.0,0.0,0.0,0.0,0.0,0.0,0.0,0.0,0.0,0.0,0.0,0.0,0.0,0.0,0.0,0.0,0.0,0.0,0.0,0.0,0.0,0.0,0.0,0.0,0.0,0.0,0.0,0.0,0.0,0.0,0.0,0.0,0.0,0.0,0.0,0.0,0.0,0.0,0.0,0.0,0.0,0.0,0.0,0.0,0.0,0.0,0.0,0.0,0.0,0.0,0.0,0.0,0.0,0.0,0.0,0.0,-2.6386,-2.6386,-2.6386,-2.6386,-2.6386,-2.6386,-2.6386,-2.686,-2.7032,-2.7032,0.0,0.0,0.0,0.0,0.0,0.0,0.0,0.0,0.0,0.0,0.0,0.0,0.0,0.0,0.0,0.0,0.0,0.0,0.0,0.0,0.0,0.0,0.0,0.0,0.0,0.0,0.0,0.0,0.0,0.0,0.0,0.0,0.0,0.0,0.0,0.0,0.0,0.0,0.0,0.0,0.0,0.0,0.0,0.0,0.0,0.0,0.0,0.0,0.0,0.0,0.0,0.0,0.0,0.0,0.0,0.0,0.0,0.0,0.0,0.0,-1.0709,0.0,0.0,0.0,0.0,0.0,0.0,0.0,0.0,0.0,0.0,0.0,0.0,0.0,0.0,0.0,0.0,0.0,0.0,0.0,0.0,0.0,0.0,0.0,0.0,0.0,0.0,0.0,0.0,0.0,0.0,0.0,0.0,0.0,0.0,0.0,0.0,0.0,0.0,0.0,0.0,0.0,-2.6386,-2.6386,-2.6386,-2.6386,-2.6716,-2.6874,-2.6874,-2.7175,-2.7476,-2.7476,-2.7805,0.0,0.0,0.0,0.0,0.0,0.0,0.0,0.0,0.0,0.0,0.0,0.0,0.0,0.0,0.0,0.0,0.0,0.0,0.0,0.0,0.0,0.0,0.0,0.0,0.0,0.0,0.0,0.0,0.0,0.0,0.0,0.0,0.0,0.0,0.0,0.0,0.0,0.0,0.0,0.0,0.0,0.0,0.0,0.0,0.0,0.0,0.0,0.0,0.0,0.0,0.0,0.0,0.0,0.0,0.0,0.0,0.0,0.0,0.0,0.0,-1.1025,0.0,0.0,0.0,0.0,0.0,0.0,0.0,0.0,0.0,0.0,0.0,0.0,0.0,0.0,0.0,0.0,0.0,0.0,0.0,0.0,0.0,0.0,0.0,0.0,0.0,0.0,0.0,0.0,0.0,0.0,0.0,0.0,0.0,0.0,0.0,0.0,0.0,0.0,0.0,0.0,-2.6386,-2.6386,-2.6386,-2.6702,-2.6874,-2.7032,-2.7333,-2.7647,-2.7961,-2.7961,-2.8118,0.0,0.0,0.0,0.0,0.0,0.0,0.0,0.0,0.0,0.0,0.0,0.0,0.0,0.0,0.0,0.0,0.0,0.0,0.0,0.0,0.0,0.0,0.0,0.0,0.0,0.0,0.0,0.0,0.0,0.0,0.0,0.0,0.0,0.0,0.0,0.0,0.0,0.0,0.0,0.0,0.0,0.0,0.0,0.0,0.0,0.0,0.0,0.0,0.0,0.0,0.0,0.0,0.0,0.0,-1.0737,-1.0581,-1.0881,-1.1031,-1.1175,-1.1325,-1.1476,-1.1619,0.0,0.0,0.0,0.0,0.0,0.0,0.0,0.0,0.0,0.0,0.0,0.0,0.0,0.0,0.0,0.0,0.0,0.0,0.0,0.0,0.0,0.0,0.0,0.0,0.0,-2.4794,-2.6386,0.0,0.0,0.0,0.0,0.0,0.0,0.0,0.0,0.0,0.0,0.0,0.0,-2.6386,-2.6386,-2.6702,-2.7032,-2.7189,-2.7347,-2.7805,-2.8118,-2.8431,-2.8431,-2.8431,-2.8588,0.0,0.0,0.0,0.0,0.0,0.0,0.0,0.0,0.0,0.0,0.0,0.0,0.0,0.0,0.0,0.0,0.0,0.0,0.0,0.0,0.0,0.0,0.0,0.0,0.0,0.0,0.0,0.0,0.0,0.0,0.0,0.0,0.2019,0.175,0.0,0.0,0.0,0.0,0.0,0.0,0.0,0.0,0.0,0.0,0.0,0.0,0.0,0.0,-1.1083,-1.0862,-1.1044,-1.1469,-1.1469,-1.1469,-1.1469,-1.1469,-1.1476,-1.1476,-1.1619,0.0,-1.1619,-1.1619,0.0,0.0,0.0,0.0,0.0,0.0,0.0,0.0,0.0,0.0,0.0,0.0,0.0,0.0,0.0,0.0,0.0,0.0,0.0,0.0,0.0,0.0,-2.6215,-2.6017,-2.6201,-2.6386,0.0,-2.6386,-2.6386,-2.6386,0.0,0.0,0.0,0.0,0.0,0.0,0.0,0.0,-2.6386,-2.6702,-2.6874,-2.7032,-2.7661,-2.8133,-2.8289,-2.8588,-2.8886,-2.8886,-2.8886,-2.8886,-2.8886,-2.8886,0.0,0.0,0.0,0.0,0.0,0.0,0.0,0.0,0.0,0.0,0.0,0.0,0.0,0.0,0.0,0.0,0.0,0.0,0.0,0.0,0.0,0.0,0.0,0.0,0.0,0.0,0.0,0.0,0.0,0.1481,0.1885,0.0943,0.0404,-0.0,0.0,0.0,0.0,0.0,0.0,0.0,0.0,0.0,0.0,-0.5653,-0.814,-0.9885,-1.0293,-1.1175,-1.1619,-1.1619,-1.1619,-1.1619,-1.177,-1.1921,-1.2208,-1.2215,-1.251,-1.2568,-1.255,-1.206,-1.2065,-1.2251,0.0,0.0,0.0,0.0,0.0,-1.3568,-1.6635,0.0,0.0,0.0,0.0,0.0,0.0,0.0,0.0,0.0,0.0,0.0,0.0,0.0,0.0,-2.6386,-2.6386,-2.6386,-2.6386,-2.6386,-2.6386,0.0,-2.6386,-2.6386,-2.6386,0.0,0.0,0.0,0.0,0.0,-2.6716,-2.6874,-2.7189,-2.7661,-2.8133,-2.8431,-2.8588,-2.873,-2.8886,-2.8886,-2.8886,-2.8886,-2.8886,-2.8886,-2.8886,0.0,0.0,0.0,0.0,0.0,0.0,0.0,0.0,0.0,0.0,0.0,0.0,0.0,0.0,0.0,0.0,0.0,0.0,0.0,0.0,0.0,0.0,0.0,0.0,0.0,0.0,0.0,0.0,0.0943,0.1212,0.0135,-0.0404,-0.0539,0.0,0.0,0.0,0.0,0.0,0.0,-0.1456,-0.5259,-0.6845,-0.5911,-0.9557,-1.1031,-0.985,-1.1031,-1.1619,-1.1619,-1.1763,-1.177,-1.1921,-1.2226,-1.2443,-1.2729,-1.3036,-1.3304,-1.3245,-1.2635,-1.2604,-1.2949,-1.2942,-1.312,-1.3436,-1.3597,-1.3722,-1.4168,-1.7558,-1.9036,-1.99,-2.3138,0.0,-2.5268,-2.5254,0.0,0.0,0.0,0.0,-2.6386,-2.6386,0.0,-2.6386,-2.6386,-2.6386,-2.6386,-2.6386,-2.6386,-2.6386,0.0,-2.6386,-2.6386,-2.6386,0.0,0.0,0.0,0.0,-2.6702,-2.7175,-2.7175,-2.7661,-2.8289,-2.8431,-2.8588,-2.8886,-2.8886,-2.8886,-2.8886,-2.8886,-2.8886,-2.8886,-2.8886,-2.8886,-2.8886,0.0,0.0,0.0,0.0,0.0,0.0,0.0,0.0,0.0,0.0,0.0,0.0,0.0,0.0,0.0,0.0,0.0,0.0,0.0,0.0,0.0,0.0,0.0,0.0,0.0,0.0,0.0,0.0,0.0,-0.0,-0.1346,0.0,0.0,0.0,0.0,-0.2315,-0.2323,-0.218,-0.2187,-0.6137,-0.8019,-0.6929,-0.9994,-1.1619,-1.1469,-1.1619,-1.177,-1.177,-1.1921,-1.2065,-1.2086,-1.2045,-1.2266,-1.2692,-1.2845,-1.318,-1.3531,-1.3245,-1.3259,-1.3414,-1.3385,-1.3531,-1.3692,-1.4168,-1.433,-1.4645,-1.6907,-1.8864,-2.0535,-2.2325,-2.4366,-2.5951,-2.5951,-2.6162,0.0,0.0,-2.6386,-2.6386,-2.6386,-2.6386,-2.6386,-2.6386,-2.6386,-2.6386,-2.6386,-2.6386,-2.6386,0.0,-2.6386,-2.6386,-2.6386,0.0,-2.6544,-2.6874,-2.7032,-2.7175,-2.7476,-2.7961,-2.8289,-2.8289,-2.8588,-2.8886,-2.8886,-2.8886,-2.8886,-2.8886,-2.8886,-2.8886,-2.8886,-2.8886,-2.8886,-2.8886,-2.8886,0.0,0.0,0.0,0.0,0.0,0.0,0.0,0.0,0.0,0.0,0.0,0.0,0.0,0.0,0.0,0.0,0.0,0.0,0.0,0.0,0.0,0.0,0.0,0.0,0.0,0.0,0.0,0.0,-0.1414,-0.1562,0.0,0.0,-0.2127,-0.2001,-0.233,-0.2333,-0.2771,-0.3794,-0.6137,-0.7874,-0.8529,-1.0587,-1.177,-1.177,-1.1914,-1.1962,-1.2032,-1.2032,-1.2189,-1.2196,-1.2727,-1.3127,-1.3421,-1.4022,-1.4322,-1.4483,-1.4353,-1.4199,-1.4037,-1.4014,-1.4322,-1.4645,-1.4806,-1.4968,-1.5607,-1.8528,-1.9813,-2.096,-2.3835,-2.5518,-2.6215,-2.6215,-2.6386,-2.6386,-2.6386,-2.6386,-2.6386,-2.6386,-2.6386,-2.6386,-2.6386,-2.6386,-2.6386,-2.6386,-2.6386,-2.6531,-2.6806,-2.6517,-2.6544,-2.6689,-2.686,-2.686,-2.7333,-2.7333,-2.749,-2.7961,-2.8118,-2.8431,-2.8588,-2.873,-2.8886,-2.8886,-2.8886,-2.8886,-2.8886,-2.8886,-2.8886,-2.8886,-2.8886,-2.8886,-2.8886,-2.8886,-2.8886,0.0,0.0,0.0,0.0,0.0,0.0,0.0,0.0,0.0,0.0,0.0,0.0,0.0,0.0,0.0,0.0,0.0,0.0,0.0,0.0,0.0,0.0,0.0,0.0,0.0,0.0,-0.1965,-0.2326,-0.1898,-0.1751,-0.2187,-0.2333,-0.2333,-0.2333,-0.2333,-0.3063,-0.467,-0.6268,-0.7702,-0.9264,-1.1025,-1.1866,-1.1918,-1.2072,-1.2265,-1.234,-1.2347,-1.2501,-1.2817,-1.3303,-1.3767,-1.3906,-1.4661,-1.496,-1.5122,-1.5122,-1.4968,-1.4798,-1.4645,-1.496,-1.5317,-1.5244,-1.5333,-1.5971,-1.945,-2.0644,-2.1297,-2.4933,-2.6215,-2.6386,-2.6386,-2.6386,-2.6386,-2.6386,-2.6386,-2.6386,-2.6386,-2.6386,-2.6386,-2.6386,-2.6386,-2.6386,-2.6386,-2.6504,-2.6621,-2.6936,-2.6806,-2.6675,-2.7162,-2.7162,-2.7374,-2.7773,-2.7861,-2.799,-2.8432,-2.8604,-2.8747,-2.9061,-2.9149,-2.9222,-2.9222,-2.9222,-2.9222,-2.9222,-2.912,-2.9047,-2.9047,-2.9047,-2.9047,-2.9047,-2.9047,-2.9003,-2.8886,0.0,0.0,0.0,0.0,0.0,0.0,0.0,0.0,0.0,0.0,0.0,0.0,0.0,0.0,0.0,0.0,0.0,0.0,0.0,0.0,0.0,0.0,0.0,-0.2191,-0.1752,-0.1459,-0.2187,-0.2333,-0.2333,-0.2333,-0.2333,-0.2333,-0.2333,-0.2333,-0.3063,-0.467,-0.6376,-0.7954,-0.943,-1.1201,-1.2079,-1.2179,-1.2185,-1.2501,-1.2979,-1.3134,-1.3296,-1.3774,-1.3774,-1.3906,-1.4483,-1.4483,-1.4814,-1.5163,-1.5479,-1.5479,-1.5479,-1.5317,-1.5317,-1.5562,-1.5456,-1.5538,-1.6164,-1.9804,-2.1151,-2.1987,-2.5319,-2.6386,-2.6386,-2.6386,-2.6386,-2.6386,-2.6386,-2.6386,-2.6386,-2.6386,-2.6386,-2.6386,-2.6386,-2.6386,-2.6386,-2.6386,-2.6724,-2.6955,-2.7065,-2.7093,-2.7107,-2.7619,-2.7633,-2.7731,-2.8039,-2.816,0.0,-2.8704,-2.9066,-2.9398,-2.9398,-2.9676,-2.9866,-2.9866,-2.9866,-2.9866,-2.9866,-2.9573,-2.9398,-2.9398,-2.9398,-2.9383,-2.9383,-2.9369,-2.9208,-2.8886,0.0,0.0,0.0,0.0,0.0,0.0,0.0,0.0,0.0,0.0,0.0,0.0,0.0,0.0,0.0,0.0,0.0,0.0,0.0,0.0,0.0,0.0,-0.2042,-0.2334,-0.2188,-0.2041,-0.2333,-0.2333,-0.2333,-0.2333,-0.2333,-0.2333,-0.2333,-0.35,-0.4379,-0.467,-0.7399,-0.9118,-0.9607,-1.1321,-1.2338,-1.2663,-1.2817,-1.3141,-1.3465,-1.3568,-1.3553,-1.3714,-1.4191,-1.4345,-1.4637,-1.5122,-1.5268,-1.5416,-1.5416,-1.5578,-1.5748,-1.5578,-1.5578,-1.5772,-1.5795,-1.7425,-2.0025,-2.2178,-2.3949,-2.5135,-2.6043,-2.6386,-2.6386,-2.6386,-2.6386,-2.6386,-2.6386,-2.6386,-2.6386,-2.6386,-2.6386,-2.6386,-2.6386,-2.6386,-2.6386,-2.6386,-2.6724,-2.7112,-2.7407,-2.772,-2.8047,-2.8104,-2.8118,-2.8304,-2.8704,-2.8992,0.0,-2.921,-2.9588,-2.9734,-2.9734,-2.9807,-2.9866,-2.9866,-2.9866,-2.9866,-2.9866,-2.9778,-2.9734,-2.9734,-2.9734,-2.9617,-2.9383,-2.9149,-2.8973,0.0,0.0,0.0,0.0,0.0,0.0,0.0,0.0,0.0,0.0,0.0,0.0,0.0,0.0,0.0,0.0,0.0,0.0,0.0,0.0,0.0,0.0,-0.2333,-0.2333,-0.2333,-0.2333,-0.2333,-0.2333,-0.2333,-0.2333,-0.2333,-0.2333,-0.2333,-0.2333,-0.3209,-0.4412,-0.569,-0.7651,-0.9418,-1.0744,-1.2024,-1.2817,-1.2979,-1.3274,-1.3583,-1.406,-1.4022,-1.4168,-1.4483,-1.4806,-1.4967,0.0,-1.5423,-1.5658,-1.5703,-1.5703,-1.5711,0.0,0.0,0.0,0.0,0.0,-1.7138,-1.9371,-2.1816,-2.3348,-2.4439,-2.5859,-2.6386,-2.6386,-2.6386,-2.6386,-2.6386,-2.6386,-2.6386,-2.6386,-2.6386,-2.6386,-2.6386,-2.6386,-2.6386,-2.6531,-2.6608,-2.7052,-2.7351,-2.7891,0.0,0.0,-2.8762,-2.8791,-2.8834,-2.8964,-2.9297,-2.9632,-2.9603,-2.9792,-3.0071,-3.0071,-3.0188,-3.0261,-3.0261,-3.0261,0.0,0.0,0.0,-3.0071,-3.0071,-3.0071,0.0,0.0,0.0,-2.9369,0.0,0.0,0.0,0.0,-2.9679,-2.9989,0.0,0.0,0.0,0.0,0.0,0.0,0.0,0.0,0.0,0.0,0.0,0.0,0.0,0.0,0.0,0.0,-0.2333,-0.2333,-0.2333,-0.2333,-0.2333,-0.2333,-0.2333,-0.2333,-0.2333,-0.2333,-0.2338,-0.2353,-0.2647,-0.3887,-0.6825,0.0,0.0,0.0,0.0,-1.3141,-1.3288,-1.3553,-1.416,-1.4645,-1.4724,-1.4927,-1.5571,-1.5571,-1.5597,-1.553,-1.5703,-1.5875,-1.5875,-1.5875,-1.6048,-1.6048,-1.5875,-1.5875,-1.6048,-1.6394,-1.6657,0.0,0.0,0.0,0.0,-2.5332,-2.6386,-2.6386,-2.6386,-2.6386,-2.6386,-2.6386,-2.6386,-2.6386,-2.6386,-2.6386,-2.6386,-2.6386,-2.6386,-2.6517,-2.6969,-2.7365,-2.7933,-2.8203,-2.873,-2.9032,-2.9325,-2.9383,-2.9326,-2.9338,-2.9734,-2.9865,-2.9828,-3.0214,-3.0407,-3.0407,0.0,0.0,-3.0817,-3.0817,-3.0817,-3.0817,-3.0554,-3.0407,-3.0407,-3.0364,-3.0349,-3.0349,-3.032,-3.0012,-2.9586,-2.9918,-3.0242,-3.0251,-3.0175,-3.0454,0.0,0.0,0.0,0.0,0.0,0.0,0.0,0.0,0.0,0.0,0.0,0.0,0.0,0.0,0.0,-0.2333,-0.2333,-0.2333,-0.2333,-0.2333,-0.2333,-0.2333,-0.2333,-0.2333,-0.2333,-0.2333,-0.2373,-0.2472,-0.3721,-0.4826,-0.5332,-0.8288,0.0,-1.091,-1.2663,-1.3759,-1.4184,-1.433,-1.4645,-1.513,0.0,0.0,-1.5496,-1.5666,-1.5747,-1.5703,-1.5875,-1.5883,-1.5883,-1.6048,-1.6048,-1.6048,-1.6048,-1.6048,-1.6394,-1.9173,-2.017,-2.0774,-2.416,-2.5422,-2.5503,-2.6201,-2.6386,-2.6386,-2.6386,-2.6386,0.0,-2.6386,-2.6386,-2.6386,-2.6386,-2.6386,-2.6386,-2.6386,-2.6571,-2.6887,-2.6922,-2.7549,-2.8218,-2.8261,-2.8791,-2.931,-2.9369,-2.9383,-2.9486,-2.9661,-3.0086,-3.0276,-3.0349,-3.0568,-3.0729,-3.0729,-3.0788,-3.0817,-3.0817,-3.0817,-3.0817,-3.0817,-3.0759,-3.0729,-3.0729,-3.0481,-3.0349,-3.0349,-3.0086,-3.0057,-3.026,-3.074,-3.1189,-3.1414,-3.0872,-3.0933,0.0,0.0,0.0,0.0,0.0,0.0,0.0,0.0,0.0,0.0,0.0,-0.2333,0.0,0.0,-0.2333,-0.2333,-0.2333,-0.2333,-0.2333,-0.2386,-0.2401,-0.2341,-0.2333,-0.2357,-0.2417,-0.2424,-0.2448,-0.251,-0.4245,-0.5667,-0.6459,-0.9387,-1.1219,-1.2139,-1.3414,-1.4199,-1.4483,-1.4806,-1.5147,-1.5512,-1.5536,-1.5703,-1.5703,-1.5875,-1.5875,-1.5875,-1.6048,-1.6048,-1.6048,-1.6048,-1.6048,-1.6048,-1.6048,-1.6048,-1.6221,-1.7955,-1.8664,-1.9131,-2.2624,-2.3828,-2.4086,-2.5846,-2.6386,-2.6386,-2.6386,-2.6386,-2.6386,-2.6386,-2.6386,-2.6386,-2.6386,-2.6386,-2.6386,-2.6386,-2.6571,-2.686,-2.7222,-2.7664,-2.8004,-2.8573,-2.9006,-2.9427,-2.9588,-2.9749,-2.9925,-3.0086,-3.0378,-3.0583,-3.0583,-3.0729,-3.0817,-3.0817,-3.0817,-3.0817,-3.0817,-3.0817,-3.0817,-3.0817,-3.0817,-3.0817,-3.0817,-3.0671,-3.0583,-3.0583,-3.0422,-3.0424,-3.0749,-3.125,-3.148,-3.1775,-3.159,-3.1668,0.0,0.0,0.0,0.0,0.0,0.0,0.0,0.0,-0.1606,-0.2187,-0.2333,-0.2333,-0.2333,-0.2333,-0.2341,-0.2364,-0.2368,-0.2368,-0.2368,-0.2453,-0.2478,-0.2379,-0.2368,-0.2406,-0.2348,-0.2514,-0.2829,-0.3144,-0.4719,-0.6609,-0.8646,-1.0314,-1.2146,-1.3846,-1.4483,-1.4708,-1.4844,-1.5335,-1.563,-1.5875,-1.5875,-1.5875,-1.6048,-1.6048,-1.6048,-1.6048,-1.6048,-1.6048,-1.6048,-1.6048,-1.6048,-1.6048,-1.6048,-1.6048,-1.6048,-1.6394,-1.6683,-1.7385,-2.0612,-2.1919,-2.2688,-2.549,-2.6386,-2.6386,-2.6386,-2.6386,-2.6386,-2.6386,-2.6386,-2.6386,-2.6386,-2.6386,-2.6386,-2.6558,-2.6571,-2.6874,-2.7563,-2.7834,-2.799,-2.8715,-2.9208,-2.9559,-2.9866,-3.0217,-3.0437,-3.0437,-3.0656,-3.0817,-3.0817,-3.0817,-3.0817,-3.0817,-3.0817,-3.0817,-3.0817,-3.0817,-3.0817,-3.0817,-3.0817,-3.0817,-3.0817,-3.0817,-3.0817,-3.0817,-3.0817,-3.0866,-3.1257,-3.1584,-3.1772,-3.2154,-3.2395,-3.2332,-0.0,-0.0,-0.0438,-0.1898,-0.2337,-0.2337,0.0,0.0,-0.2189,-0.2333,-0.2333,-0.2333,-0.2333,-0.2333,-0.2368,-0.2476,-0.2338,-0.2493,-0.2493,-0.2506,-0.251,-0.2495,-0.2493,-0.2499,-0.2512,-0.2829,-0.3617,-0.5193,-0.5824,-0.7525,-1.0714,-1.1484,-1.258,-1.4483,-1.496,-1.5268,-1.5412,-1.5591,-1.5795,-1.5875,-1.5875,-1.6048,-1.6048,-1.6048,-1.6048,-1.6048,-1.6048,-1.6048,-1.6048,-1.6048,-1.6048,-1.6048,-1.6048,-1.6048,-1.6221,-1.7772,-1.9309,-2.0847,-2.2803,-2.4566,-2.5859,-2.6215,-2.6386,-2.6386,-2.6386,-2.6386,-2.6386,-2.6386,-2.6386,-2.6386,-2.6386,-2.6386,-2.6558,-2.6915,-2.7272,-2.7629,-2.8146,-2.8503,-2.8715,-2.8886,-2.9383,-2.9881,-2.9908,-3.0316,-3.0773,-3.0773,-3.0803,-3.0817,-3.0817,-3.0817,-3.0817,-3.0817,-3.0817,-3.0817,-3.0817,-3.0817,-3.0817,-3.0817,-3.0817,-3.0817,-3.0817,-3.0817,-3.0817,-3.0817,-3.0817,-3.115,-3.2113,-3.2113,-3.2592,-3.3365,-3.3047,-3.2698,-0.0292,-0.0,-0.0292,0.0,-0.2043,-0.2335,-0.2334,-0.2334,-0.2334,-0.2333,-0.2333,-0.2354,-0.2425,-0.2439,-0.2455,0.0,-0.2514,-0.2514,-0.2514,-0.2514,-0.2514,-0.2829,-0.2829,-0.2829,-0.2829,-0.4088,-0.4876,-0.4554,-0.6715,-0.8702,-1.0213,-1.1625,-1.3209,-1.5122,-1.5374,-1.557,-1.5703,-1.5875,-1.5875,-1.5875,-1.6048,-1.6048,-1.6048,-1.6048,-1.6048,-1.6048,-1.6048,-1.6048,-1.6048,-1.6048,-1.6048,-1.6048,-1.6048,-1.6048,-1.6048,-1.674,-1.7598,-1.8604,-2.1265,-2.2727,-2.3733,-2.5687,-2.6386,-2.6386,-2.6386,-2.6386,-2.6386,-2.6386,-2.6386,-2.6386,-2.6386,-2.6386,-2.64,-2.6571,-2.6991,-2.7421,-2.779,-2.8246,-2.87,-2.8886,-2.9483,-2.9954,-2.9923,-3.036,-3.0817,-3.0817,-3.0817,-3.0817,-3.0817,-3.0817,-3.0817,-3.0817,-3.0817,-3.0817,-3.0817,-3.0817,-3.0817,-3.0817,-3.0817,-3.0817,-3.0817,-3.0817,-3.0817,-3.0817,-3.0817,-3.1331,-3.2174,-3.2174,-3.267,-3.3476,-3.3333,-3.3174,-0.0876,0.0,0.0,-0.1313,-0.1898,-0.2335,-0.2334,-0.2333,-0.2342,-0.2376,-0.2383,-0.241,-0.2497,-0.2514,-0.2514,-0.2514,-0.2514,-0.2514,-0.2514,-0.2514,-0.2671,-0.2987,-0.3142,-0.3299,-0.3456,-0.4873,-0.5651,-0.5309,-0.8007,-0.9891,-1.0429,-1.2434,-1.4125,-1.559,-1.5772,-1.5875,-1.5875,-1.5875,-1.6048,-1.6048,-1.6048,-1.6048,-1.6048,-1.6048,-1.6048,-1.6048,-1.6048,-1.6048,-1.6048,-1.6048,-1.6048,-1.6048,-1.6048,-1.6048,-1.6048,-1.6048,-1.6221,-1.7208,-2.0128,-2.1442,-2.2349,-2.549,-2.6386,-2.6386,-2.6386,-2.6386,-2.6386,-2.6386,-2.6386,-2.6386,-2.6386,-2.6386,-2.64,-2.6743,-2.6963,-2.7351,-2.782,-2.8175,-2.853,-2.8886,-2.9424,-2.9895,-2.9891,-3.0418,-3.0817,-3.0817,-3.0817,-3.0817,-3.0817,-3.0817,-3.0817,-3.0817,-3.0817,-3.0817,-3.0817,-3.0817,-3.0817,-3.0817,-3.0817,-3.0817,-3.0817,-3.0817,-3.0817,-3.0817,-3.0984,-3.1331,-3.2174,-3.2339,-3.2834,-3.3492,-3.3492,-3.3492,0.0,0.0,-0.1313,-0.2041,-0.2334,-0.2335,-0.2334,-0.2333,-0.2367,-0.2329,-0.2508,-0.251,-0.2514,-0.2514,-0.2514,-0.2514,-0.2514,-0.2514,-0.2514,-0.2514,-0.2671,-0.2987,-0.3454,-0.392,0.0,-0.4393,-0.578,-0.8972,-0.9838,-1.0941,-1.2678,-1.4393,-1.5506,-1.5843,-1.5859,-1.5875,-1.6048,-1.6048,-1.6048,-1.6048,-1.6048,-1.6048,-1.6048,-1.6048,-1.6048,-1.6048,-1.6048,-1.6048,-1.6048,-1.6048,-1.6048,-1.6048,-1.6048,-1.6048,-1.6048,-1.6048,-1.7087,-1.8815,-2.057,-2.2313,-2.4074,-2.5846,-2.6386,-2.6386,-2.6386,-2.6386,-2.6386,-2.6386,-2.6386,-2.6386,-2.6386,-2.6386,-2.6571,-2.7457,-2.7629,-2.7759,-2.8744,-2.8886,-2.8886,-2.8886,-2.9424,-2.9983,-2.9893,-3.0426,-3.0817,-3.0817,-3.0817,-3.0817,-3.0817,-3.0817,-3.0817,-3.0817,-3.0817,-3.0817,-3.0817,-3.0817,-3.0817,-3.0817,-3.0817,-3.0817,-3.0817,-3.0817,-3.0817,-3.0817,-3.1316,-3.1662,-3.2174,-3.267,-3.2983,-3.3492,-3.3492,-3.3492,0.0,0.0,-0.2043,-0.2188,-0.2334,-0.2335,-0.2334,-0.2478,-0.2516,-0.2489,-0.2514,-0.2514,-0.2514,-0.2514,-0.2514,-0.2514,-0.2514,-0.2514,-0.2514,-0.3617,-0.4245,-0.3617,-0.5027,0.0,0.0,0.0,0.0,-0.8389,-1.0688,-1.2408,-1.3098,-1.3739,-1.4676,-1.5875,-1.5875,-1.5875,-1.6048,-1.6048,-1.6048,-1.6048,-1.6048,-1.6048,-1.6048,-1.6048,-1.6048,-1.6048,-1.6048,-1.6048,-1.6048,-1.6048,-1.6048,-1.6048,-1.6048,-1.6048,-1.6048,-1.6048,-1.6394,-1.726,-2.023,-2.1621,-2.2519,-2.549,-2.6386,-2.6386,-2.6386,-2.6386,-2.6386,-2.6386,-2.6386,-2.6386,-2.6386,-2.6571,-2.6915,-2.7114,-2.7689,-2.809,-2.8374,-2.87,-2.8886,-2.8886,-2.9203,-2.9659,-2.9864,-3.0267,-3.0583,-3.0788,-3.0817,-3.0817,-3.0817,-3.0817,-3.0817,-3.0817,-3.0817,-3.0817,-3.0817,-3.0817,-3.0817,-3.0817,-3.0817,-3.0817,-3.0817,-3.0817,-3.0817,-3.0817,-3.1316,-3.1662,-3.2174,-3.267,-3.2983,-3.3492,-3.4588,-3.4588,0.0,-0.2196,-0.2348,-0.2335,-0.2334,-0.2334,-0.2478,-0.2514,-0.2571,-0.2499,-0.2514,-0.2514,-0.2514,-0.2514,-0.2514,-0.2514,-0.2514,-0.2829,-0.3617,-0.4405,-0.4868,-0.4997,-0.6178,0.0,0.0,0.0,0.0,-0.9753,-1.1788,-1.3144,-1.3315,-1.3988,-1.4848,-1.5883,-1.6048,-1.6048,-1.6048,-1.6048,-1.6048,-1.6048,-1.6048,-1.6048,-1.6048,-1.6048,-1.6048,-1.6048,-1.6048,-1.6048,-1.6048,-1.6048,-1.6048,-1.6048,-1.6048,-1.6048,-1.6048,-1.6048,-1.6048,-1.6559,-2.0045,-2.1265,-2.1817,-2.5319,-2.6386,-2.6386,-2.6386,-2.6386,-2.6386,-2.6386,-2.6386,-2.6386,-2.6571,-2.6756,-2.7086,-2.7361,-2.7919,-2.8345,-2.8515,-2.8715,-2.8886,-2.8886,-2.9242,-2.9508,-2.963,-3.0069,-3.0451,-3.0773,-3.0817,-3.0817,-3.0817,-3.0817,-3.0817,-3.0817,-3.0817,-3.0817,-3.0817,-3.0817,-3.0817,-3.0817,-3.0817,-3.0817,-3.0817,-3.0817,-3.0817,-3.0984,-3.1497,-3.1994,-3.2339,-3.2819,-3.3164,-3.3492,-3.4588,-3.4896,-0.1751,-0.206,-0.2369,-0.2342,-0.2334,-0.2478,-0.2478,-0.2427,-0.2514,-0.2514,-0.2514,-0.2514,0.0,0.0,-0.2514,-0.2514,-0.2677,-0.3313,-0.5528,-0.4574,-0.4549,0.0,0.0,0.0,0.0,0.0,0.0,-1.3144,0.0,-1.348,-1.348,-1.502,-1.6048,-1.6048,-1.6048,-1.6048,-1.6048,-1.6048,-1.6048,-1.6048,-1.6048,-1.6048,-1.6048,-1.6048,-1.6048,-1.6048,-1.6048,-1.6048,-1.6048,-1.6048,-1.6048,-1.6048,-1.6048,-1.6048,-1.6048,-1.6048,-1.6048,-1.6559,-1.9881,-2.1092,-2.1648,-2.5135,-2.6215,-2.6215,-2.6386,-2.6386,-2.6386,-2.6386,-2.6386,-2.6558,-2.6928,-2.7086,-2.7217,-2.8047,-2.8345,-2.8515,-2.8871,-2.8886,-2.8886,-2.8886,-2.91,-2.9457,-2.9457,-2.988,-3.0437,-3.0759,-3.0803,-3.0803,-3.0817,-3.0817,-3.0817,-3.0817,-3.0817,-3.0817,-3.0817,-3.0817,-3.0817,-3.0817,-3.0817,-3.0817,-3.0817,-3.0817,-3.0984,-3.1482,-3.2009,-3.2339,-3.2819,-3.3312,-3.3492,-3.3492,-3.364,-3.4588,-0.2214,-0.2357,-0.2353,-0.2373,-0.2503,-0.2478,-0.2478,-0.2427,-0.2514,-0.2514,-0.2514,-0.2514,0.0,0.0,0.0,-0.2671,-0.2912,0.0,-0.3803,-0.6404,0.0,-0.7196,0.0,-1.1677,-1.1959,-1.2801,0.0,0.0,-1.5358,-1.5358,-1.5358,-1.5703,-1.6048,-1.6048,-1.6048,-1.6048,-1.6048,-1.6048,-1.6048,-1.6048,-1.6048,-1.6048,-1.6048,-1.6048,-1.6048,-1.6048,-1.6048,-1.6048,-1.6048,-1.6048,-1.6048,-1.6048,-1.6048,-1.6048,-1.6048,-1.6048,-1.6048,-1.6386,-1.8476,-1.9189,-1.9768,-2.338,-2.4439,-2.4781,-2.603,-2.6386,-2.6386,-2.6386,-2.6571,-2.6915,-2.6928,-2.7504,-2.8061,-2.8189,-2.853,-2.8715,-2.8886,-2.8886,-2.8886,-2.8886,-2.9149,-2.9354,-2.9439,-2.9836,-3.01,-3.0422,-3.0466,-3.0554,-3.0788,-3.0817,-3.0817,-3.0817,-3.0817,-3.0817,-3.0817,-3.0817,-3.0817,-3.0817,-3.0817,-3.0817,-3.0817,-3.0817,-3.0984,-3.1482,-3.2009,-3.2339,-3.2819,-3.3312,-3.3492,-3.3476,-3.6011,-3.6797,-0.2376,-0.238,-0.2373,-0.2517,-0.2539,-0.2564,-0.2564,-0.2465,-0.2514,-0.2514,-0.2514,0.0,0.0,0.0,0.0,0.0,0.0,0.0,-0.568,-0.7489,-0.8976,0.0,-1.1848,0.0,-1.3315,-1.3995,-1.5013,0.0,-1.6048,-1.6048,-1.6048,-1.6048,-1.6048,-1.6048,-1.6048,-1.6048,-1.6048,-1.6048,-1.6048,-1.6048,-1.6048,-1.6048,-1.6048,-1.6048,-1.6048,-1.6048,0.0,-1.6048,-1.6048,-1.6048,-1.6048,-1.6048,-1.6048,-1.6048,-1.6048,-1.6048,-1.6048,-1.6213,-1.7087,-1.743,-1.8229,-2.2395,-2.3792,-2.4086,-2.5859,-2.6386,-2.6386,-2.6386,-2.6743,-2.7073,-2.7319,-2.7748,-2.8345,-2.853,-2.8715,-2.8886,-2.8886,-2.8886,-2.8886,-2.8886,-2.9076,-2.9266,-2.9369,-2.9529,-2.9764,-3.0086,-3.0129,-3.0246,-3.0568,-3.0744,-3.0817,-3.0817,-3.0817,-3.0817,-3.0817,-3.0817,-3.0817,-3.0817,-3.0817,-3.0817,-3.0817,-3.0984,-3.1331,-3.1828,-3.2174,-3.267,-3.3148,-3.3328,-3.3492,-3.3476,-3.6172,-3.7259,-0.2539,-0.2555,-0.2552,-0.2514,-0.2436,-0.2514,-0.2514,-0.2514,-0.2514,-0.2514,0.0,-0.273,-0.2673,-0.2859,-0.3027,-0.2692,0.0,-0.519,-0.8632,-0.8484,-0.9496,-1.2992,-1.3652,-1.3823,-1.3823,-1.5185,-1.6048,-1.6048,-1.6048,-1.6048,-1.6048,-1.6048,-1.6048,-1.6048,-1.6048,-1.6048,-1.6048,-1.6048,-1.6048,-1.6048,-1.6048,-1.6048,-1.6048,-1.6048,-1.6048,-1.6048,0.0,0.0,-1.6048,-1.6048,-1.6048,-1.6048,-1.6048,-1.6048,-1.6048,-1.6048,-1.6048,-1.6048,-1.6048,-1.6048,-1.6896,-2.1905,-2.3478,-2.3903,-2.5846,-2.6386,-2.6386,-2.6544,-2.6716,-2.7189,-2.7678,-2.8146,-2.8515,-2.8871,-2.8886,-2.8886,-2.8886,-2.8886,-2.8886,-2.8886,-2.8886,-2.8973,-2.9266,-2.931,-2.9427,-2.9749,-2.9793,-2.991,-3.0246,-3.0568,-3.0773,-3.0817,-3.0817,-3.0817,-3.0817,-3.0817,-3.0817,-3.0817,-3.0817,-3.0817,-3.0817,-3.1316,-3.1662,-3.2174,-3.267,-3.2983,-3.3492,-3.3804,-3.3804,-3.3968,-3.585,-3.7436,-0.2568,-0.2533,-0.2519,-0.2461,-0.2499,-0.2514,-0.2514,-0.2514,0.0,0.0,-0.2915,-0.3,-0.2688,-0.4197,0.0,-0.3027,0.0,0.0,0.0,0.0,-1.2662,0.0,0.0,0.0,0.0,0.0,0.0,0.0,0.0,0.0,-1.6048,-1.6048,-1.6048,-1.6048,-1.6048,-1.6048,-1.6048,-1.6048,-1.6048,-1.6048,-1.6048,-1.6048,-1.6048,-1.6048,-1.6048,-1.6048,0.0,0.0,-1.6048,-1.6048,-1.6048,-1.6048,-1.6048,-1.6048,-1.6048,-1.6048,-1.6048,-1.6048,-1.6048,-1.6048,-1.6673,-2.0398,-2.1726,-2.2168,-2.549,-2.6386,-2.6531,-2.6806,-2.7236,-2.7678,-2.8004,-2.8515,-2.8871,-2.8886,-2.8886,-2.8886,-2.8886,-2.8886,-2.8886,-2.8886,-2.8886,-2.89,-2.8959,-2.8973,-2.909,-2.9412,-2.9456,-2.9573,-2.991,-3.0232,-3.0525,-3.0803,-3.0817,-3.0817,-3.0817,-3.0817,-3.0817,-3.0817,-3.0817,-3.0817,-3.0817,-3.1316,-3.1662,-3.2174,-3.267,-3.2983,-3.3492,-3.4896,-3.5527,-3.5689,-3.8706,-4.0315,-0.2454,-0.245,-0.2747,-0.3595,-0.3774,-0.4088,-0.5036,0.0,0.0,0.0,-0.5443,-0.6004,-0.502,0.0,0.0,0.0,0.0,0.0,0.0,0.0,0.0,0.0,0.0,0.0,0.0,0.0,0.0,0.0,0.0,0.0,-1.6048,-1.6048,-1.6048,-1.6048,-1.6048,-1.6048,-1.6048,-1.6048,-1.6048,-1.6048,-1.6048,-1.6048,-1.6048,-1.6048,-1.6048,-1.6048,-1.6048,0.0,-1.6048,-1.6048,-1.6048,-1.6048,-1.6048,-1.6048,-1.6048,-1.6048,-1.6048,-1.6205,-1.7112,-1.7421,-1.7882,-2.1442,-2.1987,-2.1817,-2.5319,-2.6386,-2.6531,-2.6949,-2.7365,-2.7792,-2.8175,-2.853,-2.8886,-2.8886,-2.8886,-2.8886,-2.8886,-2.8886,-2.8886,-2.8886,-2.8886,-2.8886,-2.8886,-2.8886,-2.8944,-2.9105,-2.912,-2.9237,-2.9573,-2.9749,-2.9968,-3.029,-3.0481,-3.0583,-3.0583,-3.0729,-3.0817,-3.0817,-3.0817,-3.0984,-3.115,-3.1662,-3.1994,-3.2505,-3.2999,-3.3328,-3.3492,-3.5221,-3.5994,-3.6155,-3.9512,-4.1113,-0.2956,-0.2987,-0.3458,-0.5193,-0.5501,-0.5978,-0.7469,-0.8128,0.0,0.0,-0.8169,-0.8962,-0.7485,0.0,0.0,0.0,0.0,0.0,0.0,0.0,0.0,0.0,0.0,0.0,0.0,0.0,0.0,0.0,0.0,0.0,0.0,-1.6048,-1.6048,-1.6048,-1.6048,-1.6048,-1.6048,-1.6048,-1.6048,-1.6048,-1.6048,-1.6048,-1.6048,-1.6048,-1.6048,-1.6048,-1.6048,0.0,0.0,-1.6048,-1.6048,-1.6048,-1.6048,-1.6048,-1.6048,-1.6048,-1.6205,-1.6681,-1.8045,-1.8817,-1.9614,-2.2828,-2.2882,-2.2337,-2.549,-2.6386,-2.6689,-2.6963,-2.7535,-2.7976,-2.8345,-2.87,-2.8886,-2.8886,-2.8886,-2.8886,-2.8886,-2.8886,-2.8886,-2.8886,-2.8886,-2.8886,-2.8886,-2.8886,-2.8886,-2.8886,-2.8886,-2.8988,-2.9237,-2.9266,-2.9369,-2.9632,-3.0012,-3.0246,-3.0246,-3.0481,-3.0612,-3.0612,-3.0685,-3.0881,-3.1377,-3.1963,-3.2339,-3.2819,-3.3624,-3.4115,-3.4115,-3.6172,-3.7117,-3.7117,-4.0296,-4.1578,-0.4397,-0.4719,-0.5193,-0.6777,-0.7357,-0.7542,-0.8165,0.0,0.0,-0.8944,-0.9477,-0.9818,-0.9283,-1.0992,-1.17,0.0,0.0,-1.4368,0.0,0.0,0.0,0.0,0.0,0.0,0.0,0.0,0.0,0.0,0.0,0.0,0.0,-1.6048,-1.6048,-1.6048,-1.6048,-1.6048,-1.6048,-1.6048,-1.6048,-1.6048,-1.6048,-1.6048,-1.6048,-1.6048,-1.6048,-1.6048,0.0,0.0,0.0,-1.6048,-1.6048,-1.6048,-1.6048,-1.6048,-1.6048,-1.6048,-1.7009,-1.83,-1.8617,-1.9582,-2.12,-2.3152,-2.3683,-2.3903,-2.5846,-2.6689,-2.7004,-2.7462,-2.7905,-2.8345,-2.8715,-2.8886,-2.8886,-2.8886,-2.8886,-2.8886,-2.8886,-2.8886,-2.8886,-2.8886,-2.8886,-2.8886,-2.8886,-2.8886,-2.8886,-2.8886,-2.8886,-2.89,-2.893,-2.893,-2.8944,-2.8973,-2.9529,-2.991,-2.991,-2.9939,-2.9954,-2.9954,-3.0232,-3.0557,-3.1033,-3.1842,-3.2339,-3.2819,-3.4734,-3.5833,-3.5833,-3.9022,-4.0627,-4.0627,-4.2503,-4.331,-0.5036,-0.5799,-0.6915,-0.8746,-0.9332,-0.9924,-1.1412,0.0,0.0,-1.1453,-1.2484,-1.3184,-1.1995,-1.3356,-1.4375,-1.3521,0.0,0.0,0.0,0.0,0.0,0.0,0.0,0.0,0.0,0.0,0.0,0.0,0.0,0.0,0.0,-1.6048,-1.6048,-1.6048,-1.6048,-1.6048,-1.6048,-1.6048,-1.6048,-1.6048,-1.6048,-1.6048,-1.6048,-1.6048,-1.6048,-1.6048,0.0,0.0,0.0,-1.6048,-1.6689,-1.7492,-1.7492,-1.7492,-1.7656,-1.8799,-1.8952,-1.8952,-2.105,-2.2189,-2.3003,-2.4773,-2.5542,-2.5819,-2.6531,-2.686,-2.7175,-2.7805,-2.8104,-2.8403,-2.873,-2.8886,-2.8886,-2.8886,-2.8886,-2.8886,-2.8886,-2.8886,-2.8886,-2.8886,-2.8886,-2.8886,-2.8886,-2.8886,-2.8886,-2.8886,-2.8886,-2.8886,-2.8886,-2.8886,-2.8886,-2.8886,-2.9295,-2.9573,-2.9573,-2.9749,-2.9866,-2.9866,-3.0307,-3.0719,-3.1027,-3.1649,-3.2196,-3.2519,-3.4392,-3.5446,-3.5669,-3.8981,-4.084,-4.1113,-4.283,-4.3615,-0.6747,-0.7413,-0.88,-1.0596,-1.1371,-1.21,0.0,0.0,0.0,-1.3823,-1.4848,-1.5546,-1.4383,-1.5216,-1.6048,-1.6048,0.0,-1.6048,0.0,0.0,0.0,0.0,0.0,0.0,0.0,0.0,0.0,0.0,0.0,0.0,0.0,-1.6048,-1.6048,-1.6048,-1.6048,-1.6048,-1.6048,-1.6048,-1.6048,-1.6048,-1.6048,-1.6048,-1.6048,-1.6048,-1.6048,-1.6048,0.0,0.0,0.0,-1.6689,-1.7819,-1.943,-1.943,-1.943,-1.9592,-2.0727,-2.0727,-2.0565,-2.3003,-2.4295,-2.4933,-2.6228,-2.686,-2.7175,-2.7333,-2.7347,-2.7504,-2.8133,-2.8446,-2.8588,-2.89,-2.8886,-2.8886,-2.8886,-2.8886,-2.8886,-2.8886,-2.8886,-2.8886,-2.8886,-2.8886,-2.8886,-2.8886,-2.8886,-2.8886,-2.8886,-2.8886,-2.8886,-2.8886,-2.8886,-2.8886,-2.8886,-2.909,-2.9237,-2.9237,-2.9601,-2.9733,-2.9733,-3.0316,-3.0695,-3.1158,-3.2047,-3.2713,-3.303,-3.5193,-3.6421,-3.6688,-3.9644,-4.1191,-4.1509,-4.2718,-4.3491,-0.9677,-1.0147,-1.0672,-1.2542,-1.337,-1.3858,0.0,0.0,-1.553,-1.5875,-1.6048,-1.6048,-1.6048,-1.6048,-1.6048,-1.6048,-1.6048,0.0,0.0,0.0,0.0,0.0,0.0,0.0,0.0,0.0,0.0,0.0,0.0,0.0,0.0,0.0,-1.6048,-1.6048,-1.6048,-1.6048,-1.6048,-1.6048,-1.6048,-1.6048,-1.6048,-1.6048,-1.6048,-1.6048,-1.6048,0.0,0.0,0.0,0.0,-1.8626,-1.9592,-2.1222,-2.1222,-2.1222,-2.1222,-2.1222,-2.235,-2.3816,-2.3816,-2.5263,-2.7032,-2.7032,-2.7333,-2.7633,-2.8118,-2.8289,-2.8289,-2.8289,-2.8588,-2.8886,-2.8886,-2.8886,-2.8886,-2.8886,-2.8886,-2.8886,-2.8886,-2.8886,-2.8886,-2.8886,-2.8886,-2.8886,-2.8886,-2.8886,-2.8886,-2.8886,-2.8886,-2.8886,-2.8886,-2.8886,-2.8886,-2.8886,-2.89,-2.89,-2.89,-2.9212,-2.9538,-2.9538,-3.0151,-3.0805,-3.1277,-3.3133,-3.4273,-3.4742,-3.7968,-3.9654,-3.9654,-4.1488,-4.2269,-4.229,-4.2725,-4.318,-1.0628,-1.1475,-1.2703,-1.3342,-1.4124,-1.4898,-1.5028,0.0,-1.5875,-1.6048,-1.6048,-1.6048,-1.6048,-1.6048,-1.6048,-1.6048,-1.6048,0.0,0.0,0.0,0.0,0.0,0.0,0.0,0.0,0.0,0.0,0.0,0.0,0.0,0.0,0.0,-1.6048,-1.6048,-1.6048,-1.6048,-1.6048,-1.6048,-1.6048,-1.6048,-1.7173,-1.7819,-1.7819,-1.8952,0.0,0.0,0.0,0.0,0.0,-2.0403,-2.1383,-2.3003,-2.3003,-2.3003,-2.3164,-2.4283,-2.4295,-2.3976,-2.5422,-2.6386,-2.7032,-2.7333,-2.7647,-2.8118,-2.8275,-2.8289,-2.8289,-2.8588,-2.873,-2.8886,-2.8886,-2.8886,-2.8886,-2.8886,-2.8886,-2.8886,-2.8886,-2.8886,-2.8886,-2.8886,-2.8886,-2.8886,-2.8886,-2.8886,-2.8886,-2.8886,-2.8886,-2.8886,-2.8886,-2.8886,-2.8886,-2.8886,-2.9212,-2.9368,-2.9368,-2.9368,-2.9679,-2.9819,-3.0406,-3.0779,-3.0934,-3.2852,-3.3958,-3.4128,-3.7259,-3.9062,-3.9355,-4.102,-4.1959,-4.2269,-4.2393,-4.2538,0.0,-1.2939,-1.4045,-1.4174,-1.4631,0.0,0.0,0.0,0.0,-1.6048,-1.6048,-1.6048,-1.6048,-1.6048,-1.6048,-1.6048,-1.6048,0.0,0.0,0.0,0.0,0.0,0.0,0.0,0.0,0.0,0.0,0.0,0.0,0.0,0.0,0.0,-1.6048,-1.6048,-1.6048,-1.6048,-1.6048,-1.6689,-1.7018,-1.7009,-1.8789,-1.9592,-1.9592,-2.0727,0.0,0.0,0.0,0.0,0.0,-2.2189,-2.3164,-2.4786,-2.4786,-2.4786,-2.4945,-2.6228,-2.5911,-2.5263,-2.6702,-2.7333,-2.749,-2.7805,-2.8118,-2.8588,-2.8588,-2.8588,-2.8588,-2.89,-2.8886,-2.8886,-2.8886,-2.8886,-2.8886,-2.8886,-2.8886,-2.8886,-2.8886,-2.8886,-2.8886,-2.8886,-2.8886,-2.8886,-2.8886,-2.8886,-2.8886,-2.8886,-2.8886,-2.8886,-2.8886,-2.8886,-2.8886,-2.9056,-2.9368,-2.9679,-3.0004,-3.0004,-3.0159,-3.0299,-3.0778,-3.1241,-3.1977,-3.3768,-3.4954,-3.5533,-3.8059,-3.9525,-3.9805,-4.0863,-4.1545,-4.2,-4.2,-4.2083,0.0,0.0,0.0,0.0,0.0,0.0,0.0,0.0,0.0,0.0,0.0,0.0,-1.6048,-1.6048,-1.6048,-1.6048,0.0,0.0,0.0,0.0,0.0,0.0,0.0,0.0,0.0,0.0,0.0,0.0,0.0,0.0,0.0,0.0,-1.6205,-1.6205,-1.6369,-1.6369,-1.6205,-1.7983,-1.8789,-1.8789,-2.0565,-2.1383,-2.1383,-2.1545,0.0,0.0,0.0,0.0,0.0,-2.3976,-2.4945,-2.6386,-2.6386,-2.6386,-2.6544,-2.686,-2.7032,-2.7018,-2.7476,-2.7961,-2.8289,-2.8289,-2.8588,-2.8886,-2.8886,-2.8886,-2.8886,-2.8886,-2.8886,-2.8886,-2.8886,-2.8886,-2.8886,-2.8886,-2.8886,-2.8886,-2.8886,-2.8886,-2.8886,-2.8886,-2.8886,-2.8886,-2.8886,-2.8886,-2.8886,-2.8886,-2.8886,-2.8886,-2.8886,-2.8886,-2.9056,-2.9523,-2.9523,-2.9849,-3.0794,-3.0794,-3.0778,-3.0778,-3.1241,-3.213,-3.3768,-3.5253,-3.6885,-3.8516,-4.0126,-4.0882,-4.0882,-4.0882,-4.1089,-4.1524,-4.1524,-4.1752,-1.5711,0.0,-1.5216,-1.5216,-1.5546,-1.5875,0.0,0.0,0.0,0.0,0.0,0.0,0.0,0.0,0.0,0.0,0.0,0.0,0.0,0.0,0.0,0.0,0.0,0.0,0.0,0.0,0.0,0.0,0.0,0.0,0.0,0.0,-1.7983,-1.7983,-1.9277,-1.9277,-1.7983,-1.9765,-2.0565,-2.0565,-2.235,-2.3164,-2.3164,-2.4614,0.0,0.0,0.0,0.0,-2.5753,-2.5753,-2.6228,-2.6874,-2.6874,-2.7018,-2.7319,-2.7476,-2.7476,-2.7476,-2.7961,-2.8289,-2.8275,-2.8588,-2.8886,-2.8886,-2.8886,-2.8886,-2.8886,-2.8886,-2.8886,-2.8886,-2.8886,-2.8886,-2.8886,-2.8886,-2.8886,-2.8886,-2.8886,-2.8886,-2.8886,-2.8886,-2.8886,-2.8886,-2.8886,-2.8886,-2.8886,-2.8886,-2.8886,-2.8886,-2.8886,-2.9212,-2.9368,-2.9523,-3.0159,-3.0624,-3.0794,-3.0794,-3.0933,-3.1241,-3.1395,-3.213,-3.3768,-3.5253,-3.6885,-3.8516,-4.0126,-4.0882,-4.0882,-4.0882,-4.0924,-4.1027,-4.1027,-4.1089,-1.6048,-1.5883,-1.5711,-1.5711,-1.5883,-1.6048,-1.6048,0.0,0.0,0.0,0.0,0.0,0.0,0.0,0.0,0.0,0.0,0.0,0.0,0.0,0.0,0.0,0.0,0.0,0.0,0.0,0.0,0.0,0.0,0.0,0.0,0.0,-1.9755,-1.9755,-2.1545,-2.1545,-1.9755,-2.1545,-2.235,-2.235,-2.4136,-2.4945,-2.5104,-2.5911,0.0,0.0,0.0,0.0,-2.6386,-2.6544,-2.6874,-2.7032,-2.7175,-2.749,-2.7633,-2.7805,-2.7961,-2.7961,-2.8431,-2.8588,-2.8588,-2.89,-2.8886,-2.8886,-2.8886,-2.8886,-2.8886,-2.8886,-2.8886,-2.8886,-2.8886,-2.8886,-2.8886,-2.8886,-2.8886,-2.8886,-2.8886,-2.8886,-2.8886,-2.8886,-2.8886,-2.8886,-2.8886,-2.8886,-2.8886,-2.8886,-2.8886,-2.8886,-2.8886,-2.9212,-2.9523,-2.9834,-3.0469,-3.0933,-3.1087,-3.1087,-3.1533,-3.2435,-3.2419,-3.3466,-3.583,-3.6737,-3.7913,-3.955,-4.0433,-4.0882,-4.0882,-4.0882,-4.0882,-4.0882,-4.0882,-4.0882,-1.6048,-1.6048,-1.6048,-1.6048,-1.6048,-1.6048,-1.6048,0.0,0.0,0.0,0.0,0.0,0.0,0.0,0.0,0.0,0.0,0.0,0.0,0.0,0.0,0.0,0.0,0.0,0.0,0.0,0.0,0.0,0.0,0.0,0.0,0.0,0.0,-2.1545,-2.3324,-2.3484,-2.2028,-2.3484,-2.4136,-2.4136,-2.574,-2.6386,-2.6386,-2.6386,-2.6386,0.0,0.0,0.0,-2.6544,-2.7018,-2.7175,-2.7189,-2.7647,-2.779,-2.779,-2.8275,-2.8431,-2.8431,-2.8744,-2.8886,-2.8886,-2.8886,-2.8886,-2.8886,-2.8886,-2.8886,-2.8886,-2.8886,-2.8886,-2.8886,-2.8886,-2.8886,-2.8886,-2.8886,-2.8886,-2.8886,-2.8886,-2.8886,-2.8886,-2.8886,-2.8886,-2.8886,-2.8886,-2.8886,-2.8886,-2.8886,-2.8886,-2.8886,-2.9042,-2.9368,-2.9679,-3.0144,-3.0624,-3.1087,-3.1395,-3.1686,-3.2435,-3.4053,-3.3902,-3.5253,-3.835,-3.8806,-3.955,-4.0862,-4.0882,-4.0882,-4.0882,-4.0882,-4.0882,-4.0882,-4.0882,-4.0882,-1.6048,-1.6048,-1.6048,-1.6048,-1.6048,-1.6048,-1.6048,0.0,0.0,0.0,0.0,0.0,0.0,0.0,0.0,0.0,0.0,0.0,0.0,0.0,0.0,0.0,0.0,0.0,0.0,0.0,0.0,0.0,0.0,0.0,0.0,0.0,0.0,-2.3324,-2.5104,-2.5898,-2.5581,-2.5898,-2.607,-2.607,-2.6228,-2.6386,-2.6386,-2.6386,-2.6544,0.0,0.0,-2.7175,-2.7476,-2.7476,-2.7805,-2.8133,-2.8118,-2.8431,-2.873,-2.873,-2.8744,-2.8886,-2.8886,-2.8886,-2.8886,-2.8886,-2.8886,-2.8886,-2.8886,-2.8886,-2.8886,-2.8886,-2.8886,-2.8886,-2.8886,-2.8886,-2.8886,-2.8886,-2.8886,-2.8886,-2.8886,-2.8886,-2.8886,-2.8886,-2.8886,-2.8886,-2.8886,-2.8886,-2.8886,-2.8886,-2.8886,-2.9042,-2.9368,-2.9834,-3.0144,-3.0624,-3.1087,-3.1395,-3.1395,-3.2571,-3.4053,-3.57,-3.4504,-3.5253,-3.835,-3.9838,-4.0576,-4.0882,-4.0882,-4.0882,-4.0882,-4.0882,-4.0882,-4.0882,-4.0882,-4.0882,-1.6048,-1.6048,-1.6048,-1.6048,-1.6048,-1.6048,-1.6048,-1.6048,0.0,0.0,0.0,0.0,0.0,0.0,0.0,0.0,0.0,0.0,0.0,0.0,0.0,0.0,0.0,0.0,0.0,0.0,0.0,0.0,0.0,0.0,0.0,0.0,0.0,0.0,-2.5911,-2.6386,-2.6386,-2.6544,-2.6544,-2.6386,-2.6544,-2.6702,-2.6702,-2.7018,-2.7175,-2.7333,0.0,-2.749,-2.7633,-2.7805,-2.8118,-2.8289,-2.8588,-2.8744,-2.8886,-2.8886,-2.8886,-2.8886,-2.8886,-2.8886,-2.8886,-2.8886,-2.8886,-2.8886,-2.8886,-2.8886,-2.8886,-2.8886,-2.8886,-2.8886,-2.8886,-2.8886,-2.8886,-2.8886,-2.8886,-2.8886,-2.8886,-2.8886,-2.8886,-2.8886,-2.8886,-2.8886,-2.8886,-2.8886,-2.8886,-2.8886,-2.9056,-2.9368,-2.9523,-2.9989,-3.0624,-3.0794,-3.1087,-3.1686,-3.2571,-3.3314,-3.4804,-3.7179,-3.762,-3.835,-3.9694,-4.0576,-4.0882,-4.0882,-4.0882,-4.0882,-4.0882,-4.0882,-4.0882,-4.0882,-4.0882,-4.0882,-1.6048,-1.6048,-1.6048,-1.6048,0.0,-1.6048,-1.6048,-1.6048,0.0,0.0,0.0,0.0,0.0,0.0,0.0,0.0,0.0,0.0,0.0,0.0,0.0,0.0,0.0,0.0,0.0,0.0,0.0,0.0,0.0,0.0,0.0,0.0,0.0,0.0,-2.6544,-2.6544,-2.6544,-2.686,-2.686,-2.6544,-2.7018,-2.7175,-2.7175,-2.7476,-2.7633,-2.7805,-2.7805,-2.779,-2.7947,-2.8275,-2.8431,-2.8431,-2.8744,-2.8886,-2.8886,-2.8886,-2.8886,-2.8886,-2.8886,-2.8886,-2.8886,-2.8886,-2.8886,-2.8886,-2.8886,-2.8886,-2.8886,-2.8886,-2.8886,-2.8886,-2.8886,-2.8886,-2.8886,-2.8886,-2.8886,-2.8886,-2.8886,-2.8886,-2.8886,-2.8886,-2.8886,-2.8886,-2.8886,-2.8886,-2.8886,-2.9056,-2.9368,-2.9523,-2.9834,-3.0314,-3.0778,-3.0933,-3.1241,-3.213,-3.4203,-3.4354,-3.57,-3.8806,-4.0289,-4.0882,-4.0882,-4.0882,-4.0882,-4.0882,-4.0882,-4.0882,-4.0882,-4.0882,-4.0882,-4.0882,-4.0882,-4.0882,-1.6048,-1.6048,-1.6048,-1.6048,-1.6048,0.0,-1.6048,-1.6048,0.0,-1.6048,0.0,0.0,0.0,0.0,0.0,0.0,0.0,0.0,0.0,0.0,0.0,0.0,0.0,0.0,0.0,0.0,0.0,0.0,0.0,0.0,0.0,0.0,0.0,0.0,0.0,-2.7032,-2.7032,-2.7333,-2.7333,-2.7032,-2.7333,-2.7633,-2.7633,-2.7633,-2.7805,-2.8289,-2.8275,-2.8431,-2.873,-2.8886,-2.8886,-2.8886,-2.8886,-2.8886,-2.8886,-2.8886,-2.8886,-2.8886,-2.8886,-2.8886,-2.8886,-2.8886,-2.8886,-2.8886,-2.8886,-2.8886,-2.8886,-2.8886,-2.8886,-2.8886,-2.8886,-2.8886,-2.8886,-2.8886,-2.8886,-2.8886,-2.8886,-2.8886,-2.8886,-2.8886,-2.8886,-2.8886,-2.8886,-2.8886,-2.9056,-2.9368,-2.9523,-2.9849,-3.0624,-3.0778,-3.0933,-3.1395,-3.1395,-3.2571,-3.57,-3.5997,-3.7326,-4.0576,-4.0882,-4.0882,-4.0882,-4.0882,-4.0882,-4.0882,-4.0882,-4.0882,-4.0882,-4.0882,-4.0882,-4.0882,-4.0882,-4.0882,-1.6048,-1.6048,-1.6048,-1.6048,-1.6048,0.0,0.0,-1.6854,-1.6369,-1.7337,-1.7656,0.0,0.0,0.0,0.0,0.0,0.0,0.0,0.0,0.0,0.0,0.0,0.0,0.0,0.0,0.0,0.0,0.0,0.0,0.0,0.0,0.0,0.0,0.0,0.0,-2.7175,-2.7333,-2.7805,-2.7961,-2.7819,-2.7961,-2.7961,-2.8118,-2.8261,-2.8573,-2.8744,-2.8744,-2.8744,-2.8886,-2.8886,-2.8886,-2.8886,-2.8886,-2.8886,-2.8886,-2.8886,-2.8886,-2.8886,-2.8886,-2.8886,-2.8886,-2.8886,-2.8886,-2.8886,-2.8886,-2.8886,-2.8886,-2.8886,-2.8886,-2.8886,-2.8886,-2.8886,-2.8886,-2.8886,-2.8886,-2.8886,-2.8886,-2.8886,-2.8886,-2.8886,-2.8886,-2.9042,-2.9212,-2.9212,-2.9368,-2.9834,-3.0144,-3.0469,-3.0794,-3.1087,-3.1241,-3.1395,-3.318,-3.4804,-3.5997,-3.7913,-3.955,-4.0862,-4.0882,-4.0882,-4.0882,-4.0882,-4.0882,-4.0882,-4.0882,-4.0882,-4.0882,-4.0882,-4.0882,-4.0882,-4.0882,-4.0882,-1.6048,-1.6048,-1.6205,0.0,0.0,0.0,-1.8952,-1.8146,-1.7173,-1.83,-1.8894,0.0,0.0,0.0,0.0,0.0,0.0,0.0,0.0,0.0,0.0,0.0,0.0,0.0,0.0,0.0,0.0,0.0,0.0,0.0,0.0,0.0,0.0,0.0,0.0,0.0,-2.7805,-2.8275,-2.8431,-2.8431,-2.8431,-2.8431,-2.8431,-2.873,-2.8886,-2.8886,-2.8886,-2.8886,-2.8886,-2.8886,-2.8886,-2.8886,-2.8886,-2.8886,-2.8886,-2.8886,-2.8886,-2.8886,-2.8886,-2.8886,-2.8886,-2.8886,-2.8886,-2.8886,-2.8886,-2.8886,-2.8886,-2.8886,-2.8886,-2.8886,-2.8886,-2.8886,-2.8886,-2.8886,-2.8886,-2.8886,-2.8886,-2.8886,-2.8886,-2.8886,-2.9056,-2.9212,-2.9368,-2.9679,-2.9834,-3.0299,-3.0624,-3.0794,-3.0933,-3.1241,-3.1533,-3.213,-3.407,-3.5849,-3.6737,-3.8951,-4.0433,-4.0882,-4.0882,-4.0882,-4.0882,-4.0882,-4.0882,-4.0882,-4.0882,-4.0882,-4.0882,-4.0882,-4.0882,-4.0882,-4.0882,-4.0882,-1.6048,-1.6048,0.0,0.0,0.0,0.0,-2.0413,-1.9917,-1.8617,-1.8617,0.0,0.0,0.0,0.0,0.0,0.0,0.0,0.0,0.0,0.0,0.0,0.0,0.0,0.0,0.0,0.0,0.0,0.0,0.0,0.0,0.0,0.0,0.0,0.0,0.0,0.0,-2.8289,-2.8744,-2.8886,-2.8886,-2.8886,-2.8886,-2.8886,-2.8886,-2.8886,-2.8886,-2.8886,-2.8886,-2.8886,-2.8886,-2.8886,-2.8886,-2.8886,-2.8886,-2.8886,-2.8886,-2.8886,-2.8886,-2.8886,-2.8886,-2.8886,-2.8886,-2.8886,-2.8886,-2.8886,-2.8886,-2.8886,-2.8886,-2.8886,-2.8886,-2.8886,-2.8886,-2.8886,-2.8886,-2.8886,-2.8886,-2.8886,-2.8886,-2.8886,-2.8886,-2.9212,-2.9523,-2.9523,-2.9834,-3.0299,-3.0778,-3.0794,-3.0933,-3.1395,-3.1395,-3.1993,-3.3617,-3.3751,-3.5103,-3.8205,-3.8496,-3.9241,-4.0862,-4.0882,-4.0882,-4.0882,-4.0882,-4.0882,-4.0882,-4.0882,-4.0882,-4.0882,-4.0882,-4.0882,-4.0882,-4.0882,-4.0882,-1.6048,0.0,0.0,0.0,0.0,0.0,0.0,-1.8836,0.0,0.0,0.0,0.0,0.0,0.0,0.0,0.0,0.0,0.0,0.0,0.0,0.0,0.0,0.0,0.0,0.0,0.0,0.0,0.0,0.0,0.0,0.0,0.0,0.0,0.0,0.0,0.0,-2.873,-2.8886,-2.8886,-2.8886,-2.8886,-2.8886,-2.8886,-2.8886,-2.8886,-2.8886,-2.8886,-2.8886,-2.8886,-2.8886,-2.8886,-2.8886,-2.8886,-2.8886,-2.8886,-2.8886,-2.8886,-2.8886,-2.8886,-2.8886,-2.8886,-2.8886,-2.8886,-2.8886,-2.8886,-2.8886,-2.8886,-2.8886,-2.8886,-2.8886,-2.8886,-2.8886,-2.8886,-2.8886,-2.8886,-2.8886,-2.8886,-2.8886,-2.8886,-2.8886,-2.9212,-2.9523,-2.9819,-3.0299,-3.0778,-3.1087,-3.1241,-3.1241,-3.1395,-3.1395,-3.1993,-3.3617,-3.4804,-3.6294,-3.835,-3.955,-4.0433,-4.0882,-4.0882,-4.0882,-4.0882,-4.0882,-4.0882,-4.0882,-4.0882,-4.0882,-4.0882,-4.0882,-4.0882,-4.0882,-4.0882,-4.0882,-1.6854,0.0,0.0,0.0,0.0,0.0,0.0,0.0,0.0,0.0,0.0,0.0,0.0,0.0,0.0,0.0,0.0,0.0,0.0,0.0,0.0,0.0,0.0,0.0,0.0,0.0,0.0,0.0,0.0,0.0,0.0,0.0,0.0,0.0,0.0,0.0,-2.852,-2.8637,-2.871,-2.871,-2.8827,-2.8886,-2.8886,-2.8886,-2.8886,-2.8886,-2.8886,-2.8886,-2.8886,-2.8886,-2.8886,-2.8886,-2.8886,-2.8886,-2.8886,-2.8886,-2.8886,-2.8886,-2.8886,-2.8886,-2.8886,-2.8886,-2.8886,-2.8886,-2.8886,-2.8886,-2.8886,-2.8886,-2.8886,-2.8886,-2.8886,-2.8886,-2.8886,-2.8886,-2.8886,-2.8886,-2.8886,-2.8886,-2.8886,-2.9056,-2.9523,-2.9834,-3.0299,-3.0778,-3.1087,-3.1395,-3.1395,-3.1395,-3.1395,-3.1395,-3.2283,-3.4504,-3.5551,-3.7032,-3.9241,-4.0289,-4.0882,-4.0882,-4.0882,-4.0882,-4.0882,-4.0882,-4.0882,-4.0882,-4.0882,-4.0882,-4.0882,-4.0882,-4.0882,-4.0882,-4.0882,-4.0882,0.0,0.0,0.0,0.0,0.0,0.0,0.0,0.0,0.0,0.0,0.0,0.0,0.0,0.0,0.0,0.0,0.0,0.0,0.0,0.0,0.0,0.0,0.0,0.0,0.0,0.0,0.0,0.0,0.0,0.0,0.0,0.0,0.0,0.0,0.0,0.0,-2.7949,-2.8242,-2.8388,0.0,-2.8695,-2.8842,-2.8856,-2.8871,-2.8886,-2.8886,-2.8886,-2.8886,-2.8886,-2.8886,-2.8886,-2.8886,-2.8886,-2.8886,-2.8886,-2.8886,-2.8886,-2.8886,-2.8886,-2.8886,-2.8886,-2.8886,-2.8886,-2.8886,-2.8886,-2.8886,-2.8886,-2.8886,-2.8886,-2.8886,-2.8886,-2.8886,-2.8886,-2.8886,-2.8886,-2.8886,-2.8886,-2.8886,-2.9056,-2.9368,-2.9834,-3.0299,-3.0778,-3.1087,-3.1395,-3.1395,-3.1395,-3.1395,-3.1533,-3.1686,-3.2876,-3.5997,-3.6294,-3.762,-4.0576,-4.0882,-4.0882,-4.0882,-4.0882,-4.0882,-4.0882,-4.0882,-4.0882,-4.0882,-4.0882,-4.0882,-4.0882,-4.0882,-4.0882,-4.0882,-4.0882,-4.0882,0.0,0.0,0.0,0.0,0.0,0.0,0.0,0.0,0.0,0.0,0.0,0.0,0.0,0.0,0.0,0.0,0.0,0.0,0.0,0.0,0.0,0.0,0.0,0.0,0.0,0.0,0.0,0.0,0.0,0.0,0.0,0.0,0.0,0.0,0.0,-2.77,-2.7949,-2.8022,-2.8052,0.0,-2.8388,-2.8534,-2.8549,-2.8783,-2.8886,-2.8886,-2.8886,-2.8886,-2.8886,-2.8886,-2.8886,-2.8886,-2.8886,-2.8886,-2.8886,-2.8886,-2.8886,-2.8886,-2.8886,-2.8886,-2.8886,-2.8886,-2.8886,-2.8886,-2.8886,-2.8886,-2.8886,-2.8886,-2.8886,-2.8886,-2.8886,-2.8886,-2.8886,-2.8886,-2.8886,-2.8886,-2.8886,-2.9212,-2.9368,-2.9523,-3.0159,-3.0624,-3.0778,-3.1087,-3.1395,-3.1395,-3.1395,-3.184,-3.318,-3.3314,-3.4504,-3.762,-3.7913,-3.8806,-4.0719,-4.0882,-4.0882,-4.0882,-4.0882,-4.0882,-4.0882,-4.0882,-4.0882,-4.0882,-4.0882,-4.0882,-4.0882,-4.0882,-4.0882,-4.0882,-4.0882,-4.0882,0.0,0.0,0.0,0.0,0.0,0.0,0.0,0.0,0.0,0.0,0.0,0.0,0.0,0.0,0.0,0.0,0.0,0.0,0.0,0.0,0.0,0.0,0.0,0.0,0.0,0.0,0.0,0.0,0.0,0.0,0.0,0.0,0.0,0.0,-2.71,-2.732,-2.7495,-2.7642,-2.773,-2.773,-2.8052,-2.8212,-2.8212,-2.8681,-2.8886,-2.8886,-2.8886,-2.8886,-2.8886,-2.8886,-2.8886,-2.8886,-2.8886,-2.8886,-2.8886,-2.8886,-2.8886,-2.8886,-2.8886,-2.8886,-2.8886,-2.8886,-2.8886,-2.8886,-2.8886,-2.8886,-2.8886,-2.8886,-2.8886,-2.8886,-2.8886,-2.8886,-2.8886,-2.8886,-2.8886,-2.8886,-2.9212,-2.9368,-2.9679,-3.0004,-3.0469,-3.0778,-3.1087,-3.1241,-3.1395,-3.1395,-3.213,-3.2876,-3.3768,-3.4504,-3.5849,-3.8205,-3.8516,-3.9096,-4.0719,-4.0882,-4.0882,-4.0882,-4.0882,-4.0882,-4.0882,-4.0882,-4.0882,-4.0882,-4.0882,-4.0882,-4.0882,-4.0882,-4.0882,-4.0882,-4.0882,-4.0882,0.0,0.0,0.0,0.0,0.0,0.0,0.0,0.0,0.0,0.0,0.0,0.0,0.0,0.0,0.0,0.0,0.0,0.0,0.0,0.0,0.0,0.0,0.0,0.0,0.0,0.0,0.0,0.0,0.0,0.0,0.0,0.0,-2.6692,-2.6983,-2.6983,-2.6983,-2.6983,-2.7261,-2.7393,-2.7393,-2.7715,-2.7905,-2.7964,-2.8491,-2.8754,-2.8812,-2.8871,-2.8886,-2.8886,-2.8886,-2.8886,-2.8886,-2.8886,-2.8886,-2.8886,-2.8886,-2.8886,-2.8886,-2.8886,-2.8886,-2.8886,-2.8886,-2.8886,-2.8886,-2.8886,-2.8886,-2.8886,-2.8886,-2.8886,-2.8886,-2.8886,-2.8886,-2.8886,-2.9042,-2.9056,-2.9056,-2.9368,-2.9679,-3.0004,-3.0624,-3.0778,-3.0933,-3.1395,-3.1395,-3.1395,-3.1395,-3.2724,-3.3919,-3.4203,-3.5551,-3.7179,-3.8806,-3.8951,-3.9385,-4.0719,-4.0882,-4.0882,-4.0882,-4.0882,-4.0882,-4.0882,-4.0882,-4.0882,-4.0882,-4.0882,-4.0882,-4.0882,-4.0882,-4.0882,-4.0882,-4.0882,-4.0882,0.0,0.0,0.0,0.0,0.0,0.0,0.0,0.0,0.0,0.0,0.0,0.0,0.0,0.0,0.0,0.0,0.0,0.0,0.0,0.0,0.0,0.0,0.0,0.0,0.0,0.0,0.0,0.0,0.0,0.0,0.0,-2.6692,-2.6983,-2.6983,-2.6983,-2.6983,-2.6983,-2.7027,-2.7056,-2.7056,-2.7393,-2.7686,-2.7949,-2.8037,-2.8227,-2.8505,-2.8769,-2.8886,-2.8886,-2.8886,-2.8886,-2.8886,-2.8886,-2.8886,-2.8886,-2.8886,-2.8886,-2.8886,-2.8886,-2.8886,-2.8886,-2.8886,-2.8886,-2.8886,-2.8886,-2.8886,-2.8886,-2.8886,-2.8886,-2.8886,-2.8886,-2.8886,-2.9042,-2.9368,-2.9368,-2.9368,-2.9523,-3.0159,-3.0624,-3.0794,-3.1087,-3.1395,-3.1395,-3.1395,-3.1395,-3.1395,-3.2724,-3.4203,-3.5551,-3.7179,-3.8806,-4.0433,-4.0576,-4.0719,-4.0882,-4.0882,-4.0882,-4.0882,-4.0882,-4.0882,-4.0882,-4.0882,-4.0882,-4.0882,-4.0882,-4.0882,-4.0882,-4.0882,-4.0882,-4.0882,-4.0882,-4.0882,0.0,0.0,0.0,0.0,0.0,0.0,0.0,0.0,0.0,0.0,0.0,0.0,0.0,0.0,0.0,0.0,0.0,0.0,0.0,0.0,0.0,0.0,0.0,0.0,0.0,0.0,0.0,0.0,0.0,0.0,-2.6399,-2.6838,-2.6983,-2.6983,-2.6983,-2.6983,-2.6983,-2.6983,-2.6983,-2.6983,-2.713,-2.7276,-2.7422,-2.7598,-2.7861,-2.8183,-2.8505,-2.8637,-2.8651,-2.8812,-2.8886,-2.8886,-2.8886,-2.8886,-2.8886,-2.8886,-2.8886,-2.8886,-2.8886,-2.8886,-2.8886,-2.8886,-2.8886,-2.8886,-2.8886,-2.8886,-2.8886,-2.8886,-2.8886,-2.8886,-2.8886,-2.8886,-2.9056,-2.9368,-2.9679,-2.9834,-3.0159,-3.0469,-3.0948,-3.1087,-3.1241,-3.1395,-3.1395,-3.1395,-3.1395,-3.1395,-3.3466,-3.5402,-3.5997,-3.835,-4.0126,-4.0862,-4.0882,-4.0882,-4.0882,-4.0882,-4.0882,-4.0882,-4.0882,-4.0882,-4.0882,-4.0882,-4.0882,-4.0882,-4.0882,-4.0882,-4.0882,-4.0882,-4.0882,-4.0882,-4.0882,-4.0882,0.0,0.0,0.0,0.0,0.0,0.0,0.0,0.0,0.0,0.0,0.0,0.0,0.0,0.0,0.0,0.0,0.0,0.0,0.0,0.0,0.0,0.0,0.0,0.0,0.0,0.0,0.0,0.0,0.0,0.0,-2.6546,-2.6838,-2.6983,-2.6983,-2.6983,-2.6983,-2.6983,-2.6983,-2.6983,-2.6983,-2.6983,-2.6983,-2.6998,-2.7247,-2.7481,-2.773,-2.8139,-2.8315,-2.833,-2.8564,-2.8695,-2.8769,-2.8769,-2.8812,-2.8886,-2.8886,-2.8886,-2.8886,-2.8886,-2.8886,-2.8886,-2.8886,-2.8886,-2.8886,-2.8886,-2.8886,-2.8886,-2.8886,-2.8886,-2.8886,-2.9056,-2.9056,-2.9212,-2.9694,-2.9989,-3.0454,-3.0778,-3.0933,-3.1087,-3.1395,-3.1395,-3.1395,-3.1395,-3.1395,-3.1395,-3.1395,-3.407,-3.6146,-3.6146,-3.8951,-4.0882,-4.0882,-4.0882,-4.0882,-4.0882,-4.0882,-4.0882,-4.0882,-4.0882,-4.0882,-4.0882,-4.0882,-4.0882,-4.0882,-4.0882,-4.0882,-4.0882,-4.0882,-4.0882,-4.0882,-4.0882,-4.0882,0.0,0.0,0.0,0.0,0.0,0.0,0.0,0.0,0.0,0.0,0.0,0.0,0.0,0.0,0.0,0.0,0.0,0.0,0.0,0.0,0.0,0.0,0.0,0.0,0.0,0.0,0.0,0.0,0.0,0.0,-2.6983,-2.6983,-2.6983,-2.6983,-2.6983,-2.6983,-2.6983,-2.6983,-2.6983,-2.6983,-2.6983,-2.6983,-2.6983,-2.7013,-2.7027,-2.7071,-2.77,-2.7978,-2.7978,-2.7993,-2.8183,-2.8461,-2.8461,-2.8637,-2.8886,-2.8886,-2.8886,-2.8886,-2.8886,-2.8886,-2.8886,-2.8886,-2.8886,-2.8886,-2.8886,-2.8886,-2.8886,-2.8886,-2.8886,-2.9042,-2.9368,-2.9523,-2.9679,-3.0469,-3.0794,-3.0933,-3.1241,-3.1395,-3.1395,-3.1395,-3.1395,-3.1395,-3.1395,-3.1395,-3.1395,-3.1395,-3.407,-3.6146,-3.6146,-3.8951,-4.0882,-4.0882,-4.0882,-4.0882,-4.0882,-4.0882,-4.0882,-4.0882,-4.0882,-4.0882,-4.0882,-4.0882,-4.0882,-4.0882,-4.0882,-4.0882,-4.0882,-4.0882,-4.0882,-4.0882,-4.0882,-4.0882,-2.4598,0.0,0.0,0.0,0.0,0.0,0.0,0.0,0.0,0.0,0.0,0.0,0.0,0.0,0.0,0.0,0.0,0.0,0.0,0.0,0.0,0.0,0.0,0.0,0.0,0.0,0.0,0.0,0.0,0.0,-2.6983,-2.6983,-2.6983,-2.6983,-2.6983,-2.6983,-2.6983,-2.6983,-2.6983,-2.6983,-2.6983,-2.6983,-2.6983,-2.6983,-2.6983,-2.6998,-2.7232,-2.7452,-2.7656,-2.7861,-2.8022,-2.8125,-2.8125,-2.8183,-2.8315,-2.852,-2.8593,-2.8622,-2.8827,-2.8886,-2.8886,-2.8886,-2.8886,-2.8886,-2.8886,-2.8886,-2.8886,-2.8886,-2.9056,-2.9368,-2.9523,-2.9679,-2.9989,-3.0624,-3.0933,-3.1241,-3.1395,-3.1395,-3.1395,-3.1395,-3.1395,-3.1395,-3.1395,-3.1395,-3.1395,-3.1395,-3.407,-3.6146,-3.6146,-3.8951,-4.0882,-4.0882,-4.0882,-4.0882,-4.0882,-4.0882,-4.0882,-4.0882,-4.0882,-4.0882,-4.0882,-4.0882,-4.0882,-4.0882,-4.0882,-4.0882,-4.0882,-4.0882,-4.0882,-4.0882,-4.0882,-4.0882,-2.5398,-2.501,0.0,0.0,0.0,0.0,0.0,0.0,0.0,0.0,0.0,0.0,0.0,0.0,0.0,0.0,0.0,0.0,0.0,0.0,0.0,0.0,0.0,0.0,0.0,0.0,0.0,0.0,0.0,0.0,-2.6983,-2.6983,-2.6983,-2.6983,-2.6983,-2.6983,-2.6983,-2.6983,-2.6983,-2.6983,-2.6983,-2.6983,-2.6983,-2.6983,-2.6983,-2.6983,-2.6983,-2.7115,-2.7335,-2.7539,-2.7686,-2.7788,-2.7788,-2.7861,-2.7978,-2.8198,-2.8271,-2.8315,-2.8637,-2.8739,-2.8754,-2.8856,-2.8886,-2.8886,-2.8886,-2.9042,-2.9056,-2.9056,-2.9368,-2.9679,-2.9849,-3.0299,-3.0608,-3.0933,-3.1241,-3.1395,-3.1395,-3.1395,-3.1395,-3.1395,-3.1395,-3.1395,-3.1395,-3.1395,-3.1533,-3.213,-3.4371,-3.6294,-3.6885,-3.9241,-4.0882,-4.0882,-4.0882,-4.0882,-4.0882,-4.0882,-4.0882,-4.0882,-4.0882,-4.0882,-4.0882,-4.0882,-4.0882,-4.0882,-4.0882,-4.0882,-4.0882,-4.0882,-4.0882,-4.0882,-4.0882,-4.0882,0.0,0.0,0.0,0.0,0.0,0.0,0.0,0.0,0.0,0.0,0.0,0.0,0.0,0.0,0.0,0.0,0.0,0.0,0.0,0.0,0.0,0.0,0.0,0.0,0.0,0.0,0.0,0.0,0.0,-2.6632,-2.6954,-2.6983,-2.6983,-2.6983,-2.6983,-2.6983,-2.6983,-2.6983,-2.6983,-2.6983,-2.6983,-2.6983,-2.6983,-2.6983,-2.6983,-2.6983,-2.6983,-2.6983,-2.6983,-2.6983,-2.7174,-2.7466,-2.7466,-2.7656,-2.792,-2.7934,-2.7934,-2.7978,-2.8315,-2.8417,-2.8476,-2.8783,-2.8871,-2.8871,-2.8886,-2.9212,-2.9523,-2.9523,-2.9834,-3.0299,-3.0624,-3.1087,-3.1395,-3.1395,-3.1395,-3.1395,-3.1395,-3.1395,-3.1395,-3.1395,-3.1395,-3.1395,-3.1395,-3.1549,-3.1993,-3.3617,-3.5253,-3.6737,-3.835,-3.9838,-4.0882,-4.0882,-4.0882,-4.0882,-4.0882,-4.0882,-4.0882,-4.0882,-4.0882,-4.0882,-4.0882,-4.0882,-4.0882,-4.0882,-4.0882,-4.0882,-4.0882,-4.0882,-4.0882,-4.0882,-4.0882,-4.0882,-2.5104,0.0,0.0,0.0,0.0,0.0,0.0,0.0,0.0,0.0,0.0,0.0,0.0,0.0,0.0,0.0,0.0,0.0,0.0,0.0,0.0,0.0,0.0,0.0,0.0,0.0,0.0,0.0,-2.6149,-2.6296,-2.6617,-2.6866,-2.6983,-2.6983,-2.6983,-2.6983,-2.6983,-2.6983,-2.6983,-2.6983,-2.6983,-2.6983,-2.6983,-2.6983,-2.6983,-2.6983,-2.6983,-2.6983,-2.6983,-2.6983,-2.7042,-2.713,-2.713,-2.7174,-2.7276,-2.7525,-2.7613,-2.7656,-2.7978,-2.8081,-2.8139,-2.8461,-2.8564,-2.8608,-2.9138,-2.9368,-2.9523,-2.9834,-3.0299,-3.0778,-3.1087,-3.1395,-3.1395,-3.1395,-3.1395,-3.1395,-3.1395,-3.1395,-3.1395,-3.1395,-3.1395,-3.184,-3.2876,-3.318,-3.3617,-3.5253,-3.6885,-3.8059,-3.8496,-3.9838,-4.0882,-4.0882,-4.0882,-4.0882,-4.0882,-4.0882,-4.0882,-4.0882,-4.0882,-4.0882,-4.0882,-4.0882,-4.0882,-4.0882,-4.0882,-4.0882,-4.0882,-4.0882,-4.0882,-4.0882,-4.0882,-4.0882,-2.493,-2.477,-2.4636,0.0,0.0,0.0,0.0,-2.4636,0.0,0.0,0.0,0.0,0.0,0.0,0.0,0.0,0.0,0.0,0.0,0.0,0.0,0.0,0.0,0.0,0.0,0.0,0.0,0.0,-2.5813,-2.5959,-2.6281,-2.6603,-2.6793,-2.6793,-2.6925,-2.6983,-2.6983,-2.6983,-2.6983,-2.6983,-2.6983,-2.6983,-2.6983,-2.6983,-2.6983,-2.6983,-2.6983,-2.6983,-2.6983,-2.6983,-2.6983,-2.6983,-2.6983,-2.6983,-2.7013,-2.7203,-2.7276,-2.732,-2.7642,-2.7759,-2.7803,-2.8276,-2.8379,-2.8591,-2.9363,-2.9623,-2.9822,-3.0268,-3.0778,-3.1087,-3.1395,-3.1395,-3.1395,-3.1395,-3.1395,-3.1395,-3.1395,-3.1395,-3.1395,-3.1395,-3.1993,-3.2724,-3.3617,-3.4354,-3.5253,-3.6885,-3.7913,-3.8806,-3.9385,-4.0289,-4.0882,-4.0882,-4.0882,-4.0882,-4.0882,-4.0882,-4.0882,-4.0882,-4.0882,-4.0882,-4.0882,-4.0882,-4.0882,-4.0882,-4.0882,-4.0882,-4.0882,-4.0882,-4.0882,-4.0882,-4.0882,-4.0882,-2.4864,-2.4636,-2.4636,-2.4636,0.0,0.0,-2.4636,-2.4636,-2.4636,0.0,0.0,0.0,0.0,0.0,0.0,0.0,0.0,0.0,0.0,0.0,0.0,0.0,0.0,0.0,0.0,0.0,-2.4761,-2.5324,-2.5505,-2.5652,-2.5944,-2.6266,-2.6471,-2.65,-2.6778,-2.6954,-2.6983,-2.6983,-2.6983,-2.6983,-2.6983,-2.6983,-2.6983,-2.6983,-2.6983,-2.6983,-2.6983,-2.6983,-2.6983,-2.6983,-2.6983,-2.6983,-2.6983,-2.6983,-2.6983,-2.6983,-2.6983,-2.7027,-2.732,-2.757,-2.7614,-2.8223,-2.8477,-2.8687,-2.9321,-2.9883,-3.0264,-3.0623,-3.1055,-3.1395,-3.1395,-3.1395,-3.1395,-3.1395,-3.1395,-3.1395,-3.1395,-3.1533,-3.1686,-3.1686,-3.2876,-3.3902,-3.4203,-3.5402,-3.6885,-3.8516,-3.8806,-3.9241,-4.0719,-4.0882,-4.0882,-4.0882,-4.0882,-4.0882,-4.0882,-4.0882,-4.0882,-4.0882,-4.0882,-4.0882,-4.0882,-4.0882,-4.0882,-4.0882,-4.0882,-4.0882,-4.0882,-4.0882,-4.0882,-4.1025,-4.1025,-4.1025,-2.4797,-2.4636,0.0,0.0,0.0,0.0,-2.4636,-2.4636,-2.4636,0.0,0.0,0.0,0.0,0.0,0.0,0.0,0.0,0.0,0.0,0.0,0.0,0.0,0.0,0.0,0.0,0.0,-2.4252,-2.4717,-2.5251,-2.5564,-2.5622,-2.593,-2.6237,-2.65,-2.6559,-2.672,-2.6983,-2.6983,-2.6983,-2.6983,-2.6983,-2.6983,-2.6983,-2.6983,-2.6983,-2.6983,-2.6983,-2.6983,-2.6983,-2.6983,-2.6983,-2.6983,-2.6983,-2.6983,-2.6983,-2.6983,-2.6983,-2.6998,-2.7494,-2.7509,-2.7715,-2.8339,-2.8592,-2.8653,-2.9436,-2.9678,-2.9906,-3.0719,-3.1172,-3.1395,-3.1395,-3.1395,-3.1395,-3.1395,-3.1395,-3.1395,-3.1395,-3.2435,-3.3314,-3.3314,-3.3617,-3.4654,-3.7179,-3.7766,-3.8516,-4.0126,-4.0433,-4.0576,-4.0882,-4.0882,-4.0882,-4.0882,-4.0882,-4.0882,-4.0882,-4.0882,-4.0882,-4.0882,-4.0882,-4.0882,-4.0882,-4.0882,-4.0882,-4.0882,-4.0882,-4.0882,-4.0882,-4.0882,-4.1025,-4.1331,-4.1331,-4.1473,0.0,0.0,0.0,-2.4636,0.0,0.0,0.0,-2.4636,0.0,0.0,0.0,0.0,0.0,0.0,0.0,0.0,0.0,0.0,0.0,0.0,0.0,0.0,0.0,0.0,0.0,0.0,-2.4238,-2.4781,-2.5062,-2.5286,-2.5286,-2.5593,-2.5857,-2.6018,-2.6339,-2.6574,-2.6749,-2.691,-2.6983,-2.6983,-2.6983,-2.6983,-2.6983,-2.6983,-2.6983,-2.6983,-2.6983,-2.6983,-2.6983,-2.6983,-2.6983,-2.6983,-2.6983,-2.6983,-2.6983,-2.6983,-2.7129,-2.7274,-2.755,-2.7695,-2.787,-2.8473,-2.8681,-2.8742,-2.9524,-2.9891,-3.0096,-3.0759,-3.0982,-3.1172,-3.1347,-3.1395,-3.1395,-3.1395,-3.1395,-3.1686,-3.2435,-3.3163,-3.4203,-3.5849,-3.6127,-3.659,-3.8205,-3.9096,-3.9982,-4.074,-4.0882,-4.0882,-4.0882,-4.0882,-4.0882,-4.0882,-4.0882,-4.0882,-4.0882,-4.0882,-4.0882,-4.0882,-4.0882,-4.0882,-4.0882,-4.0882,-4.0882,-4.0882,-4.0882,-4.0882,-4.0882,-4.1025,-4.1188,-4.1188,-4.1188,-4.131,0.0,0.0,0.0,0.0,0.0,-2.4636,0.0,0.0,0.0,0.0,0.0,0.0,0.0,0.0,0.0,0.0,0.0,0.0,0.0,0.0,0.0,0.0,0.0,0.0,0.0,0.0,-2.4374,-2.5052,-2.5052,-2.5052,-2.5052,-2.5301,-2.5461,-2.5535,-2.6047,-2.6383,-2.65,-2.6764,-2.6925,-2.6983,-2.6983,-2.6983,-2.6983,-2.6983,-2.6983,-2.6983,-2.6983,-2.6983,-2.6983,-2.6983,-2.6983,-2.7129,-2.6983,-2.6983,-2.7129,-2.7129,-2.742,-2.7695,-2.784,-2.7985,-2.8274,-2.8707,-2.8851,-2.8898,-2.9486,-2.9949,-3.0283,-3.0585,-3.0712,-3.0839,-3.1188,-3.1284,-3.13,-3.1379,-3.1686,-3.2283,-3.3466,-3.4203,-3.5402,-3.8059,-3.8806,-3.8951,-3.8951,-3.9982,-4.0882,-4.0882,-4.0882,-4.0882,-4.0882,-4.0882,-4.0882,-4.0882,-4.0882,-4.0882,-4.0882,-4.0882,-4.0882,-4.0882,-4.0882,-4.0882,-4.0882,-4.0882,-4.0882,-4.0882,-4.0882,-4.0882,-4.0882,-4.1331,-4.1331,-4.1167,-4.1167,-4.1167,0.0,0.0,0.0,0.0,-2.5079,0.0,0.0,0.0,0.0,0.0,0.0,0.0,0.0,0.0,0.0,0.0,0.0,0.0,0.0,0.0,0.0,0.0,0.0,0.0,0.0,0.0,0.0,-2.5052,-2.5052,-2.5052,-2.5052,-2.5096,-2.5242,-2.552,-2.5608,-2.5915,-2.65,-2.6544,-2.6705,-2.6983,-2.6983,-2.6983,-2.6983,-2.6983,-2.6983,-2.6983,-2.6983,-2.6983,-2.6983,-2.6983,-2.7274,-2.755,-2.7129,-2.7274,-2.755,-2.755,-2.7695,-2.813,-2.8418,-2.8563,-2.8707,-2.9138,-2.9298,-2.9298,-2.9345,-2.96,-2.9886,-2.9933,-3.0156,-3.0458,-3.0823,-3.0918,-3.0998,-3.1315,-3.2435,-3.3617,-3.3768,-3.5979,-3.8059,-3.837,-3.9694,-4.0576,-4.0576,-4.074,-4.0882,-4.0882,-4.0882,-4.0882,-4.0882,-4.0882,-4.0882,-4.0882,-4.0882,-4.0882,-4.0882,-4.0882,-4.0882,-4.0882,-4.0882,-4.0882,-4.0882,-4.0882,-4.0882,-4.0882,-4.0882,-4.0882,-4.0882,-4.1331,-4.1615,-4.1877,-4.23,-4.2419,0.0,0.0,0.0,0.0,0.0,0.0,-2.4931,0.0,-2.4636,0.0,0.0,0.0,0.0,0.0,0.0,0.0,0.0,0.0,0.0,0.0,0.0,0.0,0.0,0.0,0.0,0.0,0.0,0.0,0.0,-2.5052,-2.5052,-2.5052,-2.511,-2.5242,-2.5432,-2.5666,-2.593,-2.631,-2.6574,-2.6705,-2.6896,-2.6983,-2.6983,-2.6983,-2.6983,-2.6983,-2.6983,-2.6983,-2.6983,-2.7274,-2.742,-2.755,-2.7565,-2.771,-2.784,-2.784,-2.813,-2.8418,-2.8707,-2.8851,-2.9138,-2.9298,-2.9298,-2.9298,-2.9298,-2.9409,-2.9568,-2.9774,-2.9917,-3.0108,-3.0458,-3.0696,-3.1189,-3.2241,-3.3162,-3.4354,-3.6127,-3.762,-3.8806,-3.9694,-4.0433,-4.0882,-4.0882,-4.0882,-4.0882,-4.0882,-4.0882,-4.0882,-4.0882,-4.0882,-4.0882,-4.0882,-4.0882,-4.0882,-4.0882,-4.0882,-4.0882,-4.0882,-4.0882,-4.0882,-4.0882,-4.0882,-4.0882,-4.0882,-4.0882,-4.0882,-4.0882,-4.1452,-4.1877,-4.2018,-4.2159,-4.2159,-2.6546,0.0,0.0,0.0,0.0,0.0,0.0,0.0,0.0,0.0,0.0,0.0,0.0,0.0,0.0,0.0,0.0,0.0,0.0,0.0,0.0,0.0,0.0,0.0,0.0,0.0,0.0,0.0,-2.5052,0.0,-2.5052,-2.5052,-2.5052,-2.5052,-2.5286,-2.5447,-2.5535,-2.6003,-2.6325,-2.65,-2.6749,-2.691,-2.6983,-2.6983,-2.6983,-2.6983,-2.6983,-2.6983,-2.7129,-2.7405,-2.7695,-2.7985,-2.813,-2.8274,-2.8434,-2.8274,-2.8563,-2.8851,-2.8851,-2.8995,-2.9298,-2.9298,-2.9298,-2.9298,-2.9298,-2.9298,-2.9345,-2.9615,-2.9679,-2.9904,-3.0518,-3.0956,-3.1614,-3.3327,-3.4214,-3.5519,-3.774,-3.8728,-3.955,-4.0719,-4.0882,-4.0882,-4.0882,-4.0882,-4.0882,-4.0882,-4.0882,-4.0882,-4.0882,-4.0882,-4.0882,-4.0882,-4.0882,-4.0882,-4.0882,-4.0882,-4.082,-4.0717,-4.0572,-4.051,-4.051,-4.051,-4.051,-4.051,-4.051,-4.051,-4.0651,-4.1355,-4.1635,-4.1775,-4.2171,-4.2159,0.0,0.0,0.0,-2.6546,0.0,0.0,0.0,0.0,-2.5226,0.0,0.0,0.0,0.0,0.0,-2.5468,-2.5884,0.0,0.0,0.0,0.0,0.0,0.0,0.0,0.0,0.0,0.0,0.0,-2.5052,-2.5052,0.0,-2.5052,-2.5052,-2.5052,-2.5052,-2.5066,-2.5213,-2.552,-2.5549,-2.5886,-2.65,-2.6515,-2.6691,-2.6983,-2.6983,-2.6983,-2.6983,-2.6983,-2.7274,-2.755,-2.755,-2.7985,-2.8707,-2.8691,-2.8851,-2.9154,-2.8851,-2.8995,-2.9298,-2.9298,-2.9298,-2.9298,-2.9298,-2.9298,-2.9298,-2.9298,-2.9298,-2.9298,-2.9314,-2.9314,-2.9665,-3.1431,-3.1963,-3.2498,-3.4288,-3.6274,-3.7728,-3.7728,-3.9372,-4.0882,-4.0882,-4.0882,-4.0882,-4.0882,-4.0882,-4.0882,-4.0882,-4.0882,-4.0882,-4.0882,-4.0882,-4.0882,-4.0882,-4.0882,-4.0882,-4.0882,-4.0882,-4.0696,-4.0282,-3.9827,-3.9578,-3.9578,-3.9578,-3.9578,-3.9578,-3.9578,-3.9716,-4.0129,-4.0541,-4.0814,-4.1223,-4.2587,-4.2883,0.0,0.0,-2.6983,-2.6838,0.0,0.0,0.0,0.0,0.0,0.0,0.0,0.0,0.0,0.0,-2.5456,-2.5896,-2.5499,-2.5077,0.0,0.0,0.0,0.0,0.0,0.0,0.0,0.0,0.0,-2.5052,-2.5052,-2.5052,0.0,-2.5052,-2.5052,-2.5052,-2.5052,-2.511,-2.5213,-2.5418,-2.5754,-2.6179,-2.6398,-2.6676,-2.6983,-2.6983,-2.6983,-2.6983,-2.7274,-2.7405,-2.7695,-2.813,-2.8403,-2.8707,-2.8995,-2.9154,-2.9298,-2.9154,-2.9154,-2.9298,-2.9298,-2.9298,-2.9298,-2.9298,-2.9298,-2.9298,-2.9298,-2.9298,-2.9298,-2.9298,-2.9298,-2.9601,-3.1253,-3.1885,-3.2663,-3.5341,-3.6688,-3.7724,-3.8748,-3.945,-4.0075,-4.0386,-4.0448,-4.0551,-4.082,-4.0882,-4.0882,-4.0882,-4.0882,-4.0882,-4.0882,-4.0882,-4.0758,-4.0489,-4.0448,-4.0323,-4.0013,-3.9992,-3.993,-3.9785,-3.962,-3.9537,-3.9537,-3.9537,-3.9537,-3.9537,-3.9813,-3.995,-4.0087,-4.0614,-4.1022,-4.1158,-4.1891,-4.2239,-2.6983,-2.6983,0.0,-2.6983,-2.6838,0.0,-2.6546,0.0,0.0,0.0,0.0,0.0,0.0,0.0,-2.5823,-2.5886,-2.5491,-2.5183,0.0,-2.5052,0.0,0.0,0.0,0.0,0.0,0.0,-2.4781,-2.5052,-2.5052,-2.5052,0.0,0.0,-2.5052,-2.5052,-2.5052,-2.5052,-2.5052,-2.5257,-2.552,-2.5842,-2.6179,-2.65,-2.6822,-2.7085,-2.7274,-2.7274,-2.7565,-2.784,-2.7985,-2.8563,-2.8851,-2.8995,-2.9154,-2.9298,-2.9298,-2.9298,-2.9298,-2.9298,-2.9298,-2.9298,-2.9298,-2.9298,-2.9298,-2.9298,-2.9298,-2.9298,-2.9329,-2.9457,-2.9808,-3.0425,-3.2086,-3.2914,-3.397,-3.6622,-3.7528,-3.8006,-3.9014,-3.9413,-3.962,-3.993,-3.9992,-4.0075,-4.0344,-4.0406,-4.0448,-4.0613,-4.0634,-4.0593,-4.0427,-4.0406,-4.0303,-4.0013,-3.9992,-3.9868,-3.9558,-3.9392,-3.9288,-3.9288,-3.9144,-3.9061,-3.9061,-3.9061,-3.9123,-3.9288,-3.9532,-3.9803,-3.9972,-4.0458,-4.0662,-4.0796,-4.1238,-4.1477]},{"header":{"parameterUnit":"m.s-1","parameterCategory":1,"la1":30.6,"la2":29.2853,"lo1":-89.7004,"lo2":-87.6739,"dy":0.0162,"dx":0.0183,"nx":112,"ny":82,"refTime":"2023-03-07T18:00:00:Z","depth":0,"parameterNumber":3,"parameterNumberName":"V-component_of_WINDS"},"data":[0.0,0.0,0.0,0.0,0.0,0.0,0.0,0.0,0.0,0.0,0.0,0.0,0.0,0.0,0.0,0.0,0.0,0.0,0.0,0.0,0.0,0.0,0.0,0.0,0.0,0.0,0.0,0.0,0.0,0.0,0.0,0.0,0.0,0.0,0.0,0.0,0.0,0.0,0.0,0.0,0.0,0.0,0.0,0.0,0.0,0.0,0.0,0.0,0.0,0.0,0.0,0.0,0.0,0.0,0.0,0.0,0.0,0.0,0.0,0.0,0.0,0.0,0.0,0.0,0.0,0.0,0.0,0.0,0.0,0.0,0.0,0.0,0.0,0.0,0.0,0.0,0.0,0.0,0.0,0.0,0.0,0.0,0.0,0.0,0.0,0.0,0.0,0.0,0.0,0.0,0.0,-6.4376,-6.6861,-6.849,-6.8506,-6.8431,-6.8383,-6.8396,0.0,0.0,0.0,0.0,0.0,0.0,0.0,0.0,0.0,0.0,0.0,0.0,0.0,0.0,0.0,0.0,0.0,0.0,0.0,0.0,0.0,0.0,0.0,0.0,0.0,0.0,0.0,0.0,0.0,0.0,0.0,0.0,0.0,0.0,0.0,0.0,0.0,0.0,0.0,0.0,0.0,0.0,0.0,0.0,0.0,0.0,0.0,0.0,0.0,0.0,0.0,0.0,0.0,0.0,0.0,0.0,0.0,0.0,0.0,0.0,0.0,0.0,0.0,0.0,0.0,0.0,0.0,0.0,0.0,0.0,0.0,0.0,0.0,0.0,0.0,0.0,0.0,0.0,0.0,0.0,0.0,0.0,0.0,0.0,0.0,0.0,0.0,0.0,0.0,0.0,0.0,0.0,0.0,0.0,0.0,0.0,0.0,0.0,0.0,0.0,0.0,0.0,0.0,0.0,-6.7246,-6.7704,-6.8198,-6.8494,-6.8467,-6.8047,-6.7825,-6.7811,0.0,0.0,0.0,0.0,0.0,0.0,0.0,0.0,0.0,0.0,0.0,0.0,0.0,0.0,0.0,0.0,0.0,0.0,0.0,0.0,0.0,0.0,0.0,0.0,0.0,0.0,0.0,0.0,0.0,0.0,0.0,0.0,0.0,0.0,0.0,0.0,0.0,0.0,0.0,0.0,0.0,0.0,0.0,0.0,0.0,0.0,0.0,0.0,0.0,0.0,0.0,0.0,0.0,0.0,0.0,0.0,0.0,0.0,0.0,0.0,0.0,0.0,0.0,0.0,0.0,0.0,0.0,0.0,0.0,0.0,0.0,0.0,0.0,0.0,0.0,0.0,0.0,0.0,0.0,0.0,0.0,0.0,0.0,0.0,0.0,0.0,0.0,0.0,0.0,0.0,0.0,0.0,0.0,0.0,0.0,0.0,0.0,0.0,0.0,0.0,0.0,0.0,0.0,-6.7714,-6.781,-6.8023,-6.8047,-6.8084,-6.8041,-6.7856,-6.7694,-6.7715,-6.7915,0.0,0.0,0.0,0.0,0.0,0.0,0.0,0.0,0.0,0.0,0.0,0.0,0.0,0.0,0.0,0.0,0.0,0.0,0.0,0.0,0.0,0.0,0.0,0.0,0.0,0.0,0.0,0.0,0.0,0.0,0.0,0.0,0.0,0.0,0.0,0.0,0.0,0.0,0.0,0.0,0.0,0.0,0.0,0.0,0.0,0.0,0.0,0.0,0.0,0.0,0.0,0.0,0.0,0.0,0.0,0.0,0.0,0.0,0.0,0.0,0.0,0.0,0.0,0.0,0.0,0.0,0.0,0.0,0.0,0.0,0.0,0.0,0.0,0.0,0.0,0.0,0.0,0.0,0.0,0.0,0.0,0.0,0.0,0.0,0.0,0.0,0.0,0.0,0.0,0.0,0.0,0.0,0.0,0.0,0.0,0.0,0.0,0.0,0.0,0.0,0.0,0.0,-6.8012,-6.8,-6.872,-6.883,-6.8505,-6.7757,-6.8015,-6.8419,-6.8823,-6.8512,0.0,0.0,0.0,0.0,0.0,0.0,0.0,0.0,0.0,0.0,0.0,0.0,0.0,0.0,0.0,0.0,0.0,0.0,0.0,0.0,0.0,0.0,0.0,0.0,0.0,0.0,0.0,0.0,0.0,0.0,0.0,0.0,0.0,0.0,0.0,0.0,0.0,0.0,0.0,0.0,0.0,0.0,0.0,0.0,0.0,0.0,0.0,0.0,0.0,0.0,0.0,0.0,0.0,0.0,0.0,0.0,0.0,0.0,0.0,0.0,0.0,0.0,0.0,0.0,0.0,0.0,0.0,0.0,0.0,0.0,0.0,0.0,0.0,0.0,0.0,0.0,0.0,0.0,0.0,0.0,0.0,0.0,0.0,0.0,0.0,0.0,0.0,0.0,0.0,0.0,0.0,0.0,0.0,0.0,0.0,0.0,0.0,0.0,0.0,0.0,0.0,0.0,-6.893,-6.8879,-7.1858,-7.2153,-7.0974,-6.7945,-6.91,-7.0588,-7.2079,-7.0772,0.0,0.0,0.0,0.0,0.0,0.0,0.0,0.0,0.0,0.0,0.0,0.0,0.0,0.0,0.0,0.0,0.0,0.0,0.0,0.0,0.0,0.0,0.0,0.0,0.0,0.0,0.0,0.0,0.0,0.0,0.0,0.0,0.0,0.0,0.0,0.0,0.0,0.0,0.0,0.0,0.0,0.0,0.0,0.0,0.0,0.0,0.0,0.0,0.0,0.0,0.0,0.0,0.0,0.0,0.0,0.0,0.0,0.0,0.0,0.0,0.0,0.0,0.0,0.0,0.0,0.0,0.0,0.0,0.0,0.0,0.0,0.0,0.0,0.0,0.0,0.0,0.0,0.0,0.0,0.0,0.0,0.0,0.0,0.0,0.0,0.0,0.0,0.0,0.0,0.0,0.0,0.0,0.0,0.0,0.0,0.0,0.0,0.0,0.0,0.0,0.0,0.0,-6.9953,-7.1183,0.0,-7.2484,-7.2024,-7.0809,-7.1213,-7.1876,-7.2448,0.0,0.0,0.0,0.0,0.0,0.0,0.0,0.0,0.0,0.0,0.0,0.0,0.0,0.0,0.0,0.0,0.0,0.0,0.0,0.0,0.0,0.0,0.0,0.0,0.0,0.0,0.0,0.0,0.0,0.0,0.0,0.0,0.0,0.0,0.0,0.0,0.0,0.0,0.0,0.0,0.0,0.0,0.0,0.0,0.0,0.0,0.0,0.0,0.0,0.0,0.0,0.0,0.0,0.0,0.0,0.0,0.0,0.0,0.0,0.0,0.0,0.0,0.0,0.0,0.0,0.0,0.0,0.0,0.0,0.0,0.0,0.0,0.0,0.0,0.0,0.0,0.0,0.0,0.0,0.0,0.0,0.0,0.0,0.0,0.0,0.0,0.0,0.0,0.0,0.0,0.0,0.0,0.0,0.0,0.0,0.0,0.0,0.0,0.0,0.0,0.0,0.0,-6.9265,-7.1152,-7.251,0.0,-7.2483,-7.2483,-7.2483,-7.2483,-7.2483,-7.2483,0.0,0.0,0.0,0.0,0.0,0.0,0.0,0.0,0.0,0.0,0.0,0.0,0.0,0.0,0.0,0.0,0.0,0.0,0.0,0.0,0.0,0.0,0.0,0.0,0.0,0.0,0.0,0.0,0.0,0.0,0.0,0.0,0.0,0.0,0.0,0.0,0.0,0.0,0.0,0.0,0.0,0.0,0.0,0.0,0.0,0.0,0.0,0.0,0.0,0.0,0.0,0.0,0.0,0.0,0.0,0.0,0.0,0.0,0.0,0.0,0.0,0.0,0.0,0.0,0.0,0.0,0.0,0.0,0.0,0.0,0.0,0.0,0.0,0.0,0.0,0.0,0.0,0.0,0.0,0.0,0.0,0.0,0.0,0.0,0.0,0.0,0.0,0.0,0.0,0.0,0.0,0.0,0.0,0.0,0.0,0.0,0.0,0.0,0.0,0.0,0.0,0.0,-7.2503,-7.2539,-7.2537,-7.2496,-7.2496,-7.2496,-7.2496,-7.2496,-7.2496,0.0,0.0,0.0,0.0,0.0,0.0,0.0,0.0,0.0,0.0,0.0,0.0,0.0,0.0,0.0,0.0,0.0,0.0,0.0,0.0,0.0,0.0,0.0,0.0,0.0,0.0,0.0,0.0,0.0,0.0,0.0,0.0,0.0,0.0,0.0,0.0,0.0,0.0,0.0,0.0,0.0,0.0,0.0,0.0,0.0,0.0,0.0,0.0,0.0,0.0,0.0,0.0,0.0,0.0,0.0,0.0,0.0,0.0,0.0,0.0,0.0,0.0,0.0,0.0,0.0,0.0,0.0,0.0,0.0,0.0,0.0,0.0,0.0,0.0,0.0,0.0,0.0,0.0,0.0,0.0,0.0,0.0,0.0,0.0,0.0,0.0,0.0,0.0,0.0,0.0,0.0,0.0,0.0,0.0,0.0,0.0,0.0,0.0,0.0,0.0,0.0,0.0,0.0,-7.2537,-7.2516,-7.2459,-7.2496,-7.2496,-7.2496,-7.2496,-7.2496,-7.2496,-7.2496,0.0,0.0,0.0,0.0,0.0,0.0,0.0,0.0,0.0,0.0,0.0,0.0,0.0,0.0,0.0,0.0,0.0,0.0,0.0,0.0,0.0,0.0,0.0,0.0,0.0,0.0,0.0,0.0,0.0,0.0,0.0,0.0,0.0,0.0,0.0,0.0,0.0,0.0,0.0,0.0,0.0,0.0,0.0,0.0,0.0,0.0,0.0,0.0,0.0,0.0,0.0,0.0,0.0,0.0,0.0,0.0,0.0,0.0,0.0,0.0,0.0,0.0,0.0,0.0,0.0,0.0,0.0,0.0,0.0,0.0,0.0,0.0,0.0,0.0,0.0,0.0,0.0,0.0,0.0,0.0,0.0,0.0,0.0,0.0,0.0,0.0,0.0,0.0,0.0,0.0,0.0,0.0,0.0,0.0,0.0,0.0,0.0,0.0,0.0,0.0,0.0,0.0,-7.2496,-7.2496,-7.2496,-7.2496,-7.2496,-7.2496,-7.2496,-7.2438,-7.238,-7.238,0.0,0.0,0.0,0.0,0.0,0.0,0.0,0.0,0.0,0.0,0.0,0.0,0.0,0.0,0.0,0.0,0.0,0.0,0.0,0.0,0.0,0.0,0.0,0.0,0.0,0.0,0.0,0.0,0.0,0.0,0.0,0.0,0.0,0.0,0.0,0.0,0.0,0.0,0.0,0.0,0.0,0.0,0.0,0.0,0.0,0.0,0.0,0.0,0.0,0.0,0.0,0.0,0.0,0.0,0.0,0.0,0.0,0.0,0.0,0.0,0.0,0.0,0.0,0.0,0.0,0.0,0.0,0.0,0.0,0.0,0.0,0.0,0.0,0.0,0.0,0.0,0.0,0.0,0.0,0.0,0.0,0.0,0.0,0.0,0.0,0.0,0.0,0.0,0.0,0.0,0.0,0.0,0.0,0.0,0.0,0.0,0.0,0.0,0.0,0.0,0.0,0.0,-7.2496,-7.2496,-7.2496,-7.2496,-7.2496,-7.2496,-7.2496,-7.2321,-7.2299,-7.2299,0.0,0.0,0.0,0.0,0.0,0.0,0.0,0.0,0.0,0.0,0.0,0.0,0.0,0.0,0.0,0.0,0.0,0.0,0.0,0.0,0.0,0.0,0.0,0.0,0.0,0.0,0.0,0.0,0.0,0.0,0.0,0.0,0.0,0.0,0.0,0.0,0.0,0.0,0.0,0.0,0.0,0.0,0.0,0.0,0.0,0.0,0.0,0.0,0.0,0.0,0.0,0.0,0.0,0.0,0.0,0.0,0.0,0.0,0.0,0.0,-6.4864,0.0,0.0,0.0,0.0,0.0,0.0,0.0,0.0,0.0,0.0,0.0,0.0,0.0,0.0,0.0,0.0,0.0,0.0,0.0,0.0,0.0,0.0,0.0,0.0,0.0,0.0,0.0,0.0,0.0,0.0,0.0,0.0,0.0,0.0,0.0,0.0,0.0,0.0,0.0,0.0,0.0,-7.2496,-7.2496,-7.2496,-7.2496,-7.2416,-7.2358,-7.2358,-7.2204,-7.2048,-7.2048,-7.1964,0.0,0.0,0.0,0.0,0.0,0.0,0.0,0.0,0.0,0.0,0.0,0.0,0.0,0.0,0.0,0.0,0.0,0.0,0.0,0.0,0.0,0.0,0.0,0.0,0.0,0.0,0.0,0.0,0.0,0.0,0.0,0.0,0.0,0.0,0.0,0.0,0.0,0.0,0.0,0.0,0.0,0.0,0.0,0.0,0.0,0.0,0.0,0.0,0.0,0.0,0.0,0.0,0.0,0.0,0.0,0.0,0.0,0.0,0.0,0.0,-6.5881,0.0,0.0,0.0,0.0,0.0,0.0,0.0,0.0,0.0,0.0,0.0,0.0,0.0,0.0,0.0,0.0,0.0,0.0,0.0,0.0,0.0,0.0,0.0,0.0,0.0,0.0,0.0,0.0,0.0,0.0,0.0,0.0,0.0,0.0,0.0,0.0,0.0,0.0,0.0,0.0,-7.2496,-7.2496,-7.2496,-7.238,-7.2358,-7.2299,-7.2144,-7.2024,-7.1903,-7.1903,-7.1842,0.0,0.0,0.0,0.0,0.0,0.0,0.0,0.0,0.0,0.0,0.0,0.0,0.0,0.0,0.0,0.0,0.0,0.0,0.0,0.0,0.0,0.0,0.0,0.0,0.0,0.0,0.0,0.0,0.0,0.0,0.0,0.0,0.0,0.0,0.0,0.0,0.0,0.0,0.0,0.0,0.0,0.0,0.0,0.0,0.0,0.0,0.0,0.0,0.0,0.0,0.0,0.0,0.0,0.0,-6.5928,-6.5874,-6.5905,-6.5919,-6.5895,-6.5909,-6.5923,-6.5897,0.0,0.0,0.0,0.0,0.0,0.0,0.0,0.0,0.0,0.0,0.0,0.0,0.0,0.0,0.0,0.0,0.0,0.0,0.0,0.0,0.0,0.0,0.0,0.0,0.0,-7.2519,-7.2496,0.0,0.0,0.0,0.0,0.0,0.0,0.0,0.0,0.0,0.0,0.0,0.0,-7.2496,-7.2496,-7.238,-7.2299,-7.224,-7.2181,-7.1964,-7.1842,-7.1718,-7.1718,-7.1718,-7.1656,0.0,0.0,0.0,0.0,0.0,0.0,0.0,0.0,0.0,0.0,0.0,0.0,0.0,0.0,0.0,0.0,0.0,0.0,0.0,0.0,0.0,0.0,0.0,0.0,0.0,0.0,0.0,0.0,0.0,0.0,0.0,0.0,-6.1686,-6.1694,0.0,0.0,0.0,0.0,0.0,0.0,0.0,0.0,0.0,0.0,0.0,0.0,0.0,0.0,-6.5356,-6.5789,-6.5996,-6.5884,-6.5884,-6.5884,-6.5884,-6.5884,-6.5923,-6.5923,-6.5897,0.0,-6.5897,-6.5897,0.0,0.0,0.0,0.0,0.0,0.0,0.0,0.0,0.0,0.0,0.0,0.0,0.0,0.0,0.0,0.0,0.0,0.0,0.0,0.0,0.0,0.0,-7.2516,-7.2463,-7.248,-7.2496,0.0,-7.2496,-7.2496,-7.2496,0.0,0.0,0.0,0.0,0.0,0.0,0.0,0.0,-7.2496,-7.238,-7.2358,-7.2299,-7.2061,-7.1878,-7.1816,-7.1656,-7.1494,-7.1494,-7.1494,-7.1494,-7.1494,-7.1494,0.0,0.0,0.0,0.0,0.0,0.0,0.0,0.0,0.0,0.0,0.0,0.0,0.0,0.0,0.0,0.0,0.0,0.0,0.0,0.0,0.0,0.0,0.0,0.0,0.0,0.0,0.0,0.0,0.0,-6.1701,-6.169,-6.1711,-6.1717,-6.1719,0.0,0.0,0.0,0.0,0.0,0.0,0.0,0.0,0.0,-6.6283,-6.6299,-6.614,-6.592,-6.5895,-6.5897,-6.5897,-6.5897,-6.5897,-6.591,-6.5923,-6.587,-6.5909,-6.5893,-6.6995,-6.8548,-6.6692,-6.5897,-6.6101,0.0,0.0,0.0,0.0,0.0,-7.0622,-7.0646,0.0,0.0,0.0,0.0,0.0,0.0,0.0,0.0,0.0,0.0,0.0,0.0,0.0,0.0,-7.2496,-7.2496,-7.2496,-7.2496,-7.2496,-7.2496,0.0,-7.2496,-7.2496,-7.2496,0.0,0.0,0.0,0.0,0.0,-7.2416,-7.2358,-7.224,-7.2061,-7.1878,-7.1718,-7.1656,-7.1557,-7.1494,-7.1494,-7.1494,-7.1494,-7.1494,-7.1494,-7.1494,0.0,0.0,0.0,0.0,0.0,0.0,0.0,0.0,0.0,0.0,0.0,0.0,0.0,0.0,0.0,0.0,0.0,0.0,0.0,0.0,0.0,0.0,0.0,0.0,0.0,0.0,0.0,0.0,-6.1711,-6.1707,-6.1718,-6.1717,-6.1716,0.0,0.0,0.0,0.0,0.0,0.0,-6.6742,-6.6824,-6.6524,-6.5907,-6.5912,-6.5919,-6.5908,-6.5919,-6.5897,-6.5897,-6.5872,-6.591,-6.5923,-6.678,-6.7138,-6.7044,-6.7065,-6.8445,-7.0604,-6.8175,-6.7187,-6.74,-6.9826,-7.0787,-7.0767,-7.0776,-7.0593,-7.0425,-7.0422,-6.9227,-6.7723,-6.7677,0.0,-6.8954,-6.8917,0.0,0.0,0.0,0.0,-7.2496,-7.2496,0.0,-7.2496,-7.2496,-7.2496,-7.2496,-7.2496,-7.2496,-7.2496,0.0,-7.2496,-7.2496,-7.2496,0.0,0.0,0.0,0.0,-7.238,-7.2204,-7.2204,-7.2061,-7.1816,-7.1718,-7.1656,-7.1494,-7.1494,-7.1494,-7.1494,-7.1494,-7.1494,-7.1494,-7.1494,-7.1494,-7.1494,0.0,0.0,0.0,0.0,0.0,0.0,0.0,0.0,0.0,0.0,0.0,0.0,0.0,0.0,0.0,0.0,0.0,0.0,0.0,0.0,0.0,0.0,0.0,0.0,0.0,0.0,0.0,0.0,0.0,-6.1719,-6.1704,0.0,0.0,0.0,0.0,-6.6288,-6.6522,-6.6605,-6.68,-6.6789,-6.651,-6.5926,-6.5887,-6.5897,-6.5884,-6.5897,-6.591,-6.591,-6.5923,-6.5897,-6.6012,-6.9194,-7.0464,-7.019,-7.0162,-7.0259,-7.0431,-7.0604,-7.0681,-7.0652,-7.0498,-7.0431,-7.0439,-7.0425,-7.0432,-7.0407,-7.0421,-6.9193,-6.7696,-6.7703,-6.9774,-7.2279,-7.2279,-7.2369,0.0,0.0,-7.2496,-7.2496,-7.2496,-7.2496,-7.2496,-7.2496,-7.2496,-7.2496,-7.2496,-7.2496,-7.2496,0.0,-7.2496,-7.2496,-7.2496,0.0,-7.2438,-7.2358,-7.2299,-7.2204,-7.2048,-7.1903,-7.1816,-7.1816,-7.1656,-7.1494,-7.1494,-7.1494,-7.1494,-7.1494,-7.1494,-7.1494,-7.1494,-7.1494,-7.1494,-7.1494,-7.1494,0.0,0.0,0.0,0.0,0.0,0.0,0.0,0.0,0.0,0.0,0.0,0.0,0.0,0.0,0.0,0.0,0.0,0.0,0.0,0.0,0.0,0.0,0.0,0.0,0.0,0.0,0.0,0.0,-6.4789,-6.5059,0.0,0.0,-6.4965,-6.5477,-6.6717,-6.6795,-6.6817,-6.6806,-6.6789,-6.6528,-6.5895,-6.5913,-6.591,-6.591,-6.5884,-6.6987,-6.9117,-6.9117,-6.9129,-6.9167,-7.0382,-7.0825,-7.069,-7.0494,-7.0394,-7.04,-7.0547,-7.0578,-7.057,-7.0455,-7.0394,-7.0407,-7.0413,-7.0419,-7.04,-7.0375,-7.1444,-7.2499,-7.1235,-7.1563,-7.2516,-7.2516,-7.2496,-7.2496,-7.2496,-7.2496,-7.2496,-7.2496,-7.2496,-7.2496,-7.2496,-7.2496,-7.2496,-7.2496,-7.2496,-7.2401,-7.2175,-7.2365,-7.2438,-7.2343,-7.2321,-7.2321,-7.2144,-7.2144,-7.2084,-7.1903,-7.1842,-7.1718,-7.1656,-7.1557,-7.1494,-7.1494,-7.1494,-7.1494,-7.1494,-7.1494,-7.1494,-7.1494,-7.1494,-7.1494,-7.1494,-7.1494,-7.1494,0.0,0.0,0.0,0.0,0.0,0.0,0.0,0.0,0.0,0.0,0.0,0.0,0.0,0.0,0.0,0.0,0.0,0.0,0.0,0.0,0.0,0.0,0.0,0.0,0.0,0.0,-6.4306,-6.66,-6.6887,-6.6852,-6.68,-6.6795,-6.6795,-6.6795,-6.6795,-6.6805,-6.679,-6.662,-6.6312,-6.5915,-6.5881,-6.6449,-6.759,-6.7602,-6.8679,-7.0887,-7.0925,-7.0898,-7.0882,-7.0911,-7.0823,-7.0716,-7.0483,-7.0381,-7.0386,-7.0386,-7.0419,-7.0375,-7.0407,-7.0381,-7.0544,-7.1718,-7.2138,-7.204,-7.1341,-7.259,-7.4272,-7.2926,-7.2516,-7.2496,-7.2496,-7.2496,-7.2496,-7.2496,-7.2496,-7.2496,-7.2496,-7.2496,-7.2496,-7.2496,-7.2496,-7.2496,-7.2496,-7.2328,-7.216,-7.2043,-7.2175,-7.2307,-7.2167,-7.2167,-7.2254,-7.2352,-7.2109,-7.1976,-7.218,-7.2154,-7.2055,-7.1929,-7.2146,-7.2327,-7.2327,-7.2327,-7.2327,-7.2327,-7.2074,-7.1893,-7.1893,-7.1893,-7.1893,-7.1893,-7.1893,-7.1784,-7.1494,0.0,0.0,0.0,0.0,0.0,0.0,0.0,0.0,0.0,0.0,0.0,0.0,0.0,0.0,0.0,0.0,0.0,0.0,0.0,0.0,0.0,0.0,0.0,-6.6917,-6.6891,-6.6859,-6.68,-6.6795,-6.6795,-6.6795,-6.6795,-6.6795,-6.6795,-6.6795,-6.6805,-6.679,-6.6217,-6.5967,-6.6049,-6.6049,-6.7641,-7.0875,-7.0914,-7.0898,-7.0892,-7.0863,-7.0873,-7.0861,-7.0861,-7.0716,-7.04,-7.04,-7.0451,-7.0577,-7.0548,-7.0548,-7.0548,-7.0544,-7.0544,-7.093,-7.4308,-7.5527,-7.5236,-7.3269,-7.2566,-7.2481,-7.2503,-7.2496,-7.2496,-7.2496,-7.2496,-7.2496,-7.2496,-7.2496,-7.2496,-7.2496,-7.2496,-7.2496,-7.2496,-7.2496,-7.2496,-7.2496,-7.1955,-7.1619,-7.1911,-7.1984,-7.2021,-7.1951,-7.1988,-7.2243,-7.3045,-7.2412,0.0,-7.287,-7.2853,-7.2762,-7.2762,-7.345,-7.3921,-7.3921,-7.3921,-7.3921,-7.3921,-7.3197,-7.2762,-7.2762,-7.2762,-7.2726,-7.2726,-7.269,-7.2291,-7.1494,0.0,0.0,0.0,0.0,0.0,0.0,0.0,0.0,0.0,0.0,0.0,0.0,0.0,0.0,0.0,0.0,0.0,0.0,0.0,0.0,0.0,0.0,-6.6844,-6.6834,-6.6839,-6.6805,-6.6795,-6.6795,-6.6795,-6.6795,-6.6795,-6.6795,-6.6795,-6.6783,-6.681,-6.679,-6.6228,-6.6999,-6.9456,-6.9514,-6.9975,-7.0909,-7.0882,-7.0902,-7.092,-7.0622,-7.0546,-7.0554,-7.054,-7.0508,-7.0369,-7.0386,-7.1833,-7.4117,-7.4117,-7.4083,-7.4087,-7.4083,-7.4083,-7.4201,-7.5115,-7.5475,-7.5393,-7.487,-7.3707,-7.2484,-7.2537,-7.2496,-7.2496,-7.2496,-7.2496,-7.2496,-7.2496,-7.2496,-7.2496,-7.2496,-7.2496,-7.2496,-7.2496,-7.2496,-7.2496,-7.2496,-7.1955,-7.156,-7.1865,-7.1745,-7.166,-7.1805,-7.1842,-7.1853,-7.1946,-7.221,0.0,-7.2753,-7.3233,-7.3595,-7.3595,-7.3776,-7.3921,-7.3921,-7.3921,-7.3921,-7.3921,-7.3704,-7.3595,-7.3595,-7.3595,-7.3305,-7.2726,-7.2146,-7.1712,0.0,0.0,0.0,0.0,0.0,0.0,0.0,0.0,0.0,0.0,0.0,0.0,0.0,0.0,0.0,0.0,0.0,0.0,0.0,0.0,0.0,0.0,-6.6795,-6.6795,-6.6795,-6.6795,-6.6795,-6.6795,-6.6795,-6.6795,-6.6795,-6.6795,-6.6795,-6.6795,-6.6798,-6.7316,-6.8475,-6.848,-6.9206,-7.083,-7.0902,-7.0882,-7.0892,-7.0758,-7.0699,-7.0685,-7.0494,-7.0425,-7.04,-7.0413,-7.1178,0.0,-7.2559,-7.3667,-7.5493,-7.5493,-7.5532,0.0,0.0,0.0,0.0,0.0,-7.498,-7.4233,-7.4244,-7.349,-7.2516,-7.252,-7.2496,-7.2496,-7.2496,-7.2496,-7.2496,-7.2496,-7.2496,-7.2496,-7.2496,-7.2496,-7.2496,-7.2496,-7.2496,-7.2401,-7.2123,-7.1874,-7.1719,-7.1721,0.0,0.0,-7.2091,-7.2164,-7.2273,-7.2599,-7.2971,-7.3342,-7.3732,-7.4203,-7.4428,-7.4428,-7.4718,-7.4899,-7.4899,-7.4899,0.0,0.0,0.0,-7.4428,-7.4428,-7.4428,0.0,0.0,0.0,-7.269,0.0,0.0,0.0,0.0,-7.1211,-7.1081,0.0,0.0,0.0,0.0,0.0,0.0,0.0,0.0,0.0,0.0,0.0,0.0,0.0,0.0,0.0,0.0,-6.6795,-6.6795,-6.6795,-6.6795,-6.6795,-6.6795,-6.6795,-6.6795,-6.6795,-6.6795,-6.6951,-6.7381,-6.737,-6.8444,-7.0883,0.0,0.0,0.0,0.0,-7.0902,-7.0834,-7.0546,-7.0386,-7.0407,-7.0789,-7.0986,-7.0968,-7.0968,-7.2601,-7.5489,-7.5493,-7.5497,-7.5497,-7.5497,-7.5501,-7.5501,-7.5497,-7.5497,-7.5501,-7.5506,-7.4368,0.0,0.0,0.0,0.0,-7.254,-7.2496,-7.2496,-7.2496,-7.2496,-7.2496,-7.2496,-7.2496,-7.2496,-7.2496,-7.2496,-7.2496,-7.2496,-7.2496,-7.2365,-7.1655,-7.1756,-7.183,-7.1598,-7.1557,-7.1857,-7.2581,-7.2726,-7.3043,-7.4006,-7.4058,-7.4385,-7.5241,-7.5255,-7.5261,-7.5261,0.0,0.0,-7.6275,-7.6275,-7.6275,-7.6275,-7.5623,-7.5261,-7.5261,-7.5152,-7.5116,-7.5116,-7.5044,-7.4283,-7.277,-7.2676,-7.2119,-7.1267,-7.1087,-7.0883,0.0,0.0,0.0,0.0,0.0,0.0,0.0,0.0,0.0,0.0,0.0,0.0,0.0,0.0,0.0,-6.6795,-6.6795,-6.6795,-6.6795,-6.6795,-6.6795,-6.6795,-6.6795,-6.6795,-6.6795,-6.6795,-6.7966,-7.0777,-7.0996,-7.1243,-7.1755,-7.1356,0.0,-7.0884,-7.0909,-7.0784,-7.0501,-7.0432,-7.0407,-7.0424,0.0,0.0,-7.4499,-7.4503,-7.4886,-7.5493,-7.5497,-7.5535,-7.5535,-7.5501,-7.5501,-7.5501,-7.5501,-7.5501,-7.5506,-7.5494,-7.5274,-7.4907,-7.4911,-7.3832,-7.2521,-7.248,-7.2496,-7.2496,-7.2496,-7.2496,0.0,-7.2496,-7.2496,-7.2496,-7.2496,-7.2496,-7.2496,-7.2496,-7.2511,-7.2395,-7.2007,-7.1769,-7.1635,-7.1744,-7.2164,-7.2545,-7.269,-7.2726,-7.2979,-7.3877,-7.4464,-7.4935,-7.5116,-7.5659,-7.6058,-7.6058,-7.6203,-7.6275,-7.6275,-7.6275,-7.6275,-7.6275,-7.613,-7.6058,-7.6058,-7.5442,-7.5116,-7.5116,-7.4464,-7.3928,-7.3507,-7.3308,-7.3033,-7.2681,-7.1426,-7.0718,0.0,0.0,0.0,0.0,0.0,0.0,0.0,0.0,0.0,0.0,0.0,-6.6795,0.0,0.0,-6.6795,-6.6795,-6.6795,-6.6795,-6.6795,-6.8318,-6.8747,-6.7029,-6.6795,-6.7498,-6.9215,-6.9411,-7.0113,-7.187,-7.1984,-7.2004,-7.2015,-7.1299,-7.0836,-7.0644,-7.0652,-7.0578,-7.04,-7.0413,-7.1259,-7.2979,-7.469,-7.5493,-7.5493,-7.5497,-7.5497,-7.5497,-7.5501,-7.5501,-7.5501,-7.5501,-7.5501,-7.5501,-7.5501,-7.5501,-7.5504,-7.5512,-7.4857,-7.3972,-7.4001,-7.3335,-7.251,-7.2483,-7.2496,-7.2496,-7.2496,-7.2496,-7.2496,-7.2496,-7.2496,-7.2496,-7.2496,-7.2496,-7.2496,-7.2496,-7.2511,-7.2321,-7.1852,-7.1599,-7.1551,-7.162,-7.2246,-7.2834,-7.3233,-7.3631,-7.4066,-7.4464,-7.5189,-7.5696,-7.5696,-7.6058,-7.6275,-7.6275,-7.6275,-7.6275,-7.6275,-7.6275,-7.6275,-7.6275,-7.6275,-7.6275,-7.6275,-7.5913,-7.5696,-7.5696,-7.5297,-7.4833,-7.4235,-7.4068,-7.3716,-7.3078,-7.2221,-7.1547,0.0,0.0,0.0,0.0,0.0,0.0,0.0,0.0,-6.6895,-6.68,-6.6795,-6.6795,-6.6795,-6.6795,-6.7029,-6.7693,-6.781,-6.781,-6.781,-7.023,-7.0972,-6.8122,-6.781,-6.8903,-7.1719,-7.1987,-7.2015,-7.2002,-7.1994,-7.1923,-7.1707,-7.1131,-7.0683,-7.0409,-7.04,-7.0713,-7.1363,-7.1379,-7.2754,-7.5497,-7.5497,-7.5497,-7.5501,-7.5501,-7.5501,-7.5501,-7.5501,-7.5501,-7.5501,-7.5501,-7.5501,-7.5501,-7.5501,-7.5501,-7.5501,-7.5506,-7.4482,-7.3118,-7.3086,-7.2828,-7.251,-7.2484,-7.2496,-7.2496,-7.2496,-7.2496,-7.2496,-7.2496,-7.2496,-7.2496,-7.2496,-7.2496,-7.2496,-7.2475,-7.2511,-7.2358,-7.1805,-7.1575,-7.1514,-7.1521,-7.2291,-7.316,-7.3921,-7.479,-7.5334,-7.5334,-7.5877,-7.6275,-7.6275,-7.6275,-7.6275,-7.6275,-7.6275,-7.6275,-7.6275,-7.6275,-7.6275,-7.6275,-7.6275,-7.6275,-7.6275,-7.6275,-7.6275,-7.6275,-7.6275,-7.5918,-7.4997,-7.486,-7.4398,-7.351,-7.319,-7.262,-6.6875,-6.6914,-6.6912,-6.6887,-6.6912,-6.6912,0.0,0.0,-6.6878,-6.6795,-6.6795,-6.6795,-6.6795,-6.6795,-6.781,-7.0894,-7.1407,-7.1402,-7.1402,-7.1753,-7.187,-7.1441,-7.1402,-7.1558,-7.1948,-7.2015,-7.2018,-7.2,-7.1991,-7.1598,-7.0637,-7.0516,-7.0448,-7.04,-7.0381,-7.1833,-7.4915,-7.4958,-7.5115,-7.5497,-7.5497,-7.5501,-7.5501,-7.5501,-7.5501,-7.5501,-7.5501,-7.5501,-7.5501,-7.5501,-7.5501,-7.5501,-7.5501,-7.5501,-7.5504,-7.5475,-7.5338,-7.5171,-7.5172,-7.3956,-7.252,-7.2516,-7.2496,-7.2496,-7.2496,-7.2496,-7.2496,-7.2496,-7.2496,-7.2496,-7.2496,-7.2496,-7.2475,-7.2468,-7.2459,-7.2449,-7.2376,-7.19,-7.1521,-7.1494,-7.2726,-7.3957,-7.4493,-7.5508,-7.6167,-7.6167,-7.6239,-7.6275,-7.6275,-7.6275,-7.6275,-7.6275,-7.6275,-7.6275,-7.6275,-7.6275,-7.6275,-7.6275,-7.6275,-7.6275,-7.6275,-7.6275,-7.6275,-7.6275,-7.6275,-7.614,-7.5654,-7.5654,-7.5406,-7.4939,-7.4225,-7.344,-6.6913,-6.6914,-6.6913,0.0,-6.6883,-6.6873,-6.6834,-6.6834,-6.6834,-6.6795,-6.6795,-6.742,-6.945,-6.984,-7.0309,0.0,-7.1987,-7.1987,-7.1987,-7.1987,-7.1987,-7.2015,-7.2015,-7.2015,-7.2015,-7.1993,-7.1983,-7.1887,-7.1364,-7.0874,-7.0435,-7.0414,-7.0412,-7.0386,-7.2329,-7.4045,-7.5493,-7.5497,-7.5497,-7.5497,-7.5501,-7.5501,-7.5501,-7.5501,-7.5501,-7.5501,-7.5501,-7.5501,-7.5501,-7.5501,-7.5501,-7.5501,-7.5501,-7.5501,-7.5501,-7.551,-7.5475,-7.5314,-7.416,-7.3193,-7.2503,-7.2539,-7.2496,-7.2496,-7.2496,-7.2496,-7.2496,-7.2496,-7.2496,-7.2496,-7.2496,-7.2496,-7.2532,-7.2511,-7.2189,-7.1902,-7.1927,-7.1707,-7.1485,-7.1494,-7.2517,-7.3675,-7.453,-7.5617,-7.6275,-7.6275,-7.6275,-7.6275,-7.6275,-7.6275,-7.6275,-7.6275,-7.6275,-7.6275,-7.6275,-7.6275,-7.6275,-7.6275,-7.6275,-7.6275,-7.6275,-7.6275,-7.6275,-7.6275,-7.6275,-7.6108,-7.5798,-7.5798,-7.5585,-7.5189,-7.4868,-7.4511,-6.6908,0.0,0.0,-6.6862,-6.6887,-6.6873,-6.6834,-6.6795,-6.7068,-6.8044,-6.8239,-6.902,-7.1519,-7.1987,-7.1987,-7.1987,-7.1987,-7.1987,-7.1987,-7.1987,-7.1982,-7.2008,-7.1963,-7.1955,-7.1948,-7.1944,-7.1809,-7.1443,-7.1663,-7.1507,-7.0838,-7.1426,-7.1827,-7.1803,-7.4201,-7.5497,-7.5497,-7.5497,-7.5501,-7.5501,-7.5501,-7.5501,-7.5501,-7.5501,-7.5501,-7.5501,-7.5501,-7.5501,-7.5501,-7.5501,-7.5501,-7.5501,-7.5501,-7.5501,-7.5501,-7.5501,-7.5504,-7.5285,-7.3829,-7.297,-7.2533,-7.2484,-7.2496,-7.2496,-7.2496,-7.2496,-7.2496,-7.2496,-7.2496,-7.2496,-7.2496,-7.2496,-7.2532,-7.249,-7.2116,-7.1719,-7.1539,-7.1526,-7.1511,-7.1494,-7.2372,-7.353,-7.4921,-7.5762,-7.6275,-7.6275,-7.6275,-7.6275,-7.6275,-7.6275,-7.6275,-7.6275,-7.6275,-7.6275,-7.6275,-7.6275,-7.6275,-7.6275,-7.6275,-7.6275,-7.6275,-7.6275,-7.6275,-7.6275,-7.6208,-7.6108,-7.5798,-7.5727,-7.5514,-7.5225,-7.5225,-7.5225,0.0,0.0,-6.6862,-6.6805,-6.6834,-6.6873,-6.6834,-6.6795,-6.7771,-7.1134,-7.1831,-7.187,-7.1987,-7.1987,-7.1987,-7.1987,-7.1987,-7.1987,-7.1987,-7.1987,-7.1982,-7.2008,-7.1909,-7.1807,0.0,-7.1819,-7.1446,-7.0525,-7.3485,-7.4316,-7.1898,-7.4044,-7.5374,-7.5344,-7.5421,-7.5497,-7.5501,-7.5501,-7.5501,-7.5501,-7.5501,-7.5501,-7.5501,-7.5501,-7.5501,-7.5501,-7.5501,-7.5501,-7.5501,-7.5501,-7.5501,-7.5501,-7.5501,-7.5501,-7.5501,-7.5501,-7.5513,-7.5463,-7.5449,-7.4137,-7.2473,-7.2483,-7.2496,-7.2496,-7.2496,-7.2496,-7.2496,-7.2496,-7.2496,-7.2496,-7.2496,-7.2496,-7.2511,-7.2473,-7.2449,-7.2316,-7.1593,-7.1494,-7.1494,-7.1494,-7.2372,-7.3747,-7.5887,-7.6264,-7.6275,-7.6275,-7.6275,-7.6275,-7.6275,-7.6275,-7.6275,-7.6275,-7.6275,-7.6275,-7.6275,-7.6275,-7.6275,-7.6275,-7.6275,-7.6275,-7.6275,-7.6275,-7.6275,-7.6275,-7.6072,-7.5971,-7.5798,-7.5585,-7.5406,-7.5225,-7.5225,-7.5225,0.0,0.0,-6.6883,-6.6839,-6.6834,-6.6873,-6.6834,-6.679,-6.7805,-7.1285,-7.1987,-7.1987,-7.1987,-7.1987,-7.1987,-7.1987,-7.1987,-7.1987,-7.1987,-7.2018,-7.1984,-7.2018,-7.1895,0.0,0.0,0.0,0.0,-7.3625,-7.4866,-7.5154,-7.4284,-7.5042,-7.5501,-7.5497,-7.5497,-7.5497,-7.5501,-7.5501,-7.5501,-7.5501,-7.5501,-7.5501,-7.5501,-7.5501,-7.5501,-7.5501,-7.5501,-7.5501,-7.5501,-7.5501,-7.5501,-7.5501,-7.5501,-7.5501,-7.5501,-7.5501,-7.5506,-7.5513,-7.5501,-7.4179,-7.2522,-7.2484,-7.2496,-7.2496,-7.2496,-7.2496,-7.2496,-7.2496,-7.2496,-7.2496,-7.2496,-7.2511,-7.2468,-7.2519,-7.2134,-7.1769,-7.1573,-7.1485,-7.1494,-7.1494,-7.1829,-7.2951,-7.5814,-7.5865,-7.5696,-7.6203,-7.6275,-7.6275,-7.6275,-7.6275,-7.6275,-7.6275,-7.6275,-7.6275,-7.6275,-7.6275,-7.6275,-7.6275,-7.6275,-7.6275,-7.6275,-7.6275,-7.6275,-7.6275,-7.6072,-7.5971,-7.5798,-7.5585,-7.5406,-7.5225,-7.4598,-7.4598,0.0,-6.7073,-6.7224,-6.6873,-6.6834,-6.6834,-6.679,-6.7766,-6.9288,-7.1558,-7.1987,-7.1987,-7.1987,-7.1987,-7.1987,-7.1987,-7.1987,-7.2015,-7.2018,-7.2014,-7.1866,-7.1466,-7.2432,0.0,0.0,0.0,0.0,-7.5348,-7.5491,-7.5505,-7.5515,-7.5472,-7.5507,-7.5535,-7.5501,-7.5501,-7.5501,-7.5501,-7.5501,-7.5501,-7.5501,-7.5501,-7.5501,-7.5501,-7.5501,-7.5501,-7.5501,-7.5501,-7.5501,-7.5501,-7.5501,-7.5501,-7.5501,-7.5501,-7.5501,-7.5501,-7.5501,-7.547,-7.5469,-7.416,-7.2491,-7.2503,-7.2496,-7.2496,-7.2496,-7.2496,-7.2496,-7.2496,-7.2496,-7.2496,-7.2511,-7.2526,-7.2446,-7.2217,-7.1794,-7.15,-7.1475,-7.1521,-7.1494,-7.1494,-7.1476,-7.2127,-7.4268,-7.4892,-7.537,-7.6167,-7.6275,-7.6275,-7.6275,-7.6275,-7.6275,-7.6275,-7.6275,-7.6275,-7.6275,-7.6275,-7.6275,-7.6275,-7.6275,-7.6275,-7.6275,-7.6275,-7.6275,-7.6208,-7.6039,-7.5832,-7.5727,-7.5478,-7.537,-7.5225,-7.4598,-7.4411,-6.6852,-6.7429,-6.7849,-6.7068,-6.6834,-6.679,-6.679,-6.9489,-7.1987,-7.1987,-7.1987,-7.1987,0.0,0.0,-7.1987,-7.1987,-7.2138,-7.2268,-7.225,-7.2199,-7.1809,0.0,0.0,0.0,0.0,0.0,0.0,-7.5505,0.0,-7.5485,-7.5485,-7.5513,-7.5501,-7.5501,-7.5501,-7.5501,-7.5501,-7.5501,-7.5501,-7.5501,-7.5501,-7.5501,-7.5501,-7.5501,-7.5501,-7.5501,-7.5501,-7.5501,-7.5501,-7.5501,-7.5501,-7.5501,-7.5501,-7.5501,-7.5501,-7.5501,-7.5501,-7.547,-7.5513,-7.4168,-7.2501,-7.2484,-7.2516,-7.2516,-7.2496,-7.2496,-7.2496,-7.2496,-7.2496,-7.2475,-7.2504,-7.2446,-7.2313,-7.166,-7.15,-7.1475,-7.1458,-7.1494,-7.1494,-7.1494,-7.1576,-7.1557,-7.1557,-7.3494,-7.5334,-7.613,-7.6239,-7.6239,-7.6275,-7.6275,-7.6275,-7.6275,-7.6275,-7.6275,-7.6275,-7.6275,-7.6275,-7.6275,-7.6275,-7.6275,-7.6275,-7.6275,-7.6208,-7.6003,-7.5868,-7.5727,-7.5478,-7.5262,-7.5225,-7.5225,-7.5116,-7.4598,-6.762,-6.7498,-6.7381,-6.7966,-6.7453,-6.679,-6.679,-6.9489,-7.1987,-7.1987,-7.1987,-7.1987,0.0,0.0,0.0,-7.1982,-7.4122,0.0,-7.5725,-7.5079,0.0,-7.4732,0.0,-7.5864,-7.5504,-7.5485,0.0,0.0,-7.5485,-7.5485,-7.5485,-7.5493,-7.5501,-7.5501,-7.5501,-7.5501,-7.5501,-7.5501,-7.5501,-7.5501,-7.5501,-7.5501,-7.5501,-7.5501,-7.5501,-7.5501,-7.5501,-7.5501,-7.5501,-7.5501,-7.5501,-7.5501,-7.5501,-7.5501,-7.5501,-7.5501,-7.5501,-7.5468,-7.5506,-7.4199,-7.251,-7.2495,-7.2516,-7.2482,-7.25,-7.2496,-7.2496,-7.2496,-7.2511,-7.2468,-7.2504,-7.2121,-7.1696,-7.1562,-7.1511,-7.1521,-7.1494,-7.1494,-7.1494,-7.1494,-7.2146,-7.2653,-7.2408,-7.3385,-7.45,-7.5297,-7.5406,-7.5623,-7.6203,-7.6275,-7.6275,-7.6275,-7.6275,-7.6275,-7.6275,-7.6275,-7.6275,-7.6275,-7.6275,-7.6275,-7.6275,-7.6275,-7.6208,-7.6003,-7.5868,-7.5727,-7.5478,-7.5262,-7.5225,-7.5189,-7.3834,-7.3402,-6.8044,-6.8161,-6.7966,-6.7844,-6.8429,-6.9093,-6.9093,-7.0582,-7.1987,-7.1987,-7.1987,0.0,0.0,0.0,0.0,0.0,0.0,0.0,-7.643,-7.6038,-7.5838,0.0,-7.5877,0.0,-7.5515,-7.5511,-7.5474,0.0,-7.5501,-7.5501,-7.5501,-7.5501,-7.5501,-7.5501,-7.5501,-7.5501,-7.5501,-7.5501,-7.5501,-7.5501,-7.5501,-7.5501,-7.5501,-7.5501,-7.5501,-7.5501,0.0,-7.5501,-7.5501,-7.5501,-7.5501,-7.5501,-7.5501,-7.5501,-7.5501,-7.5501,-7.5501,-7.5465,-7.5513,-7.4752,-7.3797,-7.3826,-7.3224,-7.251,-7.252,-7.2496,-7.2496,-7.2496,-7.249,-7.2409,-7.2108,-7.1818,-7.15,-7.1511,-7.1521,-7.1494,-7.1494,-7.1494,-7.1494,-7.1494,-7.1965,-7.2436,-7.269,-7.3088,-7.3667,-7.4464,-7.4573,-7.4863,-7.5659,-7.6094,-7.6275,-7.6275,-7.6275,-7.6275,-7.6275,-7.6275,-7.6275,-7.6275,-7.6275,-7.6275,-7.6275,-7.6208,-7.6108,-7.5901,-7.5798,-7.5585,-7.5334,-7.5297,-7.5225,-7.5189,-7.3756,-7.3125,-6.8429,-6.8859,-6.8781,-6.7766,-6.9762,-7.1987,-7.1987,-7.1987,-7.1987,-7.1987,0.0,-7.3582,-7.6555,-7.7056,-7.705,-7.7101,0.0,-7.6621,-7.576,-7.5934,-7.5971,-7.561,-7.5494,-7.5503,-7.5503,-7.548,-7.5501,-7.5501,-7.5501,-7.5501,-7.5501,-7.5501,-7.5501,-7.5501,-7.5501,-7.5501,-7.5501,-7.5501,-7.5501,-7.5501,-7.5501,-7.5501,-7.5501,-7.5501,-7.5501,-7.5501,0.0,0.0,-7.5501,-7.5501,-7.5501,-7.5501,-7.5501,-7.5501,-7.5501,-7.5501,-7.5501,-7.5501,-7.5501,-7.5501,-7.5435,-7.5154,-7.3899,-7.2489,-7.2483,-7.2496,-7.2496,-7.2438,-7.2416,-7.224,-7.1636,-7.1453,-7.1475,-7.1458,-7.1494,-7.1494,-7.1494,-7.1494,-7.1494,-7.1494,-7.1494,-7.1712,-7.2436,-7.2545,-7.2834,-7.3631,-7.374,-7.403,-7.4863,-7.5659,-7.6167,-7.6275,-7.6275,-7.6275,-7.6275,-7.6275,-7.6275,-7.6275,-7.6275,-7.6275,-7.6275,-7.6072,-7.5971,-7.5798,-7.5585,-7.5406,-7.5225,-7.5042,-7.5042,-7.4968,-7.3913,-7.3078,-6.921,-6.8273,-6.7883,-7.0465,-7.1558,-7.1987,-7.1987,-7.1987,0.0,0.0,-7.42,-7.6347,-7.6984,-7.6878,0.0,-7.705,0.0,0.0,0.0,0.0,-7.5666,0.0,0.0,0.0,0.0,0.0,0.0,0.0,0.0,0.0,-7.5501,-7.5501,-7.5501,-7.5501,-7.5501,-7.5501,-7.5501,-7.5501,-7.5501,-7.5501,-7.5501,-7.5501,-7.5501,-7.5501,-7.5501,-7.5501,0.0,0.0,-7.5501,-7.5501,-7.5501,-7.5501,-7.5501,-7.5501,-7.5501,-7.5501,-7.5501,-7.5501,-7.5501,-7.5501,-7.5205,-7.3552,-7.2763,-7.2507,-7.2484,-7.2496,-7.2401,-7.2175,-7.1888,-7.1636,-7.1551,-7.1475,-7.1458,-7.1494,-7.1494,-7.1494,-7.1494,-7.1494,-7.1494,-7.1494,-7.1494,-7.1531,-7.1675,-7.1712,-7.2001,-7.2798,-7.2907,-7.3197,-7.403,-7.4826,-7.5551,-7.6239,-7.6275,-7.6275,-7.6275,-7.6275,-7.6275,-7.6275,-7.6275,-7.6275,-7.6275,-7.6072,-7.5971,-7.5798,-7.5585,-7.5406,-7.5225,-7.4411,-7.4068,-7.3991,-7.2414,-7.162,-7.027,-7.0152,-6.9907,-7.1589,-7.201,-7.1993,-7.2011,0.0,0.0,0.0,-7.5468,-7.6287,-7.6593,0.0,0.0,0.0,0.0,0.0,0.0,0.0,0.0,0.0,0.0,0.0,0.0,0.0,0.0,0.0,0.0,0.0,-7.5501,-7.5501,-7.5501,-7.5501,-7.5501,-7.5501,-7.5501,-7.5501,-7.5501,-7.5501,-7.5501,-7.5501,-7.5501,-7.5501,-7.5501,-7.5501,-7.5501,0.0,-7.5501,-7.5501,-7.5501,-7.5501,-7.5501,-7.5501,-7.5501,-7.5501,-7.5501,-7.5427,-7.4866,-7.4714,-7.4485,-7.297,-7.2481,-7.2491,-7.2503,-7.2496,-7.2401,-7.208,-7.1756,-7.1466,-7.1526,-7.1511,-7.1494,-7.1494,-7.1494,-7.1494,-7.1494,-7.1494,-7.1494,-7.1494,-7.1494,-7.1494,-7.1494,-7.1494,-7.1639,-7.2038,-7.2074,-7.2364,-7.3197,-7.3631,-7.4175,-7.4971,-7.5442,-7.5696,-7.5696,-7.6058,-7.6275,-7.6275,-7.6275,-7.6208,-7.614,-7.5971,-7.5832,-7.5657,-7.5442,-7.5297,-7.5225,-7.4258,-7.3799,-7.3721,-7.2022,-7.121,-7.1267,-7.2008,-7.1987,-7.2,-7.1899,-7.1939,-7.2585,-7.275,0.0,0.0,-7.6125,-7.5721,-7.5999,0.0,0.0,0.0,0.0,0.0,0.0,0.0,0.0,0.0,0.0,0.0,0.0,0.0,0.0,0.0,0.0,0.0,0.0,-7.5501,-7.5501,-7.5501,-7.5501,-7.5501,-7.5501,-7.5501,-7.5501,-7.5501,-7.5501,-7.5501,-7.5501,-7.5501,-7.5501,-7.5501,-7.5501,0.0,0.0,-7.5501,-7.5501,-7.5501,-7.5501,-7.5501,-7.5501,-7.5501,-7.5427,-7.5243,-7.4446,-7.4093,-7.3846,-7.2957,-7.2572,-7.2496,-7.2484,-7.2496,-7.2343,-7.2116,-7.1732,-7.1478,-7.15,-7.1485,-7.1494,-7.1494,-7.1494,-7.1494,-7.1494,-7.1494,-7.1494,-7.1494,-7.1494,-7.1494,-7.1494,-7.1494,-7.1494,-7.1494,-7.1494,-7.1748,-7.2364,-7.2436,-7.269,-7.3342,-7.4283,-7.4863,-7.4863,-7.5442,-7.5768,-7.5768,-7.5949,-7.5954,-7.5751,-7.576,-7.5727,-7.5478,-7.508,-7.4858,-7.4858,-7.3756,-7.3241,-7.3241,-7.1586,-7.094,-7.1897,-7.1994,-7.2,-7.2025,-7.1497,-7.1753,-7.4554,0.0,0.0,-7.5566,-7.5816,-7.5851,-7.5604,-7.5809,-7.6019,0.0,0.0,-7.5679,0.0,0.0,0.0,0.0,0.0,0.0,0.0,0.0,0.0,0.0,0.0,0.0,0.0,-7.5501,-7.5501,-7.5501,-7.5501,-7.5501,-7.5501,-7.5501,-7.5501,-7.5501,-7.5501,-7.5501,-7.5501,-7.5501,-7.5501,-7.5501,0.0,0.0,0.0,-7.5501,-7.5501,-7.5501,-7.5501,-7.5501,-7.5501,-7.5501,-7.517,-7.4786,-7.4667,-7.4379,-7.3934,-7.3429,-7.2889,-7.2489,-7.2483,-7.2343,-7.2226,-7.2011,-7.1757,-7.15,-7.1521,-7.1494,-7.1494,-7.1494,-7.1494,-7.1494,-7.1494,-7.1494,-7.1494,-7.1494,-7.1494,-7.1494,-7.1494,-7.1494,-7.1494,-7.1494,-7.1494,-7.1531,-7.1603,-7.1603,-7.1639,-7.1712,-7.3088,-7.403,-7.403,-7.4102,-7.4138,-7.4138,-7.4826,-7.5158,-7.4921,-7.5472,-7.5727,-7.5478,-7.4487,-7.3878,-7.3878,-7.2244,-7.1444,-7.1444,-7.0389,-6.9988,-7.2011,-7.168,-7.1816,-7.3898,-7.3354,-7.2921,-7.5233,0.0,0.0,-7.5503,-7.5617,-7.5736,-7.5735,-7.5745,-7.5718,-7.5716,0.0,0.0,0.0,0.0,0.0,0.0,0.0,0.0,0.0,0.0,0.0,0.0,0.0,0.0,0.0,-7.5501,-7.5501,-7.5501,-7.5501,-7.5501,-7.5501,-7.5501,-7.5501,-7.5501,-7.5501,-7.5501,-7.5501,-7.5501,-7.5501,-7.5501,0.0,0.0,0.0,-7.5501,-7.5281,-7.5019,-7.5019,-7.5019,-7.498,-7.4702,-7.4623,-7.4623,-7.4018,-7.3725,-7.3516,-7.298,-7.2632,-7.2409,-7.2401,-7.2321,-7.2204,-7.1964,-7.1805,-7.1646,-7.1557,-7.1494,-7.1494,-7.1494,-7.1494,-7.1494,-7.1494,-7.1494,-7.1494,-7.1494,-7.1494,-7.1494,-7.1494,-7.1494,-7.1494,-7.1494,-7.1494,-7.1494,-7.1494,-7.1494,-7.1494,-7.1494,-7.2509,-7.3197,-7.3197,-7.3631,-7.3921,-7.3921,-7.4079,-7.4163,-7.3992,-7.4111,-7.4045,-7.3904,-7.2922,-7.2676,-7.3132,-7.1422,-7.0737,-7.121,-7.0236,-6.9798,-7.1714,-7.2041,-7.2987,-7.5392,-7.4963,-7.4294,0.0,0.0,0.0,-7.5503,-7.5507,-7.5566,-7.5756,-7.5633,-7.5501,-7.5501,0.0,-7.5501,0.0,0.0,0.0,0.0,0.0,0.0,0.0,0.0,0.0,0.0,0.0,0.0,0.0,-7.5501,-7.5501,-7.5501,-7.5501,-7.5501,-7.5501,-7.5501,-7.5501,-7.5501,-7.5501,-7.5501,-7.5501,-7.5501,-7.5501,-7.5501,0.0,0.0,0.0,-7.5281,-7.4942,-7.446,-7.446,-7.446,-7.4417,-7.4109,-7.4109,-7.4154,-7.3516,-7.3141,-7.2926,-7.2553,-7.2321,-7.2204,-7.2144,-7.2181,-7.2121,-7.1878,-7.1755,-7.1656,-7.1531,-7.1494,-7.1494,-7.1494,-7.1494,-7.1494,-7.1494,-7.1494,-7.1494,-7.1494,-7.1494,-7.1494,-7.1494,-7.1494,-7.1494,-7.1494,-7.1494,-7.1494,-7.1494,-7.1494,-7.1494,-7.1494,-7.2001,-7.2364,-7.2364,-7.2806,-7.3132,-7.3132,-7.3188,-7.32,-7.2961,-7.2831,-7.262,-7.2477,-7.1364,-7.1097,-7.1618,-7.007,-6.9581,-7.0119,-6.971,-6.9599,-7.1102,-7.3364,-7.5933,-7.5964,-7.5822,-7.5695,0.0,0.0,-7.5489,-7.5497,-7.5501,-7.5501,-7.5501,-7.5501,-7.5501,-7.5501,-7.5501,0.0,0.0,0.0,0.0,0.0,0.0,0.0,0.0,0.0,0.0,0.0,0.0,0.0,0.0,0.0,-7.5501,-7.5501,-7.5501,-7.5501,-7.5501,-7.5501,-7.5501,-7.5501,-7.5501,-7.5501,-7.5501,-7.5501,-7.5501,0.0,0.0,0.0,0.0,-7.4705,-7.4417,-7.4009,-7.4009,-7.4009,-7.4009,-7.4009,-7.3677,-7.3298,-7.3298,-7.2853,-7.2299,-7.2299,-7.2144,-7.1988,-7.1842,-7.1816,-7.1816,-7.1816,-7.1656,-7.1494,-7.1494,-7.1494,-7.1494,-7.1494,-7.1494,-7.1494,-7.1494,-7.1494,-7.1494,-7.1494,-7.1494,-7.1494,-7.1494,-7.1494,-7.1494,-7.1494,-7.1494,-7.1494,-7.1494,-7.1494,-7.1494,-7.1494,-7.1531,-7.1531,-7.1531,-7.1404,-7.1312,-7.1312,-7.1903,-7.2135,-7.1932,-7.1871,-7.1854,-7.1628,-6.9928,-6.903,-6.903,-6.8035,-6.7645,-6.7678,-6.8374,-6.9103,-7.444,-7.4552,-7.4907,-7.5668,-7.5288,-7.49,-7.5551,0.0,-7.5497,-7.5501,-7.5501,-7.5501,-7.5501,-7.5501,-7.5501,-7.5501,-7.5501,0.0,0.0,0.0,0.0,0.0,0.0,0.0,0.0,0.0,0.0,0.0,0.0,0.0,0.0,0.0,-7.5501,-7.5501,-7.5501,-7.5501,-7.5501,-7.5501,-7.5501,-7.5501,-7.5132,-7.4942,-7.4942,-7.4623,0.0,0.0,0.0,0.0,0.0,-7.4199,-7.3963,-7.3516,-7.3516,-7.3516,-7.3466,-7.3104,-7.3141,-7.3246,-7.2798,-7.2496,-7.2299,-7.2144,-7.2024,-7.1842,-7.178,-7.1816,-7.1816,-7.1656,-7.1557,-7.1494,-7.1494,-7.1494,-7.1494,-7.1494,-7.1494,-7.1494,-7.1494,-7.1494,-7.1494,-7.1494,-7.1494,-7.1494,-7.1494,-7.1494,-7.1494,-7.1494,-7.1494,-7.1494,-7.1494,-7.1494,-7.1494,-7.1494,-7.1404,-7.134,-7.134,-7.134,-7.1211,-7.111,-7.1201,-7.1211,-7.1144,-7.0451,-7.0012,-6.9972,-6.8267,-6.7658,-6.8166,-6.7268,-6.7148,-6.7645,-6.7844,-6.8076,0.0,-7.5302,-7.4866,-7.5557,-7.5271,0.0,0.0,0.0,0.0,-7.5501,-7.5501,-7.5501,-7.5501,-7.5501,-7.5501,-7.5501,-7.5501,0.0,0.0,0.0,0.0,0.0,0.0,0.0,0.0,0.0,0.0,0.0,0.0,0.0,0.0,0.0,-7.5501,-7.5501,-7.5501,-7.5501,-7.5501,-7.5281,-7.5208,-7.517,-7.4664,-7.4417,-7.4417,-7.4109,0.0,0.0,0.0,0.0,0.0,-7.3725,-7.3466,-7.3017,-7.3017,-7.3017,-7.2963,-7.2553,-7.2667,-7.2853,-7.238,-7.2144,-7.2084,-7.1964,-7.1842,-7.1656,-7.1656,-7.1656,-7.1656,-7.1531,-7.1494,-7.1494,-7.1494,-7.1494,-7.1494,-7.1494,-7.1494,-7.1494,-7.1494,-7.1494,-7.1494,-7.1494,-7.1494,-7.1494,-7.1494,-7.1494,-7.1494,-7.1494,-7.1494,-7.1494,-7.1494,-7.1494,-7.1494,-7.1467,-7.134,-7.1211,-7.1117,-7.1117,-7.1051,-7.0949,-7.0785,-7.0582,-7.0166,-6.9235,-6.86,-6.8258,-6.6928,-6.6436,-6.6906,-6.6357,-6.6485,-6.7214,-6.7214,-6.7347,0.0,0.0,0.0,0.0,0.0,0.0,0.0,0.0,0.0,0.0,0.0,0.0,-7.5501,-7.5501,-7.5501,-7.5501,0.0,0.0,0.0,0.0,0.0,0.0,0.0,0.0,0.0,0.0,0.0,0.0,0.0,0.0,0.0,0.0,-7.5427,-7.5427,-7.5392,-7.5392,-7.5427,-7.4903,-7.4664,-7.4664,-7.4154,-7.3963,-7.3963,-7.3916,0.0,0.0,0.0,0.0,0.0,-7.3246,-7.2963,-7.2496,-7.2496,-7.2496,-7.2438,-7.2321,-7.2299,-7.2263,-7.2048,-7.1903,-7.1816,-7.1816,-7.1656,-7.1494,-7.1494,-7.1494,-7.1494,-7.1494,-7.1494,-7.1494,-7.1494,-7.1494,-7.1494,-7.1494,-7.1494,-7.1494,-7.1494,-7.1494,-7.1494,-7.1494,-7.1494,-7.1494,-7.1494,-7.1494,-7.1494,-7.1494,-7.1494,-7.1494,-7.1494,-7.1494,-7.1467,-7.1276,-7.1276,-7.1182,-7.0821,-7.0821,-7.0785,-7.0785,-7.0582,-7.0096,-6.9235,-6.8447,-6.7582,-6.6711,-6.5801,-6.5425,-6.5425,-6.5425,-6.5757,-6.6452,-6.6452,-6.6817,-7.5532,0.0,-7.5633,-7.5633,-7.5566,-7.5497,0.0,0.0,0.0,0.0,0.0,0.0,0.0,0.0,0.0,0.0,0.0,0.0,0.0,0.0,0.0,0.0,0.0,0.0,0.0,0.0,0.0,0.0,0.0,0.0,0.0,0.0,-7.4903,-7.4903,-7.454,-7.454,-7.4903,-7.4412,-7.4154,-7.4154,-7.3677,-7.3466,-7.3466,-7.3034,0.0,0.0,0.0,0.0,-7.2723,-7.2723,-7.2553,-7.2358,-7.2358,-7.2263,-7.2108,-7.2048,-7.2048,-7.2048,-7.1903,-7.1816,-7.178,-7.1656,-7.1494,-7.1494,-7.1494,-7.1494,-7.1494,-7.1494,-7.1494,-7.1494,-7.1494,-7.1494,-7.1494,-7.1494,-7.1494,-7.1494,-7.1494,-7.1494,-7.1494,-7.1494,-7.1494,-7.1494,-7.1494,-7.1494,-7.1494,-7.1494,-7.1494,-7.1494,-7.1494,-7.1404,-7.134,-7.1276,-7.1051,-7.0852,-7.0821,-7.0821,-7.0718,-7.0582,-7.0514,-7.0096,-6.9235,-6.8447,-6.7582,-6.6711,-6.5801,-6.5425,-6.5425,-6.5425,-6.5492,-6.5657,-6.5657,-6.5757,-7.5501,-7.5535,-7.5532,-7.5532,-7.5535,-7.5501,-7.5501,0.0,0.0,0.0,0.0,0.0,0.0,0.0,0.0,0.0,0.0,0.0,0.0,0.0,0.0,0.0,0.0,0.0,0.0,0.0,0.0,0.0,0.0,0.0,0.0,0.0,-7.4374,-7.4374,-7.3916,-7.3916,-7.4374,-7.3916,-7.3677,-7.3677,-7.3193,-7.2963,-7.2908,-7.2667,0.0,0.0,0.0,0.0,-7.2496,-7.2438,-7.2358,-7.2299,-7.2204,-7.2084,-7.1988,-7.1964,-7.1903,-7.1903,-7.1718,-7.1656,-7.1656,-7.1531,-7.1494,-7.1494,-7.1494,-7.1494,-7.1494,-7.1494,-7.1494,-7.1494,-7.1494,-7.1494,-7.1494,-7.1494,-7.1494,-7.1494,-7.1494,-7.1494,-7.1494,-7.1494,-7.1494,-7.1494,-7.1494,-7.1494,-7.1494,-7.1494,-7.1494,-7.1494,-7.1494,-7.1404,-7.1276,-7.1146,-7.0919,-7.0718,-7.065,-7.065,-7.041,-6.9956,-6.992,-6.9382,-6.8102,-6.7662,-6.701,-6.6148,-6.5658,-6.5425,-6.5425,-6.5425,-6.5425,-6.5425,-6.5425,-6.5425,-7.5501,-7.5501,-7.5501,-7.5501,-7.5501,-7.5501,-7.5501,0.0,0.0,0.0,0.0,0.0,0.0,0.0,0.0,0.0,0.0,0.0,0.0,0.0,0.0,0.0,0.0,0.0,0.0,0.0,0.0,0.0,0.0,0.0,0.0,0.0,0.0,-7.3916,-7.3415,-7.3364,-7.3774,-7.3364,-7.3193,-7.3193,-7.2686,-7.2496,-7.2496,-7.2496,-7.2496,0.0,0.0,0.0,-7.2438,-7.2263,-7.2204,-7.224,-7.2024,-7.1927,-7.1927,-7.178,-7.1718,-7.1718,-7.1593,-7.1494,-7.1494,-7.1494,-7.1494,-7.1494,-7.1494,-7.1494,-7.1494,-7.1494,-7.1494,-7.1494,-7.1494,-7.1494,-7.1494,-7.1494,-7.1494,-7.1494,-7.1494,-7.1494,-7.1494,-7.1494,-7.1494,-7.1494,-7.1494,-7.1494,-7.1494,-7.1494,-7.1494,-7.1494,-7.1431,-7.134,-7.1211,-7.1015,-7.0852,-7.065,-7.0514,-7.0341,-6.9956,-6.9052,-6.9126,-6.8447,-6.6761,-6.6542,-6.6148,-6.5392,-6.5425,-6.5425,-6.5425,-6.5425,-6.5425,-6.5425,-6.5425,-6.5425,-7.5501,-7.5501,-7.5501,-7.5501,-7.5501,-7.5501,-7.5501,0.0,0.0,0.0,0.0,0.0,0.0,0.0,0.0,0.0,0.0,0.0,0.0,0.0,0.0,0.0,0.0,0.0,0.0,0.0,0.0,0.0,0.0,0.0,0.0,0.0,0.0,-7.3415,-7.2908,-7.263,-7.2742,-7.263,-7.261,-7.261,-7.2553,-7.2496,-7.2496,-7.2496,-7.2438,0.0,0.0,-7.2204,-7.2048,-7.2048,-7.1964,-7.1878,-7.1842,-7.1718,-7.1557,-7.1557,-7.1593,-7.1494,-7.1494,-7.1494,-7.1494,-7.1494,-7.1494,-7.1494,-7.1494,-7.1494,-7.1494,-7.1494,-7.1494,-7.1494,-7.1494,-7.1494,-7.1494,-7.1494,-7.1494,-7.1494,-7.1494,-7.1494,-7.1494,-7.1494,-7.1494,-7.1494,-7.1494,-7.1494,-7.1494,-7.1494,-7.1494,-7.1431,-7.134,-7.1146,-7.1015,-7.0852,-7.065,-7.0514,-7.0514,-6.9849,-6.9052,-6.8215,-6.8828,-6.8447,-6.6761,-6.5975,-6.557,-6.5425,-6.5425,-6.5425,-6.5425,-6.5425,-6.5425,-6.5425,-6.5425,-6.5425,-7.5501,-7.5501,-7.5501,-7.5501,-7.5501,-7.5501,-7.5501,-7.5501,0.0,0.0,0.0,0.0,0.0,0.0,0.0,0.0,0.0,0.0,0.0,0.0,0.0,0.0,0.0,0.0,0.0,0.0,0.0,0.0,0.0,0.0,0.0,0.0,0.0,0.0,-7.2667,-7.2496,-7.2496,-7.2438,-7.2438,-7.2496,-7.2438,-7.238,-7.238,-7.2263,-7.2204,-7.2144,0.0,-7.2084,-7.1988,-7.1964,-7.1842,-7.1816,-7.1656,-7.1593,-7.1494,-7.1494,-7.1494,-7.1494,-7.1494,-7.1494,-7.1494,-7.1494,-7.1494,-7.1494,-7.1494,-7.1494,-7.1494,-7.1494,-7.1494,-7.1494,-7.1494,-7.1494,-7.1494,-7.1494,-7.1494,-7.1494,-7.1494,-7.1494,-7.1494,-7.1494,-7.1494,-7.1494,-7.1494,-7.1494,-7.1494,-7.1494,-7.1467,-7.134,-7.1276,-7.1081,-7.0852,-7.0821,-7.065,-7.0341,-6.9849,-6.9455,-6.8676,-6.742,-6.7175,-6.6761,-6.6062,-6.557,-6.5425,-6.5425,-6.5425,-6.5425,-6.5425,-6.5425,-6.5425,-6.5425,-6.5425,-6.5425,-7.5501,-7.5501,-7.5501,-7.5501,0.0,-7.5501,-7.5501,-7.5501,0.0,0.0,0.0,0.0,0.0,0.0,0.0,0.0,0.0,0.0,0.0,0.0,0.0,0.0,0.0,0.0,0.0,0.0,0.0,0.0,0.0,0.0,0.0,0.0,0.0,0.0,-7.2438,-7.2438,-7.2438,-7.2321,-7.2321,-7.2438,-7.2263,-7.2204,-7.2204,-7.2048,-7.1988,-7.1964,-7.1964,-7.1927,-7.1866,-7.178,-7.1718,-7.1718,-7.1593,-7.1494,-7.1494,-7.1494,-7.1494,-7.1494,-7.1494,-7.1494,-7.1494,-7.1494,-7.1494,-7.1494,-7.1494,-7.1494,-7.1494,-7.1494,-7.1494,-7.1494,-7.1494,-7.1494,-7.1494,-7.1494,-7.1494,-7.1494,-7.1494,-7.1494,-7.1494,-7.1494,-7.1494,-7.1494,-7.1494,-7.1494,-7.1494,-7.1467,-7.134,-7.1276,-7.1146,-7.0985,-7.0785,-7.0718,-7.0582,-7.0096,-6.8978,-6.8903,-6.8215,-6.6542,-6.5746,-6.5425,-6.5425,-6.5425,-6.5425,-6.5425,-6.5425,-6.5425,-6.5425,-6.5425,-6.5425,-6.5425,-6.5425,-6.5425,-7.5501,-7.5501,-7.5501,-7.5501,-7.5501,0.0,-7.5501,-7.5501,0.0,-7.5501,0.0,0.0,0.0,0.0,0.0,0.0,0.0,0.0,0.0,0.0,0.0,0.0,0.0,0.0,0.0,0.0,0.0,0.0,0.0,0.0,0.0,0.0,0.0,0.0,0.0,-7.2299,-7.2299,-7.2144,-7.2144,-7.2299,-7.2144,-7.1988,-7.1988,-7.1988,-7.1964,-7.1816,-7.178,-7.1718,-7.1557,-7.1494,-7.1494,-7.1494,-7.1494,-7.1494,-7.1494,-7.1494,-7.1494,-7.1494,-7.1494,-7.1494,-7.1494,-7.1494,-7.1494,-7.1494,-7.1494,-7.1494,-7.1494,-7.1494,-7.1494,-7.1494,-7.1494,-7.1494,-7.1494,-7.1494,-7.1494,-7.1494,-7.1494,-7.1494,-7.1494,-7.1494,-7.1494,-7.1494,-7.1494,-7.1494,-7.1467,-7.134,-7.1276,-7.1182,-7.0852,-7.0785,-7.0718,-7.0514,-7.0514,-6.9849,-6.8215,-6.8059,-6.7339,-6.557,-6.5425,-6.5425,-6.5425,-6.5425,-6.5425,-6.5425,-6.5425,-6.5425,-6.5425,-6.5425,-6.5425,-6.5425,-6.5425,-6.5425,-7.5501,-7.5501,-7.5501,-7.5501,-7.5501,0.0,0.0,-7.5245,-7.5392,-7.5095,-7.498,0.0,0.0,0.0,0.0,0.0,0.0,0.0,0.0,0.0,0.0,0.0,0.0,0.0,0.0,0.0,0.0,0.0,0.0,0.0,0.0,0.0,0.0,0.0,0.0,-7.2204,-7.2144,-7.1964,-7.1903,-7.2,-7.1903,-7.1903,-7.1842,-7.1744,-7.162,-7.1593,-7.1593,-7.1593,-7.1494,-7.1494,-7.1494,-7.1494,-7.1494,-7.1494,-7.1494,-7.1494,-7.1494,-7.1494,-7.1494,-7.1494,-7.1494,-7.1494,-7.1494,-7.1494,-7.1494,-7.1494,-7.1494,-7.1494,-7.1494,-7.1494,-7.1494,-7.1494,-7.1494,-7.1494,-7.1494,-7.1494,-7.1494,-7.1494,-7.1494,-7.1494,-7.1494,-7.1431,-7.1404,-7.1404,-7.134,-7.1146,-7.1015,-7.0919,-7.0821,-7.065,-7.0582,-7.0514,-6.9562,-6.8676,-6.8059,-6.701,-6.6148,-6.5392,-6.5425,-6.5425,-6.5425,-6.5425,-6.5425,-6.5425,-6.5425,-6.5425,-6.5425,-6.5425,-6.5425,-6.5425,-6.5425,-6.5425,-7.5501,-7.5501,-7.5427,0.0,0.0,0.0,-7.4623,-7.4863,-7.5132,-7.4786,-7.4396,0.0,0.0,0.0,0.0,0.0,0.0,0.0,0.0,0.0,0.0,0.0,0.0,0.0,0.0,0.0,0.0,0.0,0.0,0.0,0.0,0.0,0.0,0.0,0.0,0.0,-7.1964,-7.178,-7.1718,-7.1718,-7.1718,-7.1718,-7.1718,-7.1557,-7.1494,-7.1494,-7.1494,-7.1494,-7.1494,-7.1494,-7.1494,-7.1494,-7.1494,-7.1494,-7.1494,-7.1494,-7.1494,-7.1494,-7.1494,-7.1494,-7.1494,-7.1494,-7.1494,-7.1494,-7.1494,-7.1494,-7.1494,-7.1494,-7.1494,-7.1494,-7.1494,-7.1494,-7.1494,-7.1494,-7.1494,-7.1494,-7.1494,-7.1494,-7.1494,-7.1494,-7.1467,-7.1404,-7.134,-7.1211,-7.1146,-7.0949,-7.0852,-7.0821,-7.0718,-7.0582,-7.041,-7.0096,-6.9087,-6.8137,-6.7662,-6.6457,-6.5658,-6.5425,-6.5425,-6.5425,-6.5425,-6.5425,-6.5425,-6.5425,-6.5425,-6.5425,-6.5425,-6.5425,-6.5425,-6.5425,-6.5425,-6.5425,-7.5501,-7.5501,0.0,0.0,0.0,0.0,-7.4237,-7.4331,-7.4667,-7.4667,0.0,0.0,0.0,0.0,0.0,0.0,0.0,0.0,0.0,0.0,0.0,0.0,0.0,0.0,0.0,0.0,0.0,0.0,0.0,0.0,0.0,0.0,0.0,0.0,0.0,0.0,-7.1816,-7.1593,-7.1494,-7.1494,-7.1494,-7.1494,-7.1494,-7.1494,-7.1494,-7.1494,-7.1494,-7.1494,-7.1494,-7.1494,-7.1494,-7.1494,-7.1494,-7.1494,-7.1494,-7.1494,-7.1494,-7.1494,-7.1494,-7.1494,-7.1494,-7.1494,-7.1494,-7.1494,-7.1494,-7.1494,-7.1494,-7.1494,-7.1494,-7.1494,-7.1494,-7.1494,-7.1494,-7.1494,-7.1494,-7.1494,-7.1494,-7.1494,-7.1494,-7.1494,-7.1404,-7.1276,-7.1276,-7.1146,-7.0949,-7.0785,-7.0821,-7.0718,-7.0514,-7.0514,-7.0202,-6.9309,-6.92,-6.8524,-6.6844,-6.6677,-6.6287,-6.5392,-6.5425,-6.5425,-6.5425,-6.5425,-6.5425,-6.5425,-6.5425,-6.5425,-6.5425,-6.5425,-6.5425,-6.5425,-6.5425,-6.5425,-7.5501,0.0,0.0,0.0,0.0,0.0,0.0,-7.4169,0.0,0.0,0.0,0.0,0.0,0.0,0.0,0.0,0.0,0.0,0.0,0.0,0.0,0.0,0.0,0.0,0.0,0.0,0.0,0.0,0.0,0.0,0.0,0.0,0.0,0.0,0.0,0.0,-7.1557,-7.1494,-7.1494,-7.1494,-7.1494,-7.1494,-7.1494,-7.1494,-7.1494,-7.1494,-7.1494,-7.1494,-7.1494,-7.1494,-7.1494,-7.1494,-7.1494,-7.1494,-7.1494,-7.1494,-7.1494,-7.1494,-7.1494,-7.1494,-7.1494,-7.1494,-7.1494,-7.1494,-7.1494,-7.1494,-7.1494,-7.1494,-7.1494,-7.1494,-7.1494,-7.1494,-7.1494,-7.1494,-7.1494,-7.1494,-7.1494,-7.1494,-7.1494,-7.1494,-7.1404,-7.1276,-7.111,-7.0949,-7.0785,-7.065,-7.0582,-7.0582,-7.0514,-7.0514,-7.0202,-6.9309,-6.8676,-6.7901,-6.6761,-6.6148,-6.5658,-6.5425,-6.5425,-6.5425,-6.5425,-6.5425,-6.5425,-6.5425,-6.5425,-6.5425,-6.5425,-6.5425,-6.5425,-6.5425,-6.5425,-6.5425,-7.5245,0.0,0.0,0.0,0.0,0.0,0.0,0.0,0.0,0.0,0.0,0.0,0.0,0.0,0.0,0.0,0.0,0.0,0.0,0.0,0.0,0.0,0.0,0.0,0.0,0.0,0.0,0.0,0.0,0.0,0.0,0.0,0.0,0.0,0.0,0.0,-7.0589,-7.0879,-7.106,-7.106,-7.135,-7.1494,-7.1494,-7.1494,-7.1494,-7.1494,-7.1494,-7.1494,-7.1494,-7.1494,-7.1494,-7.1494,-7.1494,-7.1494,-7.1494,-7.1494,-7.1494,-7.1494,-7.1494,-7.1494,-7.1494,-7.1494,-7.1494,-7.1494,-7.1494,-7.1494,-7.1494,-7.1494,-7.1494,-7.1494,-7.1494,-7.1494,-7.1494,-7.1494,-7.1494,-7.1494,-7.1494,-7.1494,-7.1494,-7.1467,-7.1276,-7.1146,-7.0949,-7.0785,-7.065,-7.0514,-7.0514,-7.0514,-7.0514,-7.0514,-7.0026,-6.8828,-6.8293,-6.7501,-6.6287,-6.5746,-6.5425,-6.5425,-6.5425,-6.5425,-6.5425,-6.5425,-6.5425,-6.5425,-6.5425,-6.5425,-6.5425,-6.5425,-6.5425,-6.5425,-6.5425,-6.5425,0.0,0.0,0.0,0.0,0.0,0.0,0.0,0.0,0.0,0.0,0.0,0.0,0.0,0.0,0.0,0.0,0.0,0.0,0.0,0.0,0.0,0.0,0.0,0.0,0.0,0.0,0.0,0.0,0.0,0.0,0.0,0.0,0.0,0.0,0.0,0.0,-6.9176,-6.9901,-7.0263,0.0,-7.1024,-7.1386,-7.1422,-7.1458,-7.1494,-7.1494,-7.1494,-7.1494,-7.1494,-7.1494,-7.1494,-7.1494,-7.1494,-7.1494,-7.1494,-7.1494,-7.1494,-7.1494,-7.1494,-7.1494,-7.1494,-7.1494,-7.1494,-7.1494,-7.1494,-7.1494,-7.1494,-7.1494,-7.1494,-7.1494,-7.1494,-7.1494,-7.1494,-7.1494,-7.1494,-7.1494,-7.1494,-7.1494,-7.1467,-7.134,-7.1146,-7.0949,-7.0785,-7.065,-7.0514,-7.0514,-7.0514,-7.0514,-7.041,-7.0341,-6.9706,-6.8059,-6.7901,-6.7175,-6.557,-6.5425,-6.5425,-6.5425,-6.5425,-6.5425,-6.5425,-6.5425,-6.5425,-6.5425,-6.5425,-6.5425,-6.5425,-6.5425,-6.5425,-6.5425,-6.5425,-6.5425,0.0,0.0,0.0,0.0,0.0,0.0,0.0,0.0,0.0,0.0,0.0,0.0,0.0,0.0,0.0,0.0,0.0,0.0,0.0,0.0,0.0,0.0,0.0,0.0,0.0,0.0,0.0,0.0,0.0,0.0,0.0,0.0,0.0,0.0,0.0,-6.8561,-6.9176,-6.9358,-6.943,0.0,-7.0263,-7.0625,-7.0661,-7.1241,-7.1494,-7.1494,-7.1494,-7.1494,-7.1494,-7.1494,-7.1494,-7.1494,-7.1494,-7.1494,-7.1494,-7.1494,-7.1494,-7.1494,-7.1494,-7.1494,-7.1494,-7.1494,-7.1494,-7.1494,-7.1494,-7.1494,-7.1494,-7.1494,-7.1494,-7.1494,-7.1494,-7.1494,-7.1494,-7.1494,-7.1494,-7.1494,-7.1494,-7.1404,-7.134,-7.1276,-7.1051,-7.0852,-7.0785,-7.065,-7.0514,-7.0514,-7.0514,-7.0272,-6.9562,-6.9455,-6.8828,-6.7175,-6.701,-6.6542,-6.5481,-6.5425,-6.5425,-6.5425,-6.5425,-6.5425,-6.5425,-6.5425,-6.5425,-6.5425,-6.5425,-6.5425,-6.5425,-6.5425,-6.5425,-6.5425,-6.5425,-6.5425,0.0,0.0,0.0,0.0,0.0,0.0,0.0,0.0,0.0,0.0,0.0,0.0,0.0,0.0,0.0,0.0,0.0,0.0,0.0,0.0,0.0,0.0,0.0,0.0,0.0,0.0,0.0,0.0,0.0,0.0,0.0,0.0,0.0,0.0,-6.7497,-6.7619,-6.8054,-6.8416,-6.8633,-6.8633,-6.943,-6.9828,-6.9828,-7.0987,-7.1494,-7.1494,-7.1494,-7.1494,-7.1494,-7.1494,-7.1494,-7.1494,-7.1494,-7.1494,-7.1494,-7.1494,-7.1494,-7.1494,-7.1494,-7.1494,-7.1494,-7.1494,-7.1494,-7.1494,-7.1494,-7.1494,-7.1494,-7.1494,-7.1494,-7.1494,-7.1494,-7.1494,-7.1494,-7.1494,-7.1494,-7.1494,-7.1404,-7.134,-7.1211,-7.1117,-7.0919,-7.0785,-7.065,-7.0582,-7.0514,-7.0514,-7.0096,-6.9706,-6.9235,-6.8828,-6.8137,-6.6844,-6.6711,-6.6372,-6.5481,-6.5425,-6.5425,-6.5425,-6.5425,-6.5425,-6.5425,-6.5425,-6.5425,-6.5425,-6.5425,-6.5425,-6.5425,-6.5425,-6.5425,-6.5425,-6.5425,-6.5425,0.0,0.0,0.0,0.0,0.0,0.0,0.0,0.0,0.0,0.0,0.0,0.0,0.0,0.0,0.0,0.0,0.0,0.0,0.0,0.0,0.0,0.0,0.0,0.0,0.0,0.0,0.0,0.0,0.0,0.0,0.0,0.0,-6.6903,-6.6786,-6.6786,-6.6786,-6.6786,-6.7474,-6.78,-6.78,-6.8597,-6.9068,-6.9213,-7.0517,-7.1168,-7.1313,-7.1458,-7.1494,-7.1494,-7.1494,-7.1494,-7.1494,-7.1494,-7.1494,-7.1494,-7.1494,-7.1494,-7.1494,-7.1494,-7.1494,-7.1494,-7.1494,-7.1494,-7.1494,-7.1494,-7.1494,-7.1494,-7.1494,-7.1494,-7.1494,-7.1494,-7.1494,-7.1494,-7.1431,-7.1467,-7.1467,-7.134,-7.1211,-7.1117,-7.0852,-7.0785,-7.0718,-7.0514,-7.0514,-7.0514,-7.0514,-6.9778,-6.9161,-6.8978,-6.8293,-6.742,-6.6542,-6.6457,-6.6201,-6.5481,-6.5425,-6.5425,-6.5425,-6.5425,-6.5425,-6.5425,-6.5425,-6.5425,-6.5425,-6.5425,-6.5425,-6.5425,-6.5425,-6.5425,-6.5425,-6.5425,-6.5425,0.0,0.0,0.0,0.0,0.0,0.0,0.0,0.0,0.0,0.0,0.0,0.0,0.0,0.0,0.0,0.0,0.0,0.0,0.0,0.0,0.0,0.0,0.0,0.0,0.0,0.0,0.0,0.0,0.0,0.0,0.0,-6.6903,-6.6786,-6.6786,-6.6786,-6.6786,-6.6786,-6.6895,-6.6967,-6.6967,-6.78,-6.8525,-6.9176,-6.9394,-6.9865,-7.0553,-7.1205,-7.1494,-7.1494,-7.1494,-7.1494,-7.1494,-7.1494,-7.1494,-7.1494,-7.1494,-7.1494,-7.1494,-7.1494,-7.1494,-7.1494,-7.1494,-7.1494,-7.1494,-7.1494,-7.1494,-7.1494,-7.1494,-7.1494,-7.1494,-7.1494,-7.1494,-7.1431,-7.134,-7.134,-7.134,-7.1276,-7.1051,-7.0852,-7.0821,-7.065,-7.0514,-7.0514,-7.0514,-7.0514,-7.0514,-6.9778,-6.8978,-6.8293,-6.742,-6.6542,-6.5658,-6.557,-6.5481,-6.5425,-6.5425,-6.5425,-6.5425,-6.5425,-6.5425,-6.5425,-6.5425,-6.5425,-6.5425,-6.5425,-6.5425,-6.5425,-6.5425,-6.5425,-6.5425,-6.5425,-6.5425,0.0,0.0,0.0,0.0,0.0,0.0,0.0,0.0,0.0,0.0,0.0,0.0,0.0,0.0,0.0,0.0,0.0,0.0,0.0,0.0,0.0,0.0,0.0,0.0,0.0,0.0,0.0,0.0,0.0,0.0,-6.7019,-6.6845,-6.6786,-6.6786,-6.6786,-6.6786,-6.6786,-6.6786,-6.6786,-6.6786,-6.7148,-6.751,-6.7873,-6.8307,-6.8959,-6.9756,-7.0553,-7.0879,-7.0915,-7.1313,-7.1494,-7.1494,-7.1494,-7.1494,-7.1494,-7.1494,-7.1494,-7.1494,-7.1494,-7.1494,-7.1494,-7.1494,-7.1494,-7.1494,-7.1494,-7.1494,-7.1494,-7.1494,-7.1494,-7.1494,-7.1494,-7.1494,-7.1467,-7.134,-7.1211,-7.1146,-7.1051,-7.0919,-7.0754,-7.065,-7.0582,-7.0514,-7.0514,-7.0514,-7.0514,-7.0514,-6.9382,-6.837,-6.8059,-6.6761,-6.5801,-6.5392,-6.5425,-6.5425,-6.5425,-6.5425,-6.5425,-6.5425,-6.5425,-6.5425,-6.5425,-6.5425,-6.5425,-6.5425,-6.5425,-6.5425,-6.5425,-6.5425,-6.5425,-6.5425,-6.5425,-6.5425,0.0,0.0,0.0,0.0,0.0,0.0,0.0,0.0,0.0,0.0,0.0,0.0,0.0,0.0,0.0,0.0,0.0,0.0,0.0,0.0,0.0,0.0,0.0,0.0,0.0,0.0,0.0,0.0,0.0,0.0,-6.6961,-6.6845,-6.6786,-6.6786,-6.6786,-6.6786,-6.6786,-6.6786,-6.6786,-6.6786,-6.6786,-6.6786,-6.6822,-6.7438,-6.8017,-6.8633,-6.9647,-7.0082,-7.0118,-7.0698,-7.1024,-7.1205,-7.1205,-7.1313,-7.1494,-7.1494,-7.1494,-7.1494,-7.1494,-7.1494,-7.1494,-7.1494,-7.1494,-7.1494,-7.1494,-7.1494,-7.1494,-7.1494,-7.1494,-7.1494,-7.1467,-7.1467,-7.1404,-7.1247,-7.1081,-7.0883,-7.0785,-7.0718,-7.065,-7.0514,-7.0514,-7.0514,-7.0514,-7.0514,-7.0514,-7.0514,-6.9087,-6.798,-6.798,-6.6457,-6.5425,-6.5425,-6.5425,-6.5425,-6.5425,-6.5425,-6.5425,-6.5425,-6.5425,-6.5425,-6.5425,-6.5425,-6.5425,-6.5425,-6.5425,-6.5425,-6.5425,-6.5425,-6.5425,-6.5425,-6.5425,-6.5425,0.0,0.0,0.0,0.0,0.0,0.0,0.0,0.0,0.0,0.0,0.0,0.0,0.0,0.0,0.0,0.0,0.0,0.0,0.0,0.0,0.0,0.0,0.0,0.0,0.0,0.0,0.0,0.0,0.0,0.0,-6.6786,-6.6786,-6.6786,-6.6786,-6.6786,-6.6786,-6.6786,-6.6786,-6.6786,-6.6786,-6.6786,-6.6786,-6.6786,-6.6858,-6.6895,-6.7003,-6.8561,-6.9249,-6.9249,-6.9285,-6.9756,-7.0444,-7.0444,-7.0879,-7.1494,-7.1494,-7.1494,-7.1494,-7.1494,-7.1494,-7.1494,-7.1494,-7.1494,-7.1494,-7.1494,-7.1494,-7.1494,-7.1494,-7.1494,-7.1431,-7.134,-7.1276,-7.1211,-7.0919,-7.0821,-7.0718,-7.0582,-7.0514,-7.0514,-7.0514,-7.0514,-7.0514,-7.0514,-7.0514,-7.0514,-7.0514,-6.9087,-6.798,-6.798,-6.6457,-6.5425,-6.5425,-6.5425,-6.5425,-6.5425,-6.5425,-6.5425,-6.5425,-6.5425,-6.5425,-6.5425,-6.5425,-6.5425,-6.5425,-6.5425,-6.5425,-6.5425,-6.5425,-6.5425,-6.5425,-6.5425,-6.5425,-7.0438,0.0,0.0,0.0,0.0,0.0,0.0,0.0,0.0,0.0,0.0,0.0,0.0,0.0,0.0,0.0,0.0,0.0,0.0,0.0,0.0,0.0,0.0,0.0,0.0,0.0,0.0,0.0,0.0,0.0,-6.6786,-6.6786,-6.6786,-6.6786,-6.6786,-6.6786,-6.6786,-6.6786,-6.6786,-6.6786,-6.6786,-6.6786,-6.6786,-6.6786,-6.6786,-6.6822,-6.7402,-6.7945,-6.8452,-6.8959,-6.9358,-6.9611,-6.9611,-6.9756,-7.0082,-7.0589,-7.077,-7.0842,-7.135,-7.1494,-7.1494,-7.1494,-7.1494,-7.1494,-7.1494,-7.1494,-7.1494,-7.1494,-7.1467,-7.134,-7.1276,-7.1211,-7.1081,-7.0852,-7.0718,-7.0582,-7.0514,-7.0514,-7.0514,-7.0514,-7.0514,-7.0514,-7.0514,-7.0514,-7.0514,-7.0514,-6.9087,-6.798,-6.798,-6.6457,-6.5425,-6.5425,-6.5425,-6.5425,-6.5425,-6.5425,-6.5425,-6.5425,-6.5425,-6.5425,-6.5425,-6.5425,-6.5425,-6.5425,-6.5425,-6.5425,-6.5425,-6.5425,-6.5425,-6.5425,-6.5425,-6.5425,-6.9779,-6.8715,0.0,0.0,0.0,0.0,0.0,0.0,0.0,0.0,0.0,0.0,0.0,0.0,0.0,0.0,0.0,0.0,0.0,0.0,0.0,0.0,0.0,0.0,0.0,0.0,0.0,0.0,0.0,0.0,-6.6786,-6.6786,-6.6786,-6.6786,-6.6786,-6.6786,-6.6786,-6.6786,-6.6786,-6.6786,-6.6786,-6.6786,-6.6786,-6.6786,-6.6786,-6.6786,-6.6786,-6.7112,-6.7655,-6.8162,-6.8525,-6.8778,-6.8778,-6.8959,-6.9249,-6.9792,-6.9973,-7.0082,-7.0879,-7.1132,-7.1168,-7.1422,-7.1494,-7.1494,-7.1494,-7.1431,-7.1467,-7.1467,-7.134,-7.1211,-7.1182,-7.0949,-7.0817,-7.0718,-7.0582,-7.0514,-7.0514,-7.0514,-7.0514,-7.0514,-7.0514,-7.0514,-7.0514,-7.0514,-7.041,-7.0096,-6.8938,-6.7901,-6.7582,-6.6287,-6.5425,-6.5425,-6.5425,-6.5425,-6.5425,-6.5425,-6.5425,-6.5425,-6.5425,-6.5425,-6.5425,-6.5425,-6.5425,-6.5425,-6.5425,-6.5425,-6.5425,-6.5425,-6.5425,-6.5425,-6.5425,-6.5425,0.0,0.0,0.0,0.0,0.0,0.0,0.0,0.0,0.0,0.0,0.0,0.0,0.0,0.0,0.0,0.0,0.0,0.0,0.0,0.0,0.0,0.0,0.0,0.0,0.0,0.0,0.0,0.0,0.0,-6.5917,-6.6714,-6.6786,-6.6786,-6.6786,-6.6786,-6.6786,-6.6786,-6.6786,-6.6786,-6.6786,-6.6786,-6.6786,-6.6786,-6.6786,-6.6786,-6.6786,-6.6786,-6.6786,-6.6786,-6.6786,-6.7257,-6.7981,-6.7981,-6.8452,-6.9104,-6.914,-6.914,-6.9249,-7.0082,-7.0335,-7.048,-7.1241,-7.1458,-7.1458,-7.1494,-7.1404,-7.1276,-7.1276,-7.1146,-7.0949,-7.0852,-7.065,-7.0514,-7.0514,-7.0514,-7.0514,-7.0514,-7.0514,-7.0514,-7.0514,-7.0514,-7.0514,-7.0514,-7.0445,-7.0202,-6.9309,-6.8447,-6.7662,-6.6761,-6.5975,-6.5425,-6.5425,-6.5425,-6.5425,-6.5425,-6.5425,-6.5425,-6.5425,-6.5425,-6.5425,-6.5425,-6.5425,-6.5425,-6.5425,-6.5425,-6.5425,-6.5425,-6.5425,-6.5425,-6.5425,-6.5425,-6.5425,-6.8972,0.0,0.0,0.0,0.0,0.0,0.0,0.0,0.0,0.0,0.0,0.0,0.0,0.0,0.0,0.0,0.0,0.0,0.0,0.0,0.0,0.0,0.0,0.0,0.0,0.0,0.0,0.0,-6.4722,-6.5084,-6.5881,-6.6496,-6.6786,-6.6786,-6.6786,-6.6786,-6.6786,-6.6786,-6.6786,-6.6786,-6.6786,-6.6786,-6.6786,-6.6786,-6.6786,-6.6786,-6.6786,-6.6786,-6.6786,-6.6786,-6.6931,-6.7148,-6.7148,-6.7257,-6.751,-6.8126,-6.8343,-6.8452,-6.9249,-6.9502,-6.9647,-7.0444,-7.0698,-7.0806,-7.1223,-7.134,-7.1276,-7.1146,-7.0949,-7.0785,-7.065,-7.0514,-7.0514,-7.0514,-7.0514,-7.0514,-7.0514,-7.0514,-7.0514,-7.0514,-7.0514,-7.0272,-6.9706,-6.9562,-6.9309,-6.8447,-6.7582,-6.6928,-6.6677,-6.5975,-6.5425,-6.5425,-6.5425,-6.5425,-6.5425,-6.5425,-6.5425,-6.5425,-6.5425,-6.5425,-6.5425,-6.5425,-6.5425,-6.5425,-6.5425,-6.5425,-6.5425,-6.5425,-6.5425,-6.5425,-6.5425,-6.5425,-6.8495,-6.8054,-6.7687,0.0,0.0,0.0,0.0,-6.7687,0.0,0.0,0.0,0.0,0.0,0.0,0.0,0.0,0.0,0.0,0.0,0.0,0.0,0.0,0.0,0.0,0.0,0.0,0.0,0.0,-6.3889,-6.4251,-6.5048,-6.5844,-6.6315,-6.6315,-6.6641,-6.6786,-6.6786,-6.6786,-6.6786,-6.6786,-6.6786,-6.6786,-6.6786,-6.6786,-6.6786,-6.6786,-6.6786,-6.6786,-6.6786,-6.6786,-6.6786,-6.6786,-6.6786,-6.6786,-6.6858,-6.7329,-6.751,-6.7619,-6.8416,-6.8706,-6.8814,-6.955,-6.9803,-6.9885,-7.0454,-7.0642,-7.0685,-7.0878,-7.0785,-7.065,-7.0514,-7.0514,-7.0514,-7.0514,-7.0514,-7.0514,-7.0514,-7.0514,-7.0514,-7.0514,-7.0202,-6.9778,-6.9309,-6.8903,-6.8447,-6.7582,-6.701,-6.6542,-6.6201,-6.5746,-6.5425,-6.5425,-6.5425,-6.5425,-6.5425,-6.5425,-6.5425,-6.5425,-6.5425,-6.5425,-6.5425,-6.5425,-6.5425,-6.5425,-6.5425,-6.5425,-6.5425,-6.5425,-6.5425,-6.5425,-6.5425,-6.5425,-6.7853,-6.7687,-6.7687,-6.7687,0.0,0.0,-6.7687,-6.7687,-6.7687,0.0,0.0,0.0,0.0,0.0,0.0,0.0,0.0,0.0,0.0,0.0,0.0,0.0,0.0,0.0,0.0,0.0,-6.2458,-6.3075,-6.3128,-6.349,-6.4215,-6.5011,-6.5518,-6.5591,-6.6279,-6.6714,-6.6786,-6.6786,-6.6786,-6.6786,-6.6786,-6.6786,-6.6786,-6.6786,-6.6786,-6.6786,-6.6786,-6.6786,-6.6786,-6.6786,-6.6786,-6.6786,-6.6786,-6.6786,-6.6786,-6.6786,-6.6786,-6.6895,-6.7619,-6.7813,-6.7921,-6.8559,-6.8749,-6.8831,-6.9497,-6.9555,-6.9603,-7.0427,-7.0579,-7.0514,-7.0514,-7.0514,-7.0514,-7.0514,-7.0514,-7.0514,-7.0514,-7.041,-7.0341,-7.0341,-6.9706,-6.9126,-6.8978,-6.837,-6.7582,-6.6711,-6.6542,-6.6287,-6.5481,-6.5425,-6.5425,-6.5425,-6.5425,-6.5425,-6.5425,-6.5425,-6.5425,-6.5425,-6.5425,-6.5425,-6.5425,-6.5425,-6.5425,-6.5425,-6.5425,-6.5425,-6.5425,-6.5425,-6.5425,-6.5336,-6.5336,-6.5336,-6.767,-6.7687,0.0,0.0,0.0,0.0,-6.7687,-6.7687,-6.7687,0.0,0.0,0.0,0.0,0.0,0.0,0.0,0.0,0.0,0.0,0.0,0.0,0.0,0.0,0.0,0.0,0.0,-6.2364,-6.2349,-6.2894,-6.3273,-6.3418,-6.4178,-6.4939,-6.5591,-6.5736,-6.6134,-6.6786,-6.6786,-6.6786,-6.6786,-6.6786,-6.6786,-6.6786,-6.6786,-6.6786,-6.6786,-6.6786,-6.6786,-6.6786,-6.6786,-6.6786,-6.6786,-6.6786,-6.6786,-6.6786,-6.6786,-6.6786,-6.6822,-6.6789,-6.6825,-6.6909,-6.758,-6.777,-6.7914,-6.8514,-6.8665,-6.8779,-6.9404,-7.0015,-7.0514,-7.0514,-7.0514,-7.0514,-7.0514,-7.0514,-7.0514,-7.0514,-6.9956,-6.9455,-6.9455,-6.9309,-6.8752,-6.742,-6.7093,-6.6711,-6.5801,-6.5658,-6.557,-6.5425,-6.5425,-6.5425,-6.5425,-6.5425,-6.5425,-6.5425,-6.5425,-6.5425,-6.5425,-6.5425,-6.5425,-6.5425,-6.5425,-6.5425,-6.5425,-6.5425,-6.5425,-6.5425,-6.5425,-6.5336,-6.5189,-6.5189,-6.5099,0.0,0.0,0.0,-6.7687,0.0,0.0,0.0,-6.7687,0.0,0.0,0.0,0.0,0.0,0.0,0.0,0.0,0.0,0.0,0.0,0.0,0.0,0.0,0.0,0.0,0.0,0.0,-6.2328,-6.2114,-6.2422,-6.2585,-6.2585,-6.3345,-6.3997,-6.4396,-6.5192,-6.5772,-6.6207,-6.6605,-6.6786,-6.6786,-6.6786,-6.6786,-6.6786,-6.6786,-6.6786,-6.6786,-6.6786,-6.6786,-6.6786,-6.6786,-6.6786,-6.6786,-6.6786,-6.6786,-6.6786,-6.6786,-6.6727,-6.6668,-6.6512,-6.6452,-6.6463,-6.6674,-6.6756,-6.6899,-6.7497,-6.7933,-6.8398,-6.9087,-6.9586,-7.0015,-7.0407,-7.0514,-7.0514,-7.0514,-7.0514,-7.0341,-6.9956,-6.9527,-6.8978,-6.8137,-6.7945,-6.7742,-6.6844,-6.6372,-6.5888,-6.5514,-6.5425,-6.5425,-6.5425,-6.5425,-6.5425,-6.5425,-6.5425,-6.5425,-6.5425,-6.5425,-6.5425,-6.5425,-6.5425,-6.5425,-6.5425,-6.5425,-6.5425,-6.5425,-6.5425,-6.5425,-6.5425,-6.5336,-6.5279,-6.5279,-6.5279,-6.5156,0.0,0.0,0.0,0.0,0.0,-6.7687,0.0,0.0,0.0,0.0,0.0,0.0,0.0,0.0,0.0,0.0,0.0,0.0,0.0,0.0,0.0,0.0,0.0,0.0,0.0,0.0,-6.2275,-6.2005,-6.2005,-6.2005,-6.2005,-6.2621,-6.3019,-6.32,-6.4468,-6.5301,-6.5591,-6.6243,-6.6641,-6.6786,-6.6786,-6.6786,-6.6786,-6.6786,-6.6786,-6.6786,-6.6786,-6.6786,-6.6786,-6.6786,-6.6786,-6.6727,-6.6786,-6.6786,-6.6727,-6.6727,-6.6608,-6.6452,-6.6391,-6.633,-6.6207,-6.6021,-6.5958,-6.6066,-6.6618,-6.7267,-6.8016,-6.8694,-6.898,-6.9265,-7.005,-7.0264,-7.03,-7.0478,-7.0341,-7.0026,-6.9382,-6.8978,-6.837,-6.6928,-6.6542,-6.6457,-6.6457,-6.5888,-6.5425,-6.5425,-6.5425,-6.5425,-6.5425,-6.5425,-6.5425,-6.5425,-6.5425,-6.5425,-6.5425,-6.5425,-6.5425,-6.5425,-6.5425,-6.5425,-6.5425,-6.5425,-6.5425,-6.5425,-6.5425,-6.5425,-6.5425,-6.5189,-6.5189,-6.5246,-6.5246,-6.5246,0.0,0.0,0.0,0.0,-6.7524,0.0,0.0,0.0,0.0,0.0,0.0,0.0,0.0,0.0,0.0,0.0,0.0,0.0,0.0,0.0,0.0,0.0,0.0,0.0,0.0,0.0,0.0,-6.2005,-6.2005,-6.2005,-6.2005,-6.2114,-6.2476,-6.3164,-6.3382,-6.4142,-6.5591,-6.57,-6.6098,-6.6786,-6.6786,-6.6786,-6.6786,-6.6786,-6.6786,-6.6786,-6.6786,-6.6786,-6.6786,-6.6786,-6.6668,-6.6512,-6.6727,-6.6668,-6.6512,-6.6512,-6.6452,-6.6269,-6.6146,-6.6083,-6.6021,-6.5832,-6.5804,-6.5804,-6.5911,-6.6482,-6.7124,-6.7231,-6.7731,-6.8409,-6.9229,-6.9444,-6.9622,-7.0336,-6.9956,-6.9309,-6.9235,-6.8024,-6.6928,-6.6795,-6.6062,-6.557,-6.557,-6.5514,-6.5425,-6.5425,-6.5425,-6.5425,-6.5425,-6.5425,-6.5425,-6.5425,-6.5425,-6.5425,-6.5425,-6.5425,-6.5425,-6.5425,-6.5425,-6.5425,-6.5425,-6.5425,-6.5425,-6.5425,-6.5425,-6.5425,-6.5425,-6.5189,-6.5008,-6.4793,-6.4518,-6.4393,0.0,0.0,0.0,0.0,0.0,0.0,-6.7579,0.0,-6.7687,0.0,0.0,0.0,0.0,0.0,0.0,0.0,0.0,0.0,0.0,0.0,0.0,0.0,0.0,0.0,0.0,0.0,0.0,0.0,0.0,-6.2005,-6.2005,-6.2005,-6.215,-6.2476,-6.2947,-6.3526,-6.4178,-6.512,-6.5772,-6.6098,-6.6569,-6.6786,-6.6786,-6.6786,-6.6786,-6.6786,-6.6786,-6.6786,-6.6786,-6.6668,-6.6608,-6.6512,-6.6548,-6.6488,-6.6391,-6.6391,-6.6269,-6.6146,-6.6021,-6.5958,-6.5832,-6.5804,-6.5804,-6.5804,-6.5804,-6.6053,-6.641,-6.6874,-6.7195,-6.7624,-6.8409,-6.8944,-6.9237,-6.9141,-6.9138,-6.8903,-6.7945,-6.7175,-6.6542,-6.6062,-6.5658,-6.5425,-6.5425,-6.5425,-6.5425,-6.5425,-6.5425,-6.5425,-6.5425,-6.5425,-6.5425,-6.5425,-6.5425,-6.5425,-6.5425,-6.5425,-6.5425,-6.5425,-6.5425,-6.5425,-6.5425,-6.5425,-6.5425,-6.5425,-6.5425,-6.5425,-6.5425,-6.5066,-6.4793,-6.4702,-6.461,-6.461,-6.6961,0.0,0.0,0.0,0.0,0.0,0.0,0.0,0.0,0.0,0.0,0.0,0.0,0.0,0.0,0.0,0.0,0.0,0.0,0.0,0.0,0.0,0.0,0.0,0.0,0.0,0.0,0.0,-6.2005,0.0,-6.2005,-6.2005,-6.2005,-6.2005,-6.2585,-6.2983,-6.32,-6.4359,-6.5156,-6.5591,-6.6207,-6.6605,-6.6786,-6.6786,-6.6786,-6.6786,-6.6786,-6.6786,-6.6727,-6.6572,-6.6452,-6.633,-6.6269,-6.6207,-6.6182,-6.6207,-6.6083,-6.5958,-6.5958,-6.5895,-6.5804,-6.5804,-6.5804,-6.5804,-6.5804,-6.5804,-6.5911,-6.6517,-6.666,-6.6773,-6.7354,-6.7927,-6.8184,-6.7581,-6.788,-6.7869,-6.6704,-6.6407,-6.6148,-6.5481,-6.5425,-6.5425,-6.5425,-6.5425,-6.5425,-6.5425,-6.5425,-6.5425,-6.5425,-6.5425,-6.5425,-6.5425,-6.5425,-6.5425,-6.5425,-6.5425,-6.5326,-6.516,-6.4929,-6.4829,-6.4829,-6.4829,-6.4829,-6.4829,-6.4829,-6.4829,-6.4741,-6.4293,-6.4112,-6.4021,-6.4322,-6.461,0.0,0.0,0.0,-6.6961,0.0,0.0,0.0,0.0,-6.747,0.0,0.0,0.0,0.0,0.0,-6.5915,-6.5711,0.0,0.0,0.0,0.0,0.0,0.0,0.0,0.0,0.0,0.0,0.0,-6.2005,-6.2005,0.0,-6.2005,-6.2005,-6.2005,-6.2005,-6.2041,-6.2404,-6.3164,-6.3237,-6.407,-6.5591,-6.5627,-6.6062,-6.6786,-6.6786,-6.6786,-6.6786,-6.6786,-6.6668,-6.6512,-6.6512,-6.633,-6.6021,-6.5985,-6.5958,-6.5867,-6.5958,-6.5895,-6.5804,-6.5804,-6.5804,-6.5804,-6.5804,-6.5804,-6.5804,-6.5804,-6.5804,-6.5804,-6.5839,-6.5839,-6.5853,-6.5896,-6.5899,-6.5899,-6.5867,-6.5778,-6.5677,-6.5677,-6.5526,-6.5425,-6.5425,-6.5425,-6.5425,-6.5425,-6.5425,-6.5425,-6.5425,-6.5425,-6.5425,-6.5425,-6.5425,-6.5425,-6.5425,-6.5425,-6.5425,-6.5425,-6.5425,-6.5127,-6.4465,-6.3736,-6.3338,-6.3338,-6.3338,-6.3338,-6.3338,-6.3338,-6.3252,-6.2991,-6.2727,-6.2549,-6.2281,-6.3437,-6.4179,0.0,0.0,-6.6786,-6.6845,0.0,0.0,0.0,0.0,0.0,0.0,0.0,0.0,0.0,0.0,-6.5039,-6.4908,-6.351,-6.2459,0.0,0.0,0.0,0.0,0.0,0.0,0.0,0.0,0.0,-6.2005,-6.2005,-6.2005,0.0,-6.2005,-6.2005,-6.2005,-6.2005,-6.215,-6.2404,-6.2911,-6.3744,-6.4794,-6.5337,-6.6025,-6.6786,-6.6786,-6.6786,-6.6786,-6.6668,-6.6572,-6.6452,-6.6269,-6.611,-6.6021,-6.5895,-6.5867,-6.5804,-6.5867,-6.5867,-6.5804,-6.5804,-6.5804,-6.5804,-6.5804,-6.5804,-6.5804,-6.5804,-6.5804,-6.5804,-6.5804,-6.5804,-6.5711,-6.5158,-6.5373,-6.5512,-6.4419,-6.4517,-6.4686,-6.417,-6.4062,-6.4133,-6.463,-6.473,-6.4895,-6.5326,-6.5425,-6.5425,-6.5425,-6.5425,-6.5425,-6.5425,-6.5425,-6.5227,-6.4796,-6.473,-6.4531,-6.4034,-6.4001,-6.3902,-6.367,-6.3405,-6.3272,-6.3272,-6.3272,-6.3272,-6.3272,-6.3099,-6.3012,-6.2925,-6.254,-6.2273,-6.2183,-6.2399,-6.2918,-6.6786,-6.6786,0.0,-6.6786,-6.6845,0.0,-6.6961,0.0,0.0,0.0,0.0,0.0,0.0,0.0,-6.4726,-6.407,-6.3092,-6.2331,0.0,-6.2005,0.0,0.0,0.0,0.0,0.0,0.0,-6.2114,-6.2005,-6.2005,-6.2005,0.0,0.0,-6.2005,-6.2005,-6.2005,-6.2005,-6.2005,-6.2512,-6.3164,-6.3961,-6.4794,-6.5591,-6.6388,-6.6618,-6.6668,-6.6668,-6.6548,-6.6391,-6.633,-6.6083,-6.5958,-6.5895,-6.5867,-6.5804,-6.5804,-6.5804,-6.5804,-6.5804,-6.5804,-6.5804,-6.5804,-6.5804,-6.5804,-6.5804,-6.5804,-6.5804,-6.5875,-6.6161,-6.5788,-6.5247,-6.4708,-6.4598,-6.4226,-6.2797,-6.3079,-6.3567,-6.3045,-6.3073,-6.3405,-6.3902,-6.4001,-6.4133,-6.4564,-6.4664,-6.473,-6.4995,-6.5028,-6.4962,-6.4697,-6.4664,-6.4498,-6.4034,-6.4001,-6.3802,-6.3305,-6.304,-6.2875,-6.2875,-6.2643,-6.251,-6.251,-6.251,-6.261,-6.2875,-6.2352,-6.2179,-6.2442,-6.1709,-6.1434,-6.1345,-6.1426,-6.1783]}]]